<?xml version="1.0" encoding="UTF-8" standalone="no" ?>
<gpx xmlns="http://www.topografix.com/GPX/1/1" xmlns:xsi="http://www.w3.org/2001/XMLSchema-instance" xsi:schemaLocation="http://www.topografix.com/GPX/1/1 http://www.topografix.com/GPX/1/1/gpx.xsd" version="1.1" creator="VisuGPX - https://www.visugpx.com">
  <metadata>
    <name>Diesen Carrière de Merlebach</name>
    <desc><![CDATA[File with points/tracks from Locus Map/3.43.0]]></desc>
  </metadata>
  <trk>
    <name><![CDATA[2020-01-12 09:08:51]]></name>
    <extensions>
      <line xmlns="http://www.topografix.com/GPX/gpx_style/0/2">
        <color>0000FF</color>
        <opacity>0.59</opacity>
        <width>6.0</width>
      </line>
    </extensions>
    <trkseg>
      <trkpt lat="49.1773" lon="6.67576">
        <ele>238.5</ele>
        <time>2020-01-12T08:08:55.000Z</time>
      </trkpt>
      <trkpt lat="49.1773" lon="6.67579">
        <ele>238.47</ele>
        <time>2020-01-12T08:09:24.000Z</time>
      </trkpt>
      <trkpt lat="49.17735" lon="6.67579">
        <ele>238.78</ele>
        <time>2020-01-12T08:10:35.000Z</time>
      </trkpt>
      <trkpt lat="49.17738" lon="6.67579">
        <ele>239.57</ele>
        <time>2020-01-12T08:10:45.000Z</time>
      </trkpt>
      <trkpt lat="49.17739" lon="6.67578">
        <ele>237.65</ele>
        <time>2020-01-12T08:12:04.000Z</time>
      </trkpt>
      <trkpt lat="49.17737" lon="6.67573">
        <ele>233.08</ele>
        <time>2020-01-12T08:12:14.000Z</time>
      </trkpt>
      <trkpt lat="49.17735" lon="6.67585">
        <ele>228.69</ele>
        <time>2020-01-12T08:12:24.000Z</time>
      </trkpt>
      <trkpt lat="49.17732" lon="6.67588">
        <ele>227.85</ele>
        <time>2020-01-12T08:12:34.000Z</time>
      </trkpt>
      <trkpt lat="49.17738" lon="6.676">
        <ele>228.5</ele>
        <time>2020-01-12T08:12:44.000Z</time>
      </trkpt>
      <trkpt lat="49.17744" lon="6.67632">
        <ele>229.06</ele>
        <time>2020-01-12T08:12:54.000Z</time>
      </trkpt>
      <trkpt lat="49.17746" lon="6.67659">
        <ele>230.43</ele>
        <time>2020-01-12T08:13:04.000Z</time>
      </trkpt>
      <trkpt lat="49.17747" lon="6.6768">
        <ele>232.46</ele>
        <time>2020-01-12T08:13:14.000Z</time>
      </trkpt>
      <trkpt lat="49.17749" lon="6.67703">
        <ele>232.34</ele>
        <time>2020-01-12T08:13:24.000Z</time>
      </trkpt>
      <trkpt lat="49.17751" lon="6.67723">
        <ele>231.51</ele>
        <time>2020-01-12T08:13:34.000Z</time>
      </trkpt>
      <trkpt lat="49.17753" lon="6.67743">
        <ele>228.81</ele>
        <time>2020-01-12T08:13:44.000Z</time>
      </trkpt>
      <trkpt lat="49.1775" lon="6.67764">
        <ele>225.33</ele>
        <time>2020-01-12T08:13:54.000Z</time>
      </trkpt>
      <trkpt lat="49.17755" lon="6.67785">
        <ele>222.68</ele>
        <time>2020-01-12T08:14:04.000Z</time>
      </trkpt>
      <trkpt lat="49.17763" lon="6.67787">
        <ele>219.45</ele>
        <time>2020-01-12T08:14:14.000Z</time>
      </trkpt>
      <trkpt lat="49.17771" lon="6.67786">
        <ele>219.91</ele>
        <time>2020-01-12T08:14:24.000Z</time>
      </trkpt>
      <trkpt lat="49.17779" lon="6.67802">
        <ele>218.92</ele>
        <time>2020-01-12T08:14:34.000Z</time>
      </trkpt>
      <trkpt lat="49.1779" lon="6.67818">
        <ele>220.28</ele>
        <time>2020-01-12T08:14:44.000Z</time>
      </trkpt>
      <trkpt lat="49.178" lon="6.67832">
        <ele>220.45</ele>
        <time>2020-01-12T08:14:54.000Z</time>
      </trkpt>
      <trkpt lat="49.17813" lon="6.6784">
        <ele>219.8</ele>
        <time>2020-01-12T08:15:04.000Z</time>
      </trkpt>
      <trkpt lat="49.17826" lon="6.67841">
        <ele>220.83</ele>
        <time>2020-01-12T08:15:14.000Z</time>
      </trkpt>
      <trkpt lat="49.17838" lon="6.67846">
        <ele>221.39</ele>
        <time>2020-01-12T08:15:24.000Z</time>
      </trkpt>
      <trkpt lat="49.17853" lon="6.67854">
        <ele>219.56</ele>
        <time>2020-01-12T08:15:34.000Z</time>
      </trkpt>
      <trkpt lat="49.17872" lon="6.67863">
        <ele>219.03</ele>
        <time>2020-01-12T08:15:44.000Z</time>
      </trkpt>
      <trkpt lat="49.17884" lon="6.67876">
        <ele>221.62</ele>
        <time>2020-01-12T08:15:54.000Z</time>
      </trkpt>
      <trkpt lat="49.17893" lon="6.67892">
        <ele>222.02</ele>
        <time>2020-01-12T08:16:04.000Z</time>
      </trkpt>
      <trkpt lat="49.179" lon="6.67911">
        <ele>218.22</ele>
        <time>2020-01-12T08:16:14.000Z</time>
      </trkpt>
      <trkpt lat="49.17901" lon="6.67935">
        <ele>218.39</ele>
        <time>2020-01-12T08:16:24.000Z</time>
      </trkpt>
      <trkpt lat="49.17895" lon="6.67953">
        <ele>218.61</ele>
        <time>2020-01-12T08:16:34.000Z</time>
      </trkpt>
      <trkpt lat="49.17907" lon="6.67956">
        <ele>219.14</ele>
        <time>2020-01-12T08:16:44.000Z</time>
      </trkpt>
      <trkpt lat="49.17918" lon="6.67954">
        <ele>220.03</ele>
        <time>2020-01-12T08:16:54.000Z</time>
      </trkpt>
      <trkpt lat="49.17927" lon="6.67952">
        <ele>220.57</ele>
        <time>2020-01-12T08:17:04.000Z</time>
      </trkpt>
      <trkpt lat="49.17936" lon="6.67954">
        <ele>223.09</ele>
        <time>2020-01-12T08:17:14.000Z</time>
      </trkpt>
      <trkpt lat="49.17948" lon="6.67958">
        <ele>224.06</ele>
        <time>2020-01-12T08:17:24.000Z</time>
      </trkpt>
      <trkpt lat="49.17961" lon="6.67963">
        <ele>224.37</ele>
        <time>2020-01-12T08:17:34.000Z</time>
      </trkpt>
      <trkpt lat="49.17975" lon="6.6797">
        <ele>223.97</ele>
        <time>2020-01-12T08:17:44.000Z</time>
      </trkpt>
      <trkpt lat="49.17989" lon="6.67982">
        <ele>222.94</ele>
        <time>2020-01-12T08:17:54.000Z</time>
      </trkpt>
      <trkpt lat="49.18003" lon="6.67989">
        <ele>223.49</ele>
        <time>2020-01-12T08:18:04.000Z</time>
      </trkpt>
      <trkpt lat="49.18016" lon="6.67995">
        <ele>226.89</ele>
        <time>2020-01-12T08:18:14.000Z</time>
      </trkpt>
      <trkpt lat="49.18028" lon="6.68007">
        <ele>227.29</ele>
        <time>2020-01-12T08:18:24.000Z</time>
      </trkpt>
      <trkpt lat="49.1804" lon="6.68024">
        <ele>228.77</ele>
        <time>2020-01-12T08:18:34.000Z</time>
      </trkpt>
      <trkpt lat="49.18052" lon="6.68043">
        <ele>231.91</ele>
        <time>2020-01-12T08:18:44.000Z</time>
      </trkpt>
      <trkpt lat="49.18059" lon="6.68065">
        <ele>235.49</ele>
        <time>2020-01-12T08:18:54.000Z</time>
      </trkpt>
      <trkpt lat="49.18052" lon="6.68081">
        <ele>234.35</ele>
        <time>2020-01-12T08:19:04.000Z</time>
      </trkpt>
      <trkpt lat="49.18042" lon="6.68101">
        <ele>235.64</ele>
        <time>2020-01-12T08:19:14.000Z</time>
      </trkpt>
      <trkpt lat="49.1803" lon="6.6812">
        <ele>237.31</ele>
        <time>2020-01-12T08:19:24.000Z</time>
      </trkpt>
      <trkpt lat="49.18018" lon="6.68135">
        <ele>240</ele>
        <time>2020-01-12T08:19:34.000Z</time>
      </trkpt>
      <trkpt lat="49.18007" lon="6.68148">
        <ele>241.56</ele>
        <time>2020-01-12T08:19:44.000Z</time>
      </trkpt>
      <trkpt lat="49.17997" lon="6.68159">
        <ele>243.1</ele>
        <time>2020-01-12T08:19:54.000Z</time>
      </trkpt>
      <trkpt lat="49.17987" lon="6.6817">
        <ele>242.67</ele>
        <time>2020-01-12T08:20:04.000Z</time>
      </trkpt>
      <trkpt lat="49.17977" lon="6.68181">
        <ele>243.92</ele>
        <time>2020-01-12T08:20:14.000Z</time>
      </trkpt>
      <trkpt lat="49.17967" lon="6.68194">
        <ele>242.02</ele>
        <time>2020-01-12T08:20:24.000Z</time>
      </trkpt>
      <trkpt lat="49.17956" lon="6.68207">
        <ele>243.32</ele>
        <time>2020-01-12T08:20:34.000Z</time>
      </trkpt>
      <trkpt lat="49.17945" lon="6.68222">
        <ele>243.11</ele>
        <time>2020-01-12T08:20:44.000Z</time>
      </trkpt>
      <trkpt lat="49.17938" lon="6.68239">
        <ele>246.84</ele>
        <time>2020-01-12T08:20:54.000Z</time>
      </trkpt>
      <trkpt lat="49.17934" lon="6.68257">
        <ele>249.03</ele>
        <time>2020-01-12T08:21:04.000Z</time>
      </trkpt>
      <trkpt lat="49.17931" lon="6.68278">
        <ele>249.08</ele>
        <time>2020-01-12T08:21:14.000Z</time>
      </trkpt>
      <trkpt lat="49.17932" lon="6.68298">
        <ele>247.43</ele>
        <time>2020-01-12T08:21:24.000Z</time>
      </trkpt>
      <trkpt lat="49.1793" lon="6.68319">
        <ele>246.53</ele>
        <time>2020-01-12T08:21:34.000Z</time>
      </trkpt>
      <trkpt lat="49.17929" lon="6.6834">
        <ele>246.5</ele>
        <time>2020-01-12T08:21:44.000Z</time>
      </trkpt>
      <trkpt lat="49.17928" lon="6.68363">
        <ele>247.81</ele>
        <time>2020-01-12T08:21:54.000Z</time>
      </trkpt>
      <trkpt lat="49.17927" lon="6.68384">
        <ele>247.65</ele>
        <time>2020-01-12T08:22:04.000Z</time>
      </trkpt>
      <trkpt lat="49.17927" lon="6.68406">
        <ele>246.53</ele>
        <time>2020-01-12T08:22:14.000Z</time>
      </trkpt>
      <trkpt lat="49.17924" lon="6.68429">
        <ele>245.86</ele>
        <time>2020-01-12T08:22:24.000Z</time>
      </trkpt>
      <trkpt lat="49.17917" lon="6.68446">
        <ele>246.35</ele>
        <time>2020-01-12T08:22:34.000Z</time>
      </trkpt>
      <trkpt lat="49.17911" lon="6.68454">
        <ele>247.98</ele>
        <time>2020-01-12T08:22:44.000Z</time>
      </trkpt>
      <trkpt lat="49.1791" lon="6.6846">
        <ele>248.09</ele>
        <time>2020-01-12T08:22:54.000Z</time>
      </trkpt>
      <trkpt lat="49.17909" lon="6.6848">
        <ele>249</ele>
        <time>2020-01-12T08:23:04.000Z</time>
      </trkpt>
      <trkpt lat="49.1791" lon="6.68507">
        <ele>249.24</ele>
        <time>2020-01-12T08:23:14.000Z</time>
      </trkpt>
      <trkpt lat="49.17919" lon="6.68523">
        <ele>248.31</ele>
        <time>2020-01-12T08:23:24.000Z</time>
      </trkpt>
      <trkpt lat="49.17927" lon="6.6854">
        <ele>247.23</ele>
        <time>2020-01-12T08:23:34.000Z</time>
      </trkpt>
      <trkpt lat="49.17934" lon="6.68557">
        <ele>247.41</ele>
        <time>2020-01-12T08:23:44.000Z</time>
      </trkpt>
      <trkpt lat="49.17941" lon="6.68576">
        <ele>244.74</ele>
        <time>2020-01-12T08:23:54.000Z</time>
      </trkpt>
      <trkpt lat="49.17948" lon="6.6859">
        <ele>244.34</ele>
        <time>2020-01-12T08:24:04.000Z</time>
      </trkpt>
      <trkpt lat="49.17955" lon="6.68604">
        <ele>243.9</ele>
        <time>2020-01-12T08:24:14.000Z</time>
      </trkpt>
      <trkpt lat="49.17965" lon="6.68619">
        <ele>244.26</ele>
        <time>2020-01-12T08:24:24.000Z</time>
      </trkpt>
      <trkpt lat="49.17974" lon="6.68635">
        <ele>244.48</ele>
        <time>2020-01-12T08:24:34.000Z</time>
      </trkpt>
      <trkpt lat="49.17985" lon="6.68653">
        <ele>245.67</ele>
        <time>2020-01-12T08:24:44.000Z</time>
      </trkpt>
      <trkpt lat="49.17996" lon="6.68668">
        <ele>242.89</ele>
        <time>2020-01-12T08:24:54.000Z</time>
      </trkpt>
      <trkpt lat="49.18006" lon="6.68685">
        <ele>243.1</ele>
        <time>2020-01-12T08:25:04.000Z</time>
      </trkpt>
      <trkpt lat="49.18014" lon="6.68702">
        <ele>244.67</ele>
        <time>2020-01-12T08:25:14.000Z</time>
      </trkpt>
      <trkpt lat="49.1802" lon="6.68718">
        <ele>245.59</ele>
        <time>2020-01-12T08:25:24.000Z</time>
      </trkpt>
      <trkpt lat="49.18031" lon="6.68735">
        <ele>245.28</ele>
        <time>2020-01-12T08:25:34.000Z</time>
      </trkpt>
      <trkpt lat="49.18044" lon="6.68749">
        <ele>244.18</ele>
        <time>2020-01-12T08:25:44.000Z</time>
      </trkpt>
      <trkpt lat="49.18057" lon="6.68762">
        <ele>243.06</ele>
        <time>2020-01-12T08:25:54.000Z</time>
      </trkpt>
      <trkpt lat="49.18068" lon="6.68776">
        <ele>242.81</ele>
        <time>2020-01-12T08:26:04.000Z</time>
      </trkpt>
      <trkpt lat="49.18076" lon="6.68789">
        <ele>245</ele>
        <time>2020-01-12T08:26:14.000Z</time>
      </trkpt>
      <trkpt lat="49.18083" lon="6.68806">
        <ele>247.45</ele>
        <time>2020-01-12T08:26:24.000Z</time>
      </trkpt>
      <trkpt lat="49.18092" lon="6.68825">
        <ele>249.66</ele>
        <time>2020-01-12T08:26:34.000Z</time>
      </trkpt>
      <trkpt lat="49.181" lon="6.68845">
        <ele>249.53</ele>
        <time>2020-01-12T08:26:44.000Z</time>
      </trkpt>
      <trkpt lat="49.18107" lon="6.68865">
        <ele>251.78</ele>
        <time>2020-01-12T08:26:54.000Z</time>
      </trkpt>
      <trkpt lat="49.18101" lon="6.68881">
        <ele>250.36</ele>
        <time>2020-01-12T08:27:04.000Z</time>
      </trkpt>
      <trkpt lat="49.1809" lon="6.68894">
        <ele>248.74</ele>
        <time>2020-01-12T08:27:14.000Z</time>
      </trkpt>
      <trkpt lat="49.18078" lon="6.68906">
        <ele>249.58</ele>
        <time>2020-01-12T08:27:24.000Z</time>
      </trkpt>
      <trkpt lat="49.18065" lon="6.68918">
        <ele>252.12</ele>
        <time>2020-01-12T08:27:34.000Z</time>
      </trkpt>
      <trkpt lat="49.18049" lon="6.68931">
        <ele>253.68</ele>
        <time>2020-01-12T08:27:44.000Z</time>
      </trkpt>
      <trkpt lat="49.18033" lon="6.68943">
        <ele>254.82</ele>
        <time>2020-01-12T08:27:54.000Z</time>
      </trkpt>
      <trkpt lat="49.18019" lon="6.68953">
        <ele>254.62</ele>
        <time>2020-01-12T08:28:04.000Z</time>
      </trkpt>
      <trkpt lat="49.18006" lon="6.68958">
        <ele>255.27</ele>
        <time>2020-01-12T08:28:14.000Z</time>
      </trkpt>
      <trkpt lat="49.17994" lon="6.68959">
        <ele>256.46</ele>
        <time>2020-01-12T08:28:24.000Z</time>
      </trkpt>
      <trkpt lat="49.1798" lon="6.68966">
        <ele>259.01</ele>
        <time>2020-01-12T08:28:34.000Z</time>
      </trkpt>
      <trkpt lat="49.17968" lon="6.68974">
        <ele>257.92</ele>
        <time>2020-01-12T08:28:44.000Z</time>
      </trkpt>
      <trkpt lat="49.17953" lon="6.68984">
        <ele>255.7</ele>
        <time>2020-01-12T08:28:54.000Z</time>
      </trkpt>
      <trkpt lat="49.17941" lon="6.6899">
        <ele>252.86</ele>
        <time>2020-01-12T08:29:04.000Z</time>
      </trkpt>
      <trkpt lat="49.17928" lon="6.68992">
        <ele>251.52</ele>
        <time>2020-01-12T08:29:14.000Z</time>
      </trkpt>
      <trkpt lat="49.17916" lon="6.68995">
        <ele>253.71</ele>
        <time>2020-01-12T08:29:24.000Z</time>
      </trkpt>
      <trkpt lat="49.17902" lon="6.68998">
        <ele>254.06</ele>
        <time>2020-01-12T08:29:34.000Z</time>
      </trkpt>
      <trkpt lat="49.17887" lon="6.69001">
        <ele>252.6</ele>
        <time>2020-01-12T08:29:44.000Z</time>
      </trkpt>
      <trkpt lat="49.17873" lon="6.69003">
        <ele>255.83</ele>
        <time>2020-01-12T08:29:54.000Z</time>
      </trkpt>
      <trkpt lat="49.17859" lon="6.6901">
        <ele>256.41</ele>
        <time>2020-01-12T08:30:04.000Z</time>
      </trkpt>
      <trkpt lat="49.17846" lon="6.69014">
        <ele>255.5</ele>
        <time>2020-01-12T08:30:14.000Z</time>
      </trkpt>
      <trkpt lat="49.17835" lon="6.69018">
        <ele>254.32</ele>
        <time>2020-01-12T08:30:24.000Z</time>
      </trkpt>
      <trkpt lat="49.17824" lon="6.69023">
        <ele>253.09</ele>
        <time>2020-01-12T08:30:34.000Z</time>
      </trkpt>
      <trkpt lat="49.1781" lon="6.69029">
        <ele>251.95</ele>
        <time>2020-01-12T08:30:44.000Z</time>
      </trkpt>
      <trkpt lat="49.17797" lon="6.69035">
        <ele>253.87</ele>
        <time>2020-01-12T08:30:54.000Z</time>
      </trkpt>
      <trkpt lat="49.17782" lon="6.69041">
        <ele>253.84</ele>
        <time>2020-01-12T08:31:04.000Z</time>
      </trkpt>
      <trkpt lat="49.17768" lon="6.69048">
        <ele>254.26</ele>
        <time>2020-01-12T08:31:14.000Z</time>
      </trkpt>
      <trkpt lat="49.17754" lon="6.69058">
        <ele>253.43</ele>
        <time>2020-01-12T08:31:24.000Z</time>
      </trkpt>
      <trkpt lat="49.17741" lon="6.69064">
        <ele>254.02</ele>
        <time>2020-01-12T08:31:34.000Z</time>
      </trkpt>
      <trkpt lat="49.17727" lon="6.69067">
        <ele>254.29</ele>
        <time>2020-01-12T08:31:44.000Z</time>
      </trkpt>
      <trkpt lat="49.17717" lon="6.69073">
        <ele>252.64</ele>
        <time>2020-01-12T08:31:54.000Z</time>
      </trkpt>
      <trkpt lat="49.17701" lon="6.6908">
        <ele>252.99</ele>
        <time>2020-01-12T08:32:04.000Z</time>
      </trkpt>
      <trkpt lat="49.17687" lon="6.69086">
        <ele>252.73</ele>
        <time>2020-01-12T08:32:14.000Z</time>
      </trkpt>
      <trkpt lat="49.17673" lon="6.69092">
        <ele>253.12</ele>
        <time>2020-01-12T08:32:24.000Z</time>
      </trkpt>
      <trkpt lat="49.17658" lon="6.69098">
        <ele>253.14</ele>
        <time>2020-01-12T08:32:34.000Z</time>
      </trkpt>
      <trkpt lat="49.17646" lon="6.69104">
        <ele>253.63</ele>
        <time>2020-01-12T08:32:44.000Z</time>
      </trkpt>
      <trkpt lat="49.17634" lon="6.6911">
        <ele>253.99</ele>
        <time>2020-01-12T08:32:54.000Z</time>
      </trkpt>
      <trkpt lat="49.17622" lon="6.69118">
        <ele>255.77</ele>
        <time>2020-01-12T08:33:04.000Z</time>
      </trkpt>
      <trkpt lat="49.17608" lon="6.69126">
        <ele>257.33</ele>
        <time>2020-01-12T08:33:14.000Z</time>
      </trkpt>
      <trkpt lat="49.17597" lon="6.69135">
        <ele>258.23</ele>
        <time>2020-01-12T08:33:24.000Z</time>
      </trkpt>
      <trkpt lat="49.17599" lon="6.69152">
        <ele>257.81</ele>
        <time>2020-01-12T08:33:34.000Z</time>
      </trkpt>
      <trkpt lat="49.17603" lon="6.69168">
        <ele>258.28</ele>
        <time>2020-01-12T08:33:44.000Z</time>
      </trkpt>
      <trkpt lat="49.17606" lon="6.69187">
        <ele>261.38</ele>
        <time>2020-01-12T08:33:54.000Z</time>
      </trkpt>
      <trkpt lat="49.1761" lon="6.69205">
        <ele>263.45</ele>
        <time>2020-01-12T08:34:04.000Z</time>
      </trkpt>
      <trkpt lat="49.17614" lon="6.69223">
        <ele>264.35</ele>
        <time>2020-01-12T08:34:14.000Z</time>
      </trkpt>
      <trkpt lat="49.1762" lon="6.69242">
        <ele>265.79</ele>
        <time>2020-01-12T08:34:24.000Z</time>
      </trkpt>
      <trkpt lat="49.17626" lon="6.6926">
        <ele>268.86</ele>
        <time>2020-01-12T08:34:34.000Z</time>
      </trkpt>
      <trkpt lat="49.17632" lon="6.69279">
        <ele>270.94</ele>
        <time>2020-01-12T08:34:44.000Z</time>
      </trkpt>
      <trkpt lat="49.17637" lon="6.69299">
        <ele>274.17</ele>
        <time>2020-01-12T08:34:54.000Z</time>
      </trkpt>
      <trkpt lat="49.17644" lon="6.69321">
        <ele>274.36</ele>
        <time>2020-01-12T08:35:04.000Z</time>
      </trkpt>
      <trkpt lat="49.17651" lon="6.69341">
        <ele>275.85</ele>
        <time>2020-01-12T08:35:14.000Z</time>
      </trkpt>
      <trkpt lat="49.17659" lon="6.69363">
        <ele>276.52</ele>
        <time>2020-01-12T08:35:24.000Z</time>
      </trkpt>
      <trkpt lat="49.17668" lon="6.69385">
        <ele>276.09</ele>
        <time>2020-01-12T08:35:34.000Z</time>
      </trkpt>
      <trkpt lat="49.17673" lon="6.69402">
        <ele>276.28</ele>
        <time>2020-01-12T08:35:44.000Z</time>
      </trkpt>
      <trkpt lat="49.17678" lon="6.6942">
        <ele>274.86</ele>
        <time>2020-01-12T08:35:54.000Z</time>
      </trkpt>
      <trkpt lat="49.17684" lon="6.69439">
        <ele>274.57</ele>
        <time>2020-01-12T08:36:04.000Z</time>
      </trkpt>
      <trkpt lat="49.17689" lon="6.6946">
        <ele>276.88</ele>
        <time>2020-01-12T08:36:14.000Z</time>
      </trkpt>
      <trkpt lat="49.17696" lon="6.69482">
        <ele>277.37</ele>
        <time>2020-01-12T08:36:24.000Z</time>
      </trkpt>
      <trkpt lat="49.17702" lon="6.69501">
        <ele>278.35</ele>
        <time>2020-01-12T08:36:34.000Z</time>
      </trkpt>
      <trkpt lat="49.1771" lon="6.69522">
        <ele>275.52</ele>
        <time>2020-01-12T08:36:44.000Z</time>
      </trkpt>
      <trkpt lat="49.17719" lon="6.69542">
        <ele>273.01</ele>
        <time>2020-01-12T08:36:54.000Z</time>
      </trkpt>
      <trkpt lat="49.17724" lon="6.69563">
        <ele>271.92</ele>
        <time>2020-01-12T08:37:04.000Z</time>
      </trkpt>
      <trkpt lat="49.17728" lon="6.69586">
        <ele>271.3</ele>
        <time>2020-01-12T08:37:14.000Z</time>
      </trkpt>
      <trkpt lat="49.17734" lon="6.69607">
        <ele>271.43</ele>
        <time>2020-01-12T08:37:24.000Z</time>
      </trkpt>
      <trkpt lat="49.1774" lon="6.69629">
        <ele>271.3</ele>
        <time>2020-01-12T08:37:34.000Z</time>
      </trkpt>
      <trkpt lat="49.17744" lon="6.6965">
        <ele>269.37</ele>
        <time>2020-01-12T08:37:44.000Z</time>
      </trkpt>
      <trkpt lat="49.17747" lon="6.69663">
        <ele>267.09</ele>
        <time>2020-01-12T08:37:54.000Z</time>
      </trkpt>
      <trkpt lat="49.17752" lon="6.6968">
        <ele>266.49</ele>
        <time>2020-01-12T08:38:04.000Z</time>
      </trkpt>
      <trkpt lat="49.17756" lon="6.69701">
        <ele>265.83</ele>
        <time>2020-01-12T08:38:14.000Z</time>
      </trkpt>
      <trkpt lat="49.17764" lon="6.69716">
        <ele>260.58</ele>
        <time>2020-01-12T08:38:24.000Z</time>
      </trkpt>
      <trkpt lat="49.17771" lon="6.69729">
        <ele>251.38</ele>
        <time>2020-01-12T08:38:34.000Z</time>
      </trkpt>
      <trkpt lat="49.17777" lon="6.69744">
        <ele>252.7</ele>
        <time>2020-01-12T08:38:44.000Z</time>
      </trkpt>
      <trkpt lat="49.17781" lon="6.69762">
        <ele>255.68</ele>
        <time>2020-01-12T08:38:54.000Z</time>
      </trkpt>
      <trkpt lat="49.17773" lon="6.69774">
        <ele>255.56</ele>
        <time>2020-01-12T08:39:04.000Z</time>
      </trkpt>
      <trkpt lat="49.17763" lon="6.69794">
        <ele>257.25</ele>
        <time>2020-01-12T08:39:14.000Z</time>
      </trkpt>
      <trkpt lat="49.17759" lon="6.69802">
        <ele>257.29</ele>
        <time>2020-01-12T08:39:24.000Z</time>
      </trkpt>
      <trkpt lat="49.17763" lon="6.698">
        <ele>257.29</ele>
        <time>2020-01-12T08:39:47.000Z</time>
      </trkpt>
      <trkpt lat="49.1776" lon="6.6981">
        <ele>257.31</ele>
        <time>2020-01-12T08:39:57.000Z</time>
      </trkpt>
      <trkpt lat="49.17754" lon="6.6983">
        <ele>259.85</ele>
        <time>2020-01-12T08:40:07.000Z</time>
      </trkpt>
      <trkpt lat="49.17744" lon="6.69851">
        <ele>262.46</ele>
        <time>2020-01-12T08:40:17.000Z</time>
      </trkpt>
      <trkpt lat="49.17735" lon="6.69873">
        <ele>264.8</ele>
        <time>2020-01-12T08:40:27.000Z</time>
      </trkpt>
      <trkpt lat="49.17725" lon="6.69895">
        <ele>265.78</ele>
        <time>2020-01-12T08:40:37.000Z</time>
      </trkpt>
      <trkpt lat="49.17716" lon="6.69916">
        <ele>266.3</ele>
        <time>2020-01-12T08:40:47.000Z</time>
      </trkpt>
      <trkpt lat="49.17707" lon="6.69935">
        <ele>268</ele>
        <time>2020-01-12T08:40:57.000Z</time>
      </trkpt>
      <trkpt lat="49.17698" lon="6.69951">
        <ele>270.4</ele>
        <time>2020-01-12T08:41:07.000Z</time>
      </trkpt>
      <trkpt lat="49.17688" lon="6.69972">
        <ele>269.14</ele>
        <time>2020-01-12T08:41:17.000Z</time>
      </trkpt>
      <trkpt lat="49.17678" lon="6.69992">
        <ele>267.17</ele>
        <time>2020-01-12T08:41:27.000Z</time>
      </trkpt>
      <trkpt lat="49.17669" lon="6.70011">
        <ele>267.36</ele>
        <time>2020-01-12T08:41:37.000Z</time>
      </trkpt>
      <trkpt lat="49.1766" lon="6.7003">
        <ele>267.12</ele>
        <time>2020-01-12T08:41:47.000Z</time>
      </trkpt>
      <trkpt lat="49.17651" lon="6.70052">
        <ele>265.59</ele>
        <time>2020-01-12T08:41:57.000Z</time>
      </trkpt>
      <trkpt lat="49.17643" lon="6.7007">
        <ele>262.8</ele>
        <time>2020-01-12T08:42:07.000Z</time>
      </trkpt>
      <trkpt lat="49.17634" lon="6.7009">
        <ele>262.19</ele>
        <time>2020-01-12T08:42:17.000Z</time>
      </trkpt>
      <trkpt lat="49.17624" lon="6.7011">
        <ele>260.45</ele>
        <time>2020-01-12T08:42:27.000Z</time>
      </trkpt>
      <trkpt lat="49.17615" lon="6.70129">
        <ele>258.34</ele>
        <time>2020-01-12T08:42:37.000Z</time>
      </trkpt>
      <trkpt lat="49.17606" lon="6.70147">
        <ele>259.25</ele>
        <time>2020-01-12T08:42:47.000Z</time>
      </trkpt>
      <trkpt lat="49.17598" lon="6.70167">
        <ele>260.15</ele>
        <time>2020-01-12T08:42:57.000Z</time>
      </trkpt>
      <trkpt lat="49.1759" lon="6.70187">
        <ele>259.19</ele>
        <time>2020-01-12T08:43:07.000Z</time>
      </trkpt>
      <trkpt lat="49.17581" lon="6.70207">
        <ele>255.53</ele>
        <time>2020-01-12T08:43:17.000Z</time>
      </trkpt>
      <trkpt lat="49.17573" lon="6.70226">
        <ele>255.41</ele>
        <time>2020-01-12T08:43:27.000Z</time>
      </trkpt>
      <trkpt lat="49.17565" lon="6.70245">
        <ele>252.03</ele>
        <time>2020-01-12T08:43:37.000Z</time>
      </trkpt>
      <trkpt lat="49.17557" lon="6.70256">
        <ele>250.59</ele>
        <time>2020-01-12T08:43:47.000Z</time>
      </trkpt>
      <trkpt lat="49.17547" lon="6.70273">
        <ele>250.7</ele>
        <time>2020-01-12T08:43:57.000Z</time>
      </trkpt>
      <trkpt lat="49.17536" lon="6.70298">
        <ele>252.73</ele>
        <time>2020-01-12T08:44:07.000Z</time>
      </trkpt>
      <trkpt lat="49.17532" lon="6.7031">
        <ele>254.37</ele>
        <time>2020-01-12T08:44:17.000Z</time>
      </trkpt>
      <trkpt lat="49.17525" lon="6.70329">
        <ele>256.45</ele>
        <time>2020-01-12T08:44:27.000Z</time>
      </trkpt>
      <trkpt lat="49.17518" lon="6.70352">
        <ele>256.45</ele>
        <time>2020-01-12T08:44:37.000Z</time>
      </trkpt>
      <trkpt lat="49.17511" lon="6.70372">
        <ele>256.94</ele>
        <time>2020-01-12T08:44:47.000Z</time>
      </trkpt>
      <trkpt lat="49.17506" lon="6.70395">
        <ele>257.15</ele>
        <time>2020-01-12T08:44:57.000Z</time>
      </trkpt>
      <trkpt lat="49.17504" lon="6.7042">
        <ele>257.37</ele>
        <time>2020-01-12T08:45:07.000Z</time>
      </trkpt>
      <trkpt lat="49.17501" lon="6.70444">
        <ele>258</ele>
        <time>2020-01-12T08:45:17.000Z</time>
      </trkpt>
      <trkpt lat="49.17499" lon="6.70468">
        <ele>259.17</ele>
        <time>2020-01-12T08:45:27.000Z</time>
      </trkpt>
      <trkpt lat="49.17495" lon="6.70489">
        <ele>259.91</ele>
        <time>2020-01-12T08:45:37.000Z</time>
      </trkpt>
      <trkpt lat="49.17489" lon="6.70511">
        <ele>261.88</ele>
        <time>2020-01-12T08:45:47.000Z</time>
      </trkpt>
      <trkpt lat="49.17482" lon="6.70531">
        <ele>260.81</ele>
        <time>2020-01-12T08:45:57.000Z</time>
      </trkpt>
      <trkpt lat="49.17472" lon="6.7055">
        <ele>261.24</ele>
        <time>2020-01-12T08:46:07.000Z</time>
      </trkpt>
      <trkpt lat="49.17462" lon="6.70573">
        <ele>262.67</ele>
        <time>2020-01-12T08:46:17.000Z</time>
      </trkpt>
      <trkpt lat="49.17455" lon="6.70594">
        <ele>262.17</ele>
        <time>2020-01-12T08:46:27.000Z</time>
      </trkpt>
      <trkpt lat="49.17447" lon="6.70618">
        <ele>260.16</ele>
        <time>2020-01-12T08:46:37.000Z</time>
      </trkpt>
      <trkpt lat="49.1744" lon="6.70637">
        <ele>260.43</ele>
        <time>2020-01-12T08:46:47.000Z</time>
      </trkpt>
      <trkpt lat="49.17431" lon="6.70655">
        <ele>261.28</ele>
        <time>2020-01-12T08:46:57.000Z</time>
      </trkpt>
      <trkpt lat="49.1742" lon="6.70673">
        <ele>261.45</ele>
        <time>2020-01-12T08:47:07.000Z</time>
      </trkpt>
      <trkpt lat="49.17407" lon="6.70694">
        <ele>260.45</ele>
        <time>2020-01-12T08:47:17.000Z</time>
      </trkpt>
      <trkpt lat="49.17394" lon="6.70713">
        <ele>259.89</ele>
        <time>2020-01-12T08:47:27.000Z</time>
      </trkpt>
      <trkpt lat="49.17385" lon="6.7073">
        <ele>259.42</ele>
        <time>2020-01-12T08:47:37.000Z</time>
      </trkpt>
      <trkpt lat="49.17376" lon="6.70743">
        <ele>258.23</ele>
        <time>2020-01-12T08:47:47.000Z</time>
      </trkpt>
      <trkpt lat="49.17367" lon="6.70757">
        <ele>258.45</ele>
        <time>2020-01-12T08:47:57.000Z</time>
      </trkpt>
      <trkpt lat="49.17359" lon="6.70772">
        <ele>259.76</ele>
        <time>2020-01-12T08:48:07.000Z</time>
      </trkpt>
      <trkpt lat="49.17351" lon="6.70792">
        <ele>260.42</ele>
        <time>2020-01-12T08:48:17.000Z</time>
      </trkpt>
      <trkpt lat="49.17344" lon="6.7081">
        <ele>260.29</ele>
        <time>2020-01-12T08:48:27.000Z</time>
      </trkpt>
      <trkpt lat="49.17336" lon="6.70827">
        <ele>261.93</ele>
        <time>2020-01-12T08:48:37.000Z</time>
      </trkpt>
      <trkpt lat="49.17328" lon="6.70841">
        <ele>260.19</ele>
        <time>2020-01-12T08:48:47.000Z</time>
      </trkpt>
      <trkpt lat="49.17315" lon="6.70856">
        <ele>260.06</ele>
        <time>2020-01-12T08:48:57.000Z</time>
      </trkpt>
      <trkpt lat="49.173" lon="6.70874">
        <ele>255.81</ele>
        <time>2020-01-12T08:49:07.000Z</time>
      </trkpt>
      <trkpt lat="49.17288" lon="6.70895">
        <ele>250.8</ele>
        <time>2020-01-12T08:49:17.000Z</time>
      </trkpt>
      <trkpt lat="49.17282" lon="6.70914">
        <ele>247.62</ele>
        <time>2020-01-12T08:49:27.000Z</time>
      </trkpt>
      <trkpt lat="49.17278" lon="6.70934">
        <ele>244.72</ele>
        <time>2020-01-12T08:49:37.000Z</time>
      </trkpt>
      <trkpt lat="49.1728" lon="6.70956">
        <ele>246.51</ele>
        <time>2020-01-12T08:49:47.000Z</time>
      </trkpt>
      <trkpt lat="49.17289" lon="6.70967">
        <ele>247.72</ele>
        <time>2020-01-12T08:49:57.000Z</time>
      </trkpt>
      <trkpt lat="49.17284" lon="6.70981">
        <ele>248.68</ele>
        <time>2020-01-12T08:50:07.000Z</time>
      </trkpt>
      <trkpt lat="49.17282" lon="6.71001">
        <ele>250.41</ele>
        <time>2020-01-12T08:50:17.000Z</time>
      </trkpt>
      <trkpt lat="49.17283" lon="6.71027">
        <ele>251.61</ele>
        <time>2020-01-12T08:50:27.000Z</time>
      </trkpt>
      <trkpt lat="49.17287" lon="6.71051">
        <ele>254.98</ele>
        <time>2020-01-12T08:50:37.000Z</time>
      </trkpt>
      <trkpt lat="49.17288" lon="6.71071">
        <ele>257.72</ele>
        <time>2020-01-12T08:50:47.000Z</time>
      </trkpt>
      <trkpt lat="49.17294" lon="6.71088">
        <ele>260.21</ele>
        <time>2020-01-12T08:50:57.000Z</time>
      </trkpt>
      <trkpt lat="49.17298" lon="6.71099">
        <ele>262.46</ele>
        <time>2020-01-12T08:51:07.000Z</time>
      </trkpt>
      <trkpt lat="49.17306" lon="6.71114">
        <ele>263.7</ele>
        <time>2020-01-12T08:51:17.000Z</time>
      </trkpt>
      <trkpt lat="49.17316" lon="6.71127">
        <ele>264.21</ele>
        <time>2020-01-12T08:51:27.000Z</time>
      </trkpt>
      <trkpt lat="49.17327" lon="6.71143">
        <ele>264.96</ele>
        <time>2020-01-12T08:51:37.000Z</time>
      </trkpt>
      <trkpt lat="49.17338" lon="6.71158">
        <ele>266.72</ele>
        <time>2020-01-12T08:51:47.000Z</time>
      </trkpt>
      <trkpt lat="49.17349" lon="6.71172">
        <ele>266.83</ele>
        <time>2020-01-12T08:51:57.000Z</time>
      </trkpt>
      <trkpt lat="49.17361" lon="6.71187">
        <ele>267.16</ele>
        <time>2020-01-12T08:52:07.000Z</time>
      </trkpt>
      <trkpt lat="49.17372" lon="6.71201">
        <ele>267.29</ele>
        <time>2020-01-12T08:52:17.000Z</time>
      </trkpt>
      <trkpt lat="49.17382" lon="6.71216">
        <ele>265.36</ele>
        <time>2020-01-12T08:52:27.000Z</time>
      </trkpt>
      <trkpt lat="49.17394" lon="6.71237">
        <ele>262.06</ele>
        <time>2020-01-12T08:52:37.000Z</time>
      </trkpt>
      <trkpt lat="49.17405" lon="6.71254">
        <ele>259.33</ele>
        <time>2020-01-12T08:52:47.000Z</time>
      </trkpt>
      <trkpt lat="49.17413" lon="6.71268">
        <ele>260.37</ele>
        <time>2020-01-12T08:52:57.000Z</time>
      </trkpt>
      <trkpt lat="49.17424" lon="6.71282">
        <ele>262.14</ele>
        <time>2020-01-12T08:53:07.000Z</time>
      </trkpt>
      <trkpt lat="49.17436" lon="6.71296">
        <ele>262.08</ele>
        <time>2020-01-12T08:53:17.000Z</time>
      </trkpt>
      <trkpt lat="49.17449" lon="6.71312">
        <ele>261.66</ele>
        <time>2020-01-12T08:53:27.000Z</time>
      </trkpt>
      <trkpt lat="49.17464" lon="6.71325">
        <ele>262.15</ele>
        <time>2020-01-12T08:53:37.000Z</time>
      </trkpt>
      <trkpt lat="49.17473" lon="6.71337">
        <ele>260.24</ele>
        <time>2020-01-12T08:53:47.000Z</time>
      </trkpt>
      <trkpt lat="49.17484" lon="6.71352">
        <ele>257.61</ele>
        <time>2020-01-12T08:53:57.000Z</time>
      </trkpt>
      <trkpt lat="49.175" lon="6.71369">
        <ele>256.3</ele>
        <time>2020-01-12T08:54:07.000Z</time>
      </trkpt>
      <trkpt lat="49.17509" lon="6.71386">
        <ele>256.24</ele>
        <time>2020-01-12T08:54:17.000Z</time>
      </trkpt>
      <trkpt lat="49.17521" lon="6.71403">
        <ele>257.47</ele>
        <time>2020-01-12T08:54:27.000Z</time>
      </trkpt>
      <trkpt lat="49.17529" lon="6.71418">
        <ele>258.54</ele>
        <time>2020-01-12T08:54:37.000Z</time>
      </trkpt>
      <trkpt lat="49.17538" lon="6.71435">
        <ele>255.88</ele>
        <time>2020-01-12T08:54:47.000Z</time>
      </trkpt>
      <trkpt lat="49.17547" lon="6.7145">
        <ele>255.14</ele>
        <time>2020-01-12T08:54:57.000Z</time>
      </trkpt>
      <trkpt lat="49.17554" lon="6.71464">
        <ele>255.73</ele>
        <time>2020-01-12T08:55:07.000Z</time>
      </trkpt>
      <trkpt lat="49.1756" lon="6.71474">
        <ele>256.51</ele>
        <time>2020-01-12T08:55:17.000Z</time>
      </trkpt>
      <trkpt lat="49.17566" lon="6.71493">
        <ele>255.82</ele>
        <time>2020-01-12T08:55:27.000Z</time>
      </trkpt>
      <trkpt lat="49.17575" lon="6.71516">
        <ele>256.57</ele>
        <time>2020-01-12T08:55:37.000Z</time>
      </trkpt>
      <trkpt lat="49.17574" lon="6.71536">
        <ele>254.95</ele>
        <time>2020-01-12T08:55:47.000Z</time>
      </trkpt>
      <trkpt lat="49.17575" lon="6.71547">
        <ele>254.16</ele>
        <time>2020-01-12T08:55:57.000Z</time>
      </trkpt>
      <trkpt lat="49.17574" lon="6.71564">
        <ele>254.02</ele>
        <time>2020-01-12T08:56:07.000Z</time>
      </trkpt>
      <trkpt lat="49.17575" lon="6.7158">
        <ele>253.03</ele>
        <time>2020-01-12T08:56:17.000Z</time>
      </trkpt>
      <trkpt lat="49.1757" lon="6.716">
        <ele>249.44</ele>
        <time>2020-01-12T08:56:27.000Z</time>
      </trkpt>
      <trkpt lat="49.17558" lon="6.71627">
        <ele>247.07</ele>
        <time>2020-01-12T08:56:37.000Z</time>
      </trkpt>
      <trkpt lat="49.17552" lon="6.71646">
        <ele>247.33</ele>
        <time>2020-01-12T08:56:47.000Z</time>
      </trkpt>
      <trkpt lat="49.17547" lon="6.71666">
        <ele>245.3</ele>
        <time>2020-01-12T08:56:57.000Z</time>
      </trkpt>
      <trkpt lat="49.17548" lon="6.71689">
        <ele>245.62</ele>
        <time>2020-01-12T08:57:07.000Z</time>
      </trkpt>
      <trkpt lat="49.1755" lon="6.71711">
        <ele>246.31</ele>
        <time>2020-01-12T08:57:17.000Z</time>
      </trkpt>
      <trkpt lat="49.17551" lon="6.71734">
        <ele>246.02</ele>
        <time>2020-01-12T08:57:27.000Z</time>
      </trkpt>
      <trkpt lat="49.17554" lon="6.71756">
        <ele>247.72</ele>
        <time>2020-01-12T08:57:37.000Z</time>
      </trkpt>
      <trkpt lat="49.17564" lon="6.71758">
        <ele>244.88</ele>
        <time>2020-01-12T08:57:47.000Z</time>
      </trkpt>
      <trkpt lat="49.17575" lon="6.71752">
        <ele>244.93</ele>
        <time>2020-01-12T08:57:57.000Z</time>
      </trkpt>
      <trkpt lat="49.17589" lon="6.7175">
        <ele>246.25</ele>
        <time>2020-01-12T08:58:07.000Z</time>
      </trkpt>
      <trkpt lat="49.17602" lon="6.71747">
        <ele>247.3</ele>
        <time>2020-01-12T08:58:17.000Z</time>
      </trkpt>
      <trkpt lat="49.17615" lon="6.71744">
        <ele>246.36</ele>
        <time>2020-01-12T08:58:27.000Z</time>
      </trkpt>
      <trkpt lat="49.17629" lon="6.71742">
        <ele>246.26</ele>
        <time>2020-01-12T08:58:37.000Z</time>
      </trkpt>
      <trkpt lat="49.17643" lon="6.7174">
        <ele>245.5</ele>
        <time>2020-01-12T08:58:47.000Z</time>
      </trkpt>
      <trkpt lat="49.17657" lon="6.71738">
        <ele>244.16</ele>
        <time>2020-01-12T08:58:57.000Z</time>
      </trkpt>
      <trkpt lat="49.17672" lon="6.7173">
        <ele>244.87</ele>
        <time>2020-01-12T08:59:07.000Z</time>
      </trkpt>
      <trkpt lat="49.17681" lon="6.7173">
        <ele>244.59</ele>
        <time>2020-01-12T08:59:17.000Z</time>
      </trkpt>
      <trkpt lat="49.17686" lon="6.7175">
        <ele>244.96</ele>
        <time>2020-01-12T08:59:27.000Z</time>
      </trkpt>
      <trkpt lat="49.17691" lon="6.71772">
        <ele>244.55</ele>
        <time>2020-01-12T08:59:37.000Z</time>
      </trkpt>
      <trkpt lat="49.17689" lon="6.7179">
        <ele>243.26</ele>
        <time>2020-01-12T08:59:47.000Z</time>
      </trkpt>
      <trkpt lat="49.17681" lon="6.71802">
        <ele>244.84</ele>
        <time>2020-01-12T08:59:57.000Z</time>
      </trkpt>
      <trkpt lat="49.17672" lon="6.71812">
        <ele>246.02</ele>
        <time>2020-01-12T09:00:07.000Z</time>
      </trkpt>
      <trkpt lat="49.17659" lon="6.71827">
        <ele>249.31</ele>
        <time>2020-01-12T09:00:17.000Z</time>
      </trkpt>
      <trkpt lat="49.17648" lon="6.71841">
        <ele>251.1</ele>
        <time>2020-01-12T09:00:27.000Z</time>
      </trkpt>
      <trkpt lat="49.17647" lon="6.71856">
        <ele>252.05</ele>
        <time>2020-01-12T09:00:37.000Z</time>
      </trkpt>
      <trkpt lat="49.17647" lon="6.71871">
        <ele>253.92</ele>
        <time>2020-01-12T09:00:47.000Z</time>
      </trkpt>
      <trkpt lat="49.1765" lon="6.71891">
        <ele>255.46</ele>
        <time>2020-01-12T09:00:57.000Z</time>
      </trkpt>
      <trkpt lat="49.17659" lon="6.71894">
        <ele>256.05</ele>
        <time>2020-01-12T09:01:07.000Z</time>
      </trkpt>
      <trkpt lat="49.17665" lon="6.71901">
        <ele>255.21</ele>
        <time>2020-01-12T09:01:17.000Z</time>
      </trkpt>
      <trkpt lat="49.1767" lon="6.71912">
        <ele>257.36</ele>
        <time>2020-01-12T09:01:27.000Z</time>
      </trkpt>
      <trkpt lat="49.17679" lon="6.71928">
        <ele>261.03</ele>
        <time>2020-01-12T09:01:37.000Z</time>
      </trkpt>
      <trkpt lat="49.17683" lon="6.7195">
        <ele>263.01</ele>
        <time>2020-01-12T09:01:47.000Z</time>
      </trkpt>
      <trkpt lat="49.17685" lon="6.71974">
        <ele>264.61</ele>
        <time>2020-01-12T09:01:57.000Z</time>
      </trkpt>
      <trkpt lat="49.17676" lon="6.71993">
        <ele>263.86</ele>
        <time>2020-01-12T09:02:07.000Z</time>
      </trkpt>
      <trkpt lat="49.17657" lon="6.72009">
        <ele>264.84</ele>
        <time>2020-01-12T09:02:17.000Z</time>
      </trkpt>
      <trkpt lat="49.17639" lon="6.72021">
        <ele>263.57</ele>
        <time>2020-01-12T09:02:27.000Z</time>
      </trkpt>
      <trkpt lat="49.17623" lon="6.72029">
        <ele>262.93</ele>
        <time>2020-01-12T09:02:37.000Z</time>
      </trkpt>
      <trkpt lat="49.17612" lon="6.72035">
        <ele>261.2</ele>
        <time>2020-01-12T09:02:47.000Z</time>
      </trkpt>
      <trkpt lat="49.176" lon="6.72043">
        <ele>261.07</ele>
        <time>2020-01-12T09:02:57.000Z</time>
      </trkpt>
      <trkpt lat="49.17588" lon="6.72053">
        <ele>260.99</ele>
        <time>2020-01-12T09:03:07.000Z</time>
      </trkpt>
      <trkpt lat="49.17578" lon="6.72065">
        <ele>259.13</ele>
        <time>2020-01-12T09:03:17.000Z</time>
      </trkpt>
      <trkpt lat="49.17573" lon="6.72079">
        <ele>257.79</ele>
        <time>2020-01-12T09:03:27.000Z</time>
      </trkpt>
      <trkpt lat="49.1757" lon="6.72096">
        <ele>257.26</ele>
        <time>2020-01-12T09:03:37.000Z</time>
      </trkpt>
      <trkpt lat="49.17567" lon="6.72113">
        <ele>257.5</ele>
        <time>2020-01-12T09:03:47.000Z</time>
      </trkpt>
      <trkpt lat="49.17567" lon="6.72129">
        <ele>257.65</ele>
        <time>2020-01-12T09:03:57.000Z</time>
      </trkpt>
      <trkpt lat="49.17572" lon="6.72145">
        <ele>256.78</ele>
        <time>2020-01-12T09:04:07.000Z</time>
      </trkpt>
      <trkpt lat="49.17579" lon="6.72162">
        <ele>256.31</ele>
        <time>2020-01-12T09:04:17.000Z</time>
      </trkpt>
      <trkpt lat="49.17585" lon="6.72181">
        <ele>254.21</ele>
        <time>2020-01-12T09:04:27.000Z</time>
      </trkpt>
      <trkpt lat="49.17591" lon="6.72201">
        <ele>252.82</ele>
        <time>2020-01-12T09:04:37.000Z</time>
      </trkpt>
      <trkpt lat="49.17598" lon="6.7222">
        <ele>252.3</ele>
        <time>2020-01-12T09:04:47.000Z</time>
      </trkpt>
      <trkpt lat="49.17606" lon="6.72241">
        <ele>250.85</ele>
        <time>2020-01-12T09:04:57.000Z</time>
      </trkpt>
      <trkpt lat="49.17612" lon="6.7226">
        <ele>251.21</ele>
        <time>2020-01-12T09:05:07.000Z</time>
      </trkpt>
      <trkpt lat="49.17618" lon="6.72279">
        <ele>248.3</ele>
        <time>2020-01-12T09:05:17.000Z</time>
      </trkpt>
      <trkpt lat="49.17623" lon="6.723">
        <ele>247.69</ele>
        <time>2020-01-12T09:05:27.000Z</time>
      </trkpt>
      <trkpt lat="49.1763" lon="6.72321">
        <ele>247.52</ele>
        <time>2020-01-12T09:05:37.000Z</time>
      </trkpt>
      <trkpt lat="49.17638" lon="6.72343">
        <ele>244.22</ele>
        <time>2020-01-12T09:05:47.000Z</time>
      </trkpt>
      <trkpt lat="49.17644" lon="6.72361">
        <ele>243.55</ele>
        <time>2020-01-12T09:05:57.000Z</time>
      </trkpt>
      <trkpt lat="49.17652" lon="6.72383">
        <ele>245.81</ele>
        <time>2020-01-12T09:06:07.000Z</time>
      </trkpt>
      <trkpt lat="49.17658" lon="6.72405">
        <ele>247.04</ele>
        <time>2020-01-12T09:06:17.000Z</time>
      </trkpt>
      <trkpt lat="49.17664" lon="6.72426">
        <ele>247.5</ele>
        <time>2020-01-12T09:06:27.000Z</time>
      </trkpt>
      <trkpt lat="49.1767" lon="6.72444">
        <ele>244.73</ele>
        <time>2020-01-12T09:06:37.000Z</time>
      </trkpt>
      <trkpt lat="49.17678" lon="6.72464">
        <ele>238.92</ele>
        <time>2020-01-12T09:06:47.000Z</time>
      </trkpt>
      <trkpt lat="49.17688" lon="6.72481">
        <ele>234.99</ele>
        <time>2020-01-12T09:06:57.000Z</time>
      </trkpt>
      <trkpt lat="49.17695" lon="6.72501">
        <ele>233.23</ele>
        <time>2020-01-12T09:07:07.000Z</time>
      </trkpt>
      <trkpt lat="49.17693" lon="6.72527">
        <ele>231.23</ele>
        <time>2020-01-12T09:07:17.000Z</time>
      </trkpt>
      <trkpt lat="49.17688" lon="6.72549">
        <ele>231.36</ele>
        <time>2020-01-12T09:07:27.000Z</time>
      </trkpt>
      <trkpt lat="49.17685" lon="6.72558">
        <ele>232.03</ele>
        <time>2020-01-12T09:07:37.000Z</time>
      </trkpt>
      <trkpt lat="49.17681" lon="6.72574">
        <ele>233.99</ele>
        <time>2020-01-12T09:07:47.000Z</time>
      </trkpt>
      <trkpt lat="49.17674" lon="6.726">
        <ele>233.45</ele>
        <time>2020-01-12T09:07:57.000Z</time>
      </trkpt>
      <trkpt lat="49.17668" lon="6.72625">
        <ele>234.32</ele>
        <time>2020-01-12T09:08:07.000Z</time>
      </trkpt>
      <trkpt lat="49.17661" lon="6.72645">
        <ele>234.63</ele>
        <time>2020-01-12T09:08:17.000Z</time>
      </trkpt>
      <trkpt lat="49.17658" lon="6.72666">
        <ele>233.99</ele>
        <time>2020-01-12T09:08:27.000Z</time>
      </trkpt>
      <trkpt lat="49.17654" lon="6.72686">
        <ele>233.37</ele>
        <time>2020-01-12T09:08:37.000Z</time>
      </trkpt>
      <trkpt lat="49.17652" lon="6.72707">
        <ele>233.46</ele>
        <time>2020-01-12T09:08:47.000Z</time>
      </trkpt>
      <trkpt lat="49.17651" lon="6.72729">
        <ele>232.87</ele>
        <time>2020-01-12T09:08:57.000Z</time>
      </trkpt>
      <trkpt lat="49.1765" lon="6.72752">
        <ele>231.02</ele>
        <time>2020-01-12T09:09:07.000Z</time>
      </trkpt>
      <trkpt lat="49.17649" lon="6.72773">
        <ele>230.49</ele>
        <time>2020-01-12T09:09:17.000Z</time>
      </trkpt>
      <trkpt lat="49.17645" lon="6.72798">
        <ele>229.39</ele>
        <time>2020-01-12T09:09:27.000Z</time>
      </trkpt>
      <trkpt lat="49.17642" lon="6.72819">
        <ele>226.89</ele>
        <time>2020-01-12T09:09:37.000Z</time>
      </trkpt>
      <trkpt lat="49.1764" lon="6.7284">
        <ele>225.58</ele>
        <time>2020-01-12T09:09:47.000Z</time>
      </trkpt>
      <trkpt lat="49.17637" lon="6.72861">
        <ele>227.41</ele>
        <time>2020-01-12T09:09:57.000Z</time>
      </trkpt>
      <trkpt lat="49.17636" lon="6.72881">
        <ele>227.19</ele>
        <time>2020-01-12T09:10:07.000Z</time>
      </trkpt>
      <trkpt lat="49.17636" lon="6.72903">
        <ele>227.48</ele>
        <time>2020-01-12T09:10:17.000Z</time>
      </trkpt>
      <trkpt lat="49.17638" lon="6.72924">
        <ele>225.59</ele>
        <time>2020-01-12T09:10:27.000Z</time>
      </trkpt>
      <trkpt lat="49.17641" lon="6.72946">
        <ele>225.91</ele>
        <time>2020-01-12T09:10:37.000Z</time>
      </trkpt>
      <trkpt lat="49.17644" lon="6.72967">
        <ele>226.11</ele>
        <time>2020-01-12T09:10:47.000Z</time>
      </trkpt>
      <trkpt lat="49.17647" lon="6.72989">
        <ele>225.84</ele>
        <time>2020-01-12T09:10:57.000Z</time>
      </trkpt>
      <trkpt lat="49.1765" lon="6.7301">
        <ele>225.89</ele>
        <time>2020-01-12T09:11:07.000Z</time>
      </trkpt>
      <trkpt lat="49.17654" lon="6.73031">
        <ele>225.13</ele>
        <time>2020-01-12T09:11:17.000Z</time>
      </trkpt>
      <trkpt lat="49.17658" lon="6.73053">
        <ele>222.93</ele>
        <time>2020-01-12T09:11:27.000Z</time>
      </trkpt>
      <trkpt lat="49.17662" lon="6.73072">
        <ele>222.71</ele>
        <time>2020-01-12T09:11:37.000Z</time>
      </trkpt>
      <trkpt lat="49.17661" lon="6.73095">
        <ele>223.12</ele>
        <time>2020-01-12T09:11:47.000Z</time>
      </trkpt>
      <trkpt lat="49.17659" lon="6.73119">
        <ele>225.61</ele>
        <time>2020-01-12T09:11:57.000Z</time>
      </trkpt>
      <trkpt lat="49.17659" lon="6.7314">
        <ele>225.4</ele>
        <time>2020-01-12T09:12:07.000Z</time>
      </trkpt>
      <trkpt lat="49.17661" lon="6.73163">
        <ele>226.03</ele>
        <time>2020-01-12T09:12:17.000Z</time>
      </trkpt>
      <trkpt lat="49.17665" lon="6.73184">
        <ele>226.18</ele>
        <time>2020-01-12T09:12:27.000Z</time>
      </trkpt>
      <trkpt lat="49.17666" lon="6.73207">
        <ele>225.96</ele>
        <time>2020-01-12T09:12:37.000Z</time>
      </trkpt>
      <trkpt lat="49.1767" lon="6.73231">
        <ele>227.06</ele>
        <time>2020-01-12T09:12:47.000Z</time>
      </trkpt>
      <trkpt lat="49.17664" lon="6.7325">
        <ele>227.21</ele>
        <time>2020-01-12T09:12:57.000Z</time>
      </trkpt>
      <trkpt lat="49.17644" lon="6.7325">
        <ele>227.47</ele>
        <time>2020-01-12T09:13:07.000Z</time>
      </trkpt>
      <trkpt lat="49.17626" lon="6.73245">
        <ele>227.52</ele>
        <time>2020-01-12T09:13:17.000Z</time>
      </trkpt>
      <trkpt lat="49.17613" lon="6.73239">
        <ele>227.71</ele>
        <time>2020-01-12T09:13:27.000Z</time>
      </trkpt>
      <trkpt lat="49.17598" lon="6.73232">
        <ele>226.22</ele>
        <time>2020-01-12T09:13:37.000Z</time>
      </trkpt>
      <trkpt lat="49.17582" lon="6.73225">
        <ele>225.64</ele>
        <time>2020-01-12T09:13:47.000Z</time>
      </trkpt>
      <trkpt lat="49.17568" lon="6.73222">
        <ele>225.28</ele>
        <time>2020-01-12T09:13:57.000Z</time>
      </trkpt>
      <trkpt lat="49.17553" lon="6.73224">
        <ele>226.5</ele>
        <time>2020-01-12T09:14:07.000Z</time>
      </trkpt>
      <trkpt lat="49.17539" lon="6.73233">
        <ele>224.55</ele>
        <time>2020-01-12T09:14:17.000Z</time>
      </trkpt>
      <trkpt lat="49.17528" lon="6.73243">
        <ele>224.63</ele>
        <time>2020-01-12T09:14:27.000Z</time>
      </trkpt>
      <trkpt lat="49.17518" lon="6.73253">
        <ele>226.11</ele>
        <time>2020-01-12T09:14:37.000Z</time>
      </trkpt>
      <trkpt lat="49.17508" lon="6.73267">
        <ele>225.75</ele>
        <time>2020-01-12T09:14:47.000Z</time>
      </trkpt>
      <trkpt lat="49.17499" lon="6.73286">
        <ele>228.79</ele>
        <time>2020-01-12T09:14:57.000Z</time>
      </trkpt>
      <trkpt lat="49.17488" lon="6.73302">
        <ele>232.94</ele>
        <time>2020-01-12T09:15:07.000Z</time>
      </trkpt>
      <trkpt lat="49.17477" lon="6.73314">
        <ele>234.73</ele>
        <time>2020-01-12T09:15:17.000Z</time>
      </trkpt>
      <trkpt lat="49.17461" lon="6.73327">
        <ele>236.22</ele>
        <time>2020-01-12T09:15:27.000Z</time>
      </trkpt>
      <trkpt lat="49.17447" lon="6.73338">
        <ele>233.99</ele>
        <time>2020-01-12T09:15:37.000Z</time>
      </trkpt>
      <trkpt lat="49.17436" lon="6.73345">
        <ele>234.93</ele>
        <time>2020-01-12T09:15:47.000Z</time>
      </trkpt>
      <trkpt lat="49.17424" lon="6.73354">
        <ele>235.46</ele>
        <time>2020-01-12T09:15:57.000Z</time>
      </trkpt>
      <trkpt lat="49.17412" lon="6.73361">
        <ele>237.95</ele>
        <time>2020-01-12T09:16:07.000Z</time>
      </trkpt>
      <trkpt lat="49.17396" lon="6.73375">
        <ele>240.15</ele>
        <time>2020-01-12T09:16:17.000Z</time>
      </trkpt>
      <trkpt lat="49.17383" lon="6.73386">
        <ele>244.3</ele>
        <time>2020-01-12T09:16:27.000Z</time>
      </trkpt>
      <trkpt lat="49.17371" lon="6.73396">
        <ele>247.89</ele>
        <time>2020-01-12T09:16:37.000Z</time>
      </trkpt>
      <trkpt lat="49.1736" lon="6.73405">
        <ele>250.84</ele>
        <time>2020-01-12T09:16:47.000Z</time>
      </trkpt>
      <trkpt lat="49.17353" lon="6.73413">
        <ele>253.02</ele>
        <time>2020-01-12T09:16:57.000Z</time>
      </trkpt>
      <trkpt lat="49.17345" lon="6.73423">
        <ele>253.05</ele>
        <time>2020-01-12T09:17:07.000Z</time>
      </trkpt>
      <trkpt lat="49.17335" lon="6.73438">
        <ele>253.31</ele>
        <time>2020-01-12T09:17:17.000Z</time>
      </trkpt>
      <trkpt lat="49.17326" lon="6.73455">
        <ele>252.32</ele>
        <time>2020-01-12T09:17:27.000Z</time>
      </trkpt>
      <trkpt lat="49.17315" lon="6.73473">
        <ele>249.81</ele>
        <time>2020-01-12T09:17:37.000Z</time>
      </trkpt>
      <trkpt lat="49.17305" lon="6.73487">
        <ele>254.16</ele>
        <time>2020-01-12T09:17:47.000Z</time>
      </trkpt>
      <trkpt lat="49.17298" lon="6.73498">
        <ele>257.01</ele>
        <time>2020-01-12T09:17:57.000Z</time>
      </trkpt>
      <trkpt lat="49.17297" lon="6.73498">
        <ele>257.12</ele>
        <time>2020-01-12T09:18:07.000Z</time>
      </trkpt>
      <trkpt lat="49.17298" lon="6.73499">
        <ele>257.12</ele>
        <time>2020-01-12T09:19:08.000Z</time>
      </trkpt>
      <trkpt lat="49.17291" lon="6.73513">
        <ele>255.59</ele>
        <time>2020-01-12T09:19:18.000Z</time>
      </trkpt>
      <trkpt lat="49.17283" lon="6.7353">
        <ele>257.11</ele>
        <time>2020-01-12T09:19:28.000Z</time>
      </trkpt>
      <trkpt lat="49.17274" lon="6.73549">
        <ele>256.88</ele>
        <time>2020-01-12T09:19:38.000Z</time>
      </trkpt>
      <trkpt lat="49.17264" lon="6.73566">
        <ele>254.15</ele>
        <time>2020-01-12T09:19:48.000Z</time>
      </trkpt>
      <trkpt lat="49.17255" lon="6.73582">
        <ele>255.34</ele>
        <time>2020-01-12T09:19:58.000Z</time>
      </trkpt>
      <trkpt lat="49.17247" lon="6.73599">
        <ele>255.63</ele>
        <time>2020-01-12T09:20:08.000Z</time>
      </trkpt>
      <trkpt lat="49.17238" lon="6.73615">
        <ele>256.26</ele>
        <time>2020-01-12T09:20:18.000Z</time>
      </trkpt>
      <trkpt lat="49.1723" lon="6.7363">
        <ele>255.77</ele>
        <time>2020-01-12T09:20:28.000Z</time>
      </trkpt>
      <trkpt lat="49.17218" lon="6.73647">
        <ele>256.47</ele>
        <time>2020-01-12T09:20:38.000Z</time>
      </trkpt>
      <trkpt lat="49.17207" lon="6.73666">
        <ele>256.95</ele>
        <time>2020-01-12T09:20:48.000Z</time>
      </trkpt>
      <trkpt lat="49.17197" lon="6.7368">
        <ele>257.39</ele>
        <time>2020-01-12T09:20:58.000Z</time>
      </trkpt>
      <trkpt lat="49.17186" lon="6.73692">
        <ele>257.61</ele>
        <time>2020-01-12T09:21:08.000Z</time>
      </trkpt>
      <trkpt lat="49.17175" lon="6.73708">
        <ele>257.43</ele>
        <time>2020-01-12T09:21:18.000Z</time>
      </trkpt>
      <trkpt lat="49.17162" lon="6.73722">
        <ele>258.31</ele>
        <time>2020-01-12T09:21:28.000Z</time>
      </trkpt>
      <trkpt lat="49.17149" lon="6.73736">
        <ele>257.02</ele>
        <time>2020-01-12T09:21:38.000Z</time>
      </trkpt>
      <trkpt lat="49.17136" lon="6.73753">
        <ele>259.26</ele>
        <time>2020-01-12T09:21:48.000Z</time>
      </trkpt>
      <trkpt lat="49.17126" lon="6.73764">
        <ele>260.71</ele>
        <time>2020-01-12T09:21:58.000Z</time>
      </trkpt>
      <trkpt lat="49.17116" lon="6.73773">
        <ele>260.72</ele>
        <time>2020-01-12T09:22:08.000Z</time>
      </trkpt>
      <trkpt lat="49.17104" lon="6.7378">
        <ele>263.05</ele>
        <time>2020-01-12T09:22:18.000Z</time>
      </trkpt>
      <trkpt lat="49.17086" lon="6.7379">
        <ele>261.26</ele>
        <time>2020-01-12T09:22:28.000Z</time>
      </trkpt>
      <trkpt lat="49.17069" lon="6.73803">
        <ele>260.03</ele>
        <time>2020-01-12T09:22:38.000Z</time>
      </trkpt>
      <trkpt lat="49.17057" lon="6.7381">
        <ele>256.22</ele>
        <time>2020-01-12T09:22:48.000Z</time>
      </trkpt>
      <trkpt lat="49.17045" lon="6.73819">
        <ele>254.48</ele>
        <time>2020-01-12T09:22:58.000Z</time>
      </trkpt>
      <trkpt lat="49.17036" lon="6.73828">
        <ele>258.86</ele>
        <time>2020-01-12T09:23:08.000Z</time>
      </trkpt>
      <trkpt lat="49.17025" lon="6.7384">
        <ele>257.35</ele>
        <time>2020-01-12T09:23:18.000Z</time>
      </trkpt>
      <trkpt lat="49.17012" lon="6.73853">
        <ele>257.92</ele>
        <time>2020-01-12T09:23:28.000Z</time>
      </trkpt>
      <trkpt lat="49.17002" lon="6.73866">
        <ele>257.81</ele>
        <time>2020-01-12T09:23:38.000Z</time>
      </trkpt>
      <trkpt lat="49.16992" lon="6.73877">
        <ele>263.19</ele>
        <time>2020-01-12T09:23:48.000Z</time>
      </trkpt>
      <trkpt lat="49.16981" lon="6.7389">
        <ele>267.85</ele>
        <time>2020-01-12T09:23:58.000Z</time>
      </trkpt>
      <trkpt lat="49.16973" lon="6.73904">
        <ele>270.68</ele>
        <time>2020-01-12T09:24:08.000Z</time>
      </trkpt>
      <trkpt lat="49.16964" lon="6.73922">
        <ele>271.51</ele>
        <time>2020-01-12T09:24:18.000Z</time>
      </trkpt>
      <trkpt lat="49.16954" lon="6.73938">
        <ele>270.03</ele>
        <time>2020-01-12T09:24:28.000Z</time>
      </trkpt>
      <trkpt lat="49.16944" lon="6.73956">
        <ele>268.42</ele>
        <time>2020-01-12T09:24:38.000Z</time>
      </trkpt>
      <trkpt lat="49.16934" lon="6.73974">
        <ele>267.29</ele>
        <time>2020-01-12T09:24:48.000Z</time>
      </trkpt>
      <trkpt lat="49.16926" lon="6.73989">
        <ele>271.63</ele>
        <time>2020-01-12T09:24:58.000Z</time>
      </trkpt>
      <trkpt lat="49.16919" lon="6.74007">
        <ele>274.21</ele>
        <time>2020-01-12T09:25:08.000Z</time>
      </trkpt>
      <trkpt lat="49.1691" lon="6.7403">
        <ele>274.98</ele>
        <time>2020-01-12T09:25:18.000Z</time>
      </trkpt>
      <trkpt lat="49.16903" lon="6.74052">
        <ele>274.53</ele>
        <time>2020-01-12T09:25:28.000Z</time>
      </trkpt>
      <trkpt lat="49.169" lon="6.74071">
        <ele>275.55</ele>
        <time>2020-01-12T09:25:38.000Z</time>
      </trkpt>
      <trkpt lat="49.16892" lon="6.74093">
        <ele>278.69</ele>
        <time>2020-01-12T09:25:48.000Z</time>
      </trkpt>
      <trkpt lat="49.16881" lon="6.74112">
        <ele>281.52</ele>
        <time>2020-01-12T09:25:58.000Z</time>
      </trkpt>
      <trkpt lat="49.16868" lon="6.7413">
        <ele>281.54</ele>
        <time>2020-01-12T09:26:08.000Z</time>
      </trkpt>
      <trkpt lat="49.16854" lon="6.74144">
        <ele>280.44</ele>
        <time>2020-01-12T09:26:18.000Z</time>
      </trkpt>
      <trkpt lat="49.16839" lon="6.74156">
        <ele>278.21</ele>
        <time>2020-01-12T09:26:28.000Z</time>
      </trkpt>
      <trkpt lat="49.16821" lon="6.74169">
        <ele>279.97</ele>
        <time>2020-01-12T09:26:38.000Z</time>
      </trkpt>
      <trkpt lat="49.16807" lon="6.74179">
        <ele>279.8</ele>
        <time>2020-01-12T09:26:48.000Z</time>
      </trkpt>
      <trkpt lat="49.16805" lon="6.74193">
        <ele>280.05</ele>
        <time>2020-01-12T09:26:58.000Z</time>
      </trkpt>
      <trkpt lat="49.16803" lon="6.74201">
        <ele>279.44</ele>
        <time>2020-01-12T09:27:08.000Z</time>
      </trkpt>
      <trkpt lat="49.168" lon="6.74208">
        <ele>278.71</ele>
        <time>2020-01-12T09:27:18.000Z</time>
      </trkpt>
      <trkpt lat="49.16796" lon="6.74216">
        <ele>279.15</ele>
        <time>2020-01-12T09:27:28.000Z</time>
      </trkpt>
      <trkpt lat="49.16791" lon="6.74229">
        <ele>279.6</ele>
        <time>2020-01-12T09:27:38.000Z</time>
      </trkpt>
      <trkpt lat="49.16785" lon="6.7424">
        <ele>280.88</ele>
        <time>2020-01-12T09:27:48.000Z</time>
      </trkpt>
      <trkpt lat="49.16777" lon="6.7425">
        <ele>285.08</ele>
        <time>2020-01-12T09:27:58.000Z</time>
      </trkpt>
      <trkpt lat="49.16769" lon="6.74261">
        <ele>287.35</ele>
        <time>2020-01-12T09:28:08.000Z</time>
      </trkpt>
      <trkpt lat="49.16764" lon="6.74278">
        <ele>286.38</ele>
        <time>2020-01-12T09:28:18.000Z</time>
      </trkpt>
      <trkpt lat="49.16761" lon="6.74294">
        <ele>284.51</ele>
        <time>2020-01-12T09:28:28.000Z</time>
      </trkpt>
      <trkpt lat="49.1676" lon="6.7431">
        <ele>285.94</ele>
        <time>2020-01-12T09:28:38.000Z</time>
      </trkpt>
      <trkpt lat="49.16762" lon="6.74324">
        <ele>287.68</ele>
        <time>2020-01-12T09:28:48.000Z</time>
      </trkpt>
      <trkpt lat="49.16764" lon="6.74336">
        <ele>290.83</ele>
        <time>2020-01-12T09:28:58.000Z</time>
      </trkpt>
      <trkpt lat="49.16767" lon="6.74353">
        <ele>293.44</ele>
        <time>2020-01-12T09:29:08.000Z</time>
      </trkpt>
      <trkpt lat="49.16768" lon="6.74365">
        <ele>294.84</ele>
        <time>2020-01-12T09:29:18.000Z</time>
      </trkpt>
      <trkpt lat="49.16765" lon="6.74387">
        <ele>297.16</ele>
        <time>2020-01-12T09:29:28.000Z</time>
      </trkpt>
      <trkpt lat="49.16756" lon="6.74397">
        <ele>296.39</ele>
        <time>2020-01-12T09:29:38.000Z</time>
      </trkpt>
      <trkpt lat="49.16735" lon="6.74407">
        <ele>292.6</ele>
        <time>2020-01-12T09:29:48.000Z</time>
      </trkpt>
      <trkpt lat="49.1672" lon="6.74424">
        <ele>291.89</ele>
        <time>2020-01-12T09:29:58.000Z</time>
      </trkpt>
      <trkpt lat="49.16718" lon="6.74442">
        <ele>291.06</ele>
        <time>2020-01-12T09:30:08.000Z</time>
      </trkpt>
      <trkpt lat="49.16716" lon="6.74453">
        <ele>291.23</ele>
        <time>2020-01-12T09:30:18.000Z</time>
      </trkpt>
      <trkpt lat="49.16714" lon="6.74469">
        <ele>288.63</ele>
        <time>2020-01-12T09:30:28.000Z</time>
      </trkpt>
      <trkpt lat="49.16715" lon="6.74484">
        <ele>288.48</ele>
        <time>2020-01-12T09:30:38.000Z</time>
      </trkpt>
      <trkpt lat="49.16716" lon="6.74501">
        <ele>289.34</ele>
        <time>2020-01-12T09:30:48.000Z</time>
      </trkpt>
      <trkpt lat="49.16721" lon="6.7452">
        <ele>291.69</ele>
        <time>2020-01-12T09:30:58.000Z</time>
      </trkpt>
      <trkpt lat="49.16722" lon="6.7454">
        <ele>292.17</ele>
        <time>2020-01-12T09:31:08.000Z</time>
      </trkpt>
      <trkpt lat="49.16723" lon="6.74557">
        <ele>292.03</ele>
        <time>2020-01-12T09:31:18.000Z</time>
      </trkpt>
      <trkpt lat="49.16724" lon="6.74574">
        <ele>294.46</ele>
        <time>2020-01-12T09:31:28.000Z</time>
      </trkpt>
      <trkpt lat="49.16726" lon="6.74586">
        <ele>297.69</ele>
        <time>2020-01-12T09:31:38.000Z</time>
      </trkpt>
      <trkpt lat="49.16718" lon="6.74606">
        <ele>300.58</ele>
        <time>2020-01-12T09:31:48.000Z</time>
      </trkpt>
      <trkpt lat="49.16708" lon="6.74622">
        <ele>301.81</ele>
        <time>2020-01-12T09:31:58.000Z</time>
      </trkpt>
      <trkpt lat="49.16693" lon="6.74626">
        <ele>302.28</ele>
        <time>2020-01-12T09:32:08.000Z</time>
      </trkpt>
      <trkpt lat="49.16676" lon="6.74637">
        <ele>302.51</ele>
        <time>2020-01-12T09:32:18.000Z</time>
      </trkpt>
      <trkpt lat="49.16668" lon="6.74649">
        <ele>301.34</ele>
        <time>2020-01-12T09:32:28.000Z</time>
      </trkpt>
      <trkpt lat="49.16662" lon="6.74661">
        <ele>301.89</ele>
        <time>2020-01-12T09:32:38.000Z</time>
      </trkpt>
      <trkpt lat="49.16655" lon="6.74676">
        <ele>304.82</ele>
        <time>2020-01-12T09:32:48.000Z</time>
      </trkpt>
      <trkpt lat="49.16649" lon="6.74692">
        <ele>307.59</ele>
        <time>2020-01-12T09:32:58.000Z</time>
      </trkpt>
      <trkpt lat="49.16636" lon="6.74707">
        <ele>309.9</ele>
        <time>2020-01-12T09:33:08.000Z</time>
      </trkpt>
      <trkpt lat="49.16624" lon="6.74725">
        <ele>307.84</ele>
        <time>2020-01-12T09:33:18.000Z</time>
      </trkpt>
      <trkpt lat="49.16617" lon="6.74742">
        <ele>308.42</ele>
        <time>2020-01-12T09:33:28.000Z</time>
      </trkpt>
      <trkpt lat="49.16609" lon="6.74757">
        <ele>306.99</ele>
        <time>2020-01-12T09:33:38.000Z</time>
      </trkpt>
      <trkpt lat="49.16611" lon="6.74774">
        <ele>306.56</ele>
        <time>2020-01-12T09:33:48.000Z</time>
      </trkpt>
      <trkpt lat="49.16615" lon="6.74791">
        <ele>306.29</ele>
        <time>2020-01-12T09:33:58.000Z</time>
      </trkpt>
      <trkpt lat="49.16617" lon="6.74809">
        <ele>304.24</ele>
        <time>2020-01-12T09:34:08.000Z</time>
      </trkpt>
      <trkpt lat="49.16623" lon="6.74824">
        <ele>304.27</ele>
        <time>2020-01-12T09:34:18.000Z</time>
      </trkpt>
      <trkpt lat="49.16629" lon="6.74837">
        <ele>304.36</ele>
        <time>2020-01-12T09:34:28.000Z</time>
      </trkpt>
      <trkpt lat="49.16633" lon="6.74854">
        <ele>303.6</ele>
        <time>2020-01-12T09:34:38.000Z</time>
      </trkpt>
      <trkpt lat="49.16635" lon="6.74878">
        <ele>300.48</ele>
        <time>2020-01-12T09:34:48.000Z</time>
      </trkpt>
      <trkpt lat="49.16636" lon="6.74903">
        <ele>297.92</ele>
        <time>2020-01-12T09:34:58.000Z</time>
      </trkpt>
      <trkpt lat="49.16628" lon="6.74918">
        <ele>300.26</ele>
        <time>2020-01-12T09:35:08.000Z</time>
      </trkpt>
      <trkpt lat="49.16626" lon="6.74922">
        <ele>300.37</ele>
        <time>2020-01-12T09:35:18.000Z</time>
      </trkpt>
      <trkpt lat="49.16627" lon="6.74923">
        <ele>300.47</ele>
        <time>2020-01-12T09:35:28.000Z</time>
      </trkpt>
      <trkpt lat="49.16627" lon="6.7492">
        <ele>300.01</ele>
        <time>2020-01-12T09:36:52.000Z</time>
      </trkpt>
      <trkpt lat="49.16625" lon="6.7492">
        <ele>299.17</ele>
        <time>2020-01-12T09:37:02.000Z</time>
      </trkpt>
      <trkpt lat="49.16626" lon="6.74909">
        <ele>302.15</ele>
        <time>2020-01-12T09:41:07.000Z</time>
      </trkpt>
      <trkpt lat="49.16617" lon="6.74902">
        <ele>302.25</ele>
        <time>2020-01-12T09:41:17.000Z</time>
      </trkpt>
      <trkpt lat="49.16603" lon="6.74901">
        <ele>299.49</ele>
        <time>2020-01-12T09:41:27.000Z</time>
      </trkpt>
      <trkpt lat="49.16589" lon="6.74902">
        <ele>298.6</ele>
        <time>2020-01-12T09:41:37.000Z</time>
      </trkpt>
      <trkpt lat="49.16573" lon="6.74897">
        <ele>296.28</ele>
        <time>2020-01-12T09:41:47.000Z</time>
      </trkpt>
      <trkpt lat="49.16557" lon="6.74888">
        <ele>293.78</ele>
        <time>2020-01-12T09:41:57.000Z</time>
      </trkpt>
      <trkpt lat="49.16543" lon="6.74883">
        <ele>293.85</ele>
        <time>2020-01-12T09:42:07.000Z</time>
      </trkpt>
      <trkpt lat="49.1653" lon="6.74879">
        <ele>292.16</ele>
        <time>2020-01-12T09:42:17.000Z</time>
      </trkpt>
      <trkpt lat="49.16515" lon="6.74873">
        <ele>291.31</ele>
        <time>2020-01-12T09:42:27.000Z</time>
      </trkpt>
      <trkpt lat="49.165" lon="6.74871">
        <ele>289.29</ele>
        <time>2020-01-12T09:42:37.000Z</time>
      </trkpt>
      <trkpt lat="49.16487" lon="6.74873">
        <ele>288.74</ele>
        <time>2020-01-12T09:42:47.000Z</time>
      </trkpt>
      <trkpt lat="49.16473" lon="6.74872">
        <ele>288.9</ele>
        <time>2020-01-12T09:42:57.000Z</time>
      </trkpt>
      <trkpt lat="49.16459" lon="6.7487">
        <ele>290.44</ele>
        <time>2020-01-12T09:43:07.000Z</time>
      </trkpt>
      <trkpt lat="49.16445" lon="6.74869">
        <ele>290.49</ele>
        <time>2020-01-12T09:43:17.000Z</time>
      </trkpt>
      <trkpt lat="49.1643" lon="6.74867">
        <ele>289.72</ele>
        <time>2020-01-12T09:43:27.000Z</time>
      </trkpt>
      <trkpt lat="49.16414" lon="6.74871">
        <ele>288.72</ele>
        <time>2020-01-12T09:43:37.000Z</time>
      </trkpt>
      <trkpt lat="49.16403" lon="6.74884">
        <ele>287.73</ele>
        <time>2020-01-12T09:43:47.000Z</time>
      </trkpt>
      <trkpt lat="49.16394" lon="6.749">
        <ele>289.53</ele>
        <time>2020-01-12T09:43:57.000Z</time>
      </trkpt>
      <trkpt lat="49.16387" lon="6.74916">
        <ele>288.62</ele>
        <time>2020-01-12T09:44:07.000Z</time>
      </trkpt>
      <trkpt lat="49.16381" lon="6.74932">
        <ele>288.6</ele>
        <time>2020-01-12T09:44:17.000Z</time>
      </trkpt>
      <trkpt lat="49.16376" lon="6.7495">
        <ele>286.28</ele>
        <time>2020-01-12T09:44:27.000Z</time>
      </trkpt>
      <trkpt lat="49.16364" lon="6.74975">
        <ele>284.05</ele>
        <time>2020-01-12T09:44:37.000Z</time>
      </trkpt>
      <trkpt lat="49.16356" lon="6.74998">
        <ele>282.43</ele>
        <time>2020-01-12T09:44:47.000Z</time>
      </trkpt>
      <trkpt lat="49.1635" lon="6.75017">
        <ele>280.42</ele>
        <time>2020-01-12T09:44:57.000Z</time>
      </trkpt>
      <trkpt lat="49.16343" lon="6.75039">
        <ele>278.52</ele>
        <time>2020-01-12T09:45:07.000Z</time>
      </trkpt>
      <trkpt lat="49.16339" lon="6.75056">
        <ele>277.56</ele>
        <time>2020-01-12T09:45:17.000Z</time>
      </trkpt>
      <trkpt lat="49.16333" lon="6.75074">
        <ele>277.77</ele>
        <time>2020-01-12T09:45:27.000Z</time>
      </trkpt>
      <trkpt lat="49.16329" lon="6.75091">
        <ele>279.04</ele>
        <time>2020-01-12T09:45:37.000Z</time>
      </trkpt>
      <trkpt lat="49.16325" lon="6.75106">
        <ele>280.15</ele>
        <time>2020-01-12T09:45:47.000Z</time>
      </trkpt>
      <trkpt lat="49.16319" lon="6.7513">
        <ele>281.1</ele>
        <time>2020-01-12T09:45:57.000Z</time>
      </trkpt>
      <trkpt lat="49.16312" lon="6.75152">
        <ele>279.67</ele>
        <time>2020-01-12T09:46:07.000Z</time>
      </trkpt>
      <trkpt lat="49.16305" lon="6.7517">
        <ele>280.26</ele>
        <time>2020-01-12T09:46:17.000Z</time>
      </trkpt>
      <trkpt lat="49.16296" lon="6.75188">
        <ele>281.71</ele>
        <time>2020-01-12T09:46:27.000Z</time>
      </trkpt>
      <trkpt lat="49.16287" lon="6.75204">
        <ele>282.69</ele>
        <time>2020-01-12T09:46:37.000Z</time>
      </trkpt>
      <trkpt lat="49.1628" lon="6.75221">
        <ele>282.01</ele>
        <time>2020-01-12T09:46:47.000Z</time>
      </trkpt>
      <trkpt lat="49.16271" lon="6.75238">
        <ele>281.1</ele>
        <time>2020-01-12T09:46:57.000Z</time>
      </trkpt>
      <trkpt lat="49.16262" lon="6.75256">
        <ele>281.26</ele>
        <time>2020-01-12T09:47:07.000Z</time>
      </trkpt>
      <trkpt lat="49.16254" lon="6.75273">
        <ele>279.4</ele>
        <time>2020-01-12T09:47:17.000Z</time>
      </trkpt>
      <trkpt lat="49.1624" lon="6.75278">
        <ele>278.07</ele>
        <time>2020-01-12T09:47:27.000Z</time>
      </trkpt>
      <trkpt lat="49.16225" lon="6.7529">
        <ele>275.32</ele>
        <time>2020-01-12T09:47:37.000Z</time>
      </trkpt>
      <trkpt lat="49.16212" lon="6.75303">
        <ele>272.1</ele>
        <time>2020-01-12T09:47:47.000Z</time>
      </trkpt>
      <trkpt lat="49.162" lon="6.75317">
        <ele>270.82</ele>
        <time>2020-01-12T09:47:57.000Z</time>
      </trkpt>
      <trkpt lat="49.16196" lon="6.75333">
        <ele>270.97</ele>
        <time>2020-01-12T09:48:07.000Z</time>
      </trkpt>
      <trkpt lat="49.162" lon="6.75351">
        <ele>271.25</ele>
        <time>2020-01-12T09:48:17.000Z</time>
      </trkpt>
      <trkpt lat="49.162" lon="6.75372">
        <ele>269.25</ele>
        <time>2020-01-12T09:48:27.000Z</time>
      </trkpt>
      <trkpt lat="49.16196" lon="6.75391">
        <ele>270.89</ele>
        <time>2020-01-12T09:48:37.000Z</time>
      </trkpt>
      <trkpt lat="49.16189" lon="6.75407">
        <ele>272.27</ele>
        <time>2020-01-12T09:48:47.000Z</time>
      </trkpt>
      <trkpt lat="49.16176" lon="6.75429">
        <ele>273.49</ele>
        <time>2020-01-12T09:48:57.000Z</time>
      </trkpt>
      <trkpt lat="49.16157" lon="6.75433">
        <ele>273.26</ele>
        <time>2020-01-12T09:49:07.000Z</time>
      </trkpt>
      <trkpt lat="49.16143" lon="6.75428">
        <ele>272.79</ele>
        <time>2020-01-12T09:49:17.000Z</time>
      </trkpt>
      <trkpt lat="49.16128" lon="6.75422">
        <ele>272.49</ele>
        <time>2020-01-12T09:49:27.000Z</time>
      </trkpt>
      <trkpt lat="49.16113" lon="6.75417">
        <ele>271.09</ele>
        <time>2020-01-12T09:49:37.000Z</time>
      </trkpt>
      <trkpt lat="49.16096" lon="6.75414">
        <ele>270.12</ele>
        <time>2020-01-12T09:49:47.000Z</time>
      </trkpt>
      <trkpt lat="49.16083" lon="6.75416">
        <ele>269.06</ele>
        <time>2020-01-12T09:49:57.000Z</time>
      </trkpt>
      <trkpt lat="49.1607" lon="6.75413">
        <ele>269.25</ele>
        <time>2020-01-12T09:50:07.000Z</time>
      </trkpt>
      <trkpt lat="49.16056" lon="6.75412">
        <ele>269.08</ele>
        <time>2020-01-12T09:50:17.000Z</time>
      </trkpt>
      <trkpt lat="49.16043" lon="6.75413">
        <ele>269.88</ele>
        <time>2020-01-12T09:50:27.000Z</time>
      </trkpt>
      <trkpt lat="49.16029" lon="6.75407">
        <ele>268.84</ele>
        <time>2020-01-12T09:50:37.000Z</time>
      </trkpt>
      <trkpt lat="49.16014" lon="6.75404">
        <ele>268.1</ele>
        <time>2020-01-12T09:50:47.000Z</time>
      </trkpt>
      <trkpt lat="49.15998" lon="6.754">
        <ele>267.01</ele>
        <time>2020-01-12T09:50:57.000Z</time>
      </trkpt>
      <trkpt lat="49.15982" lon="6.75396">
        <ele>265.23</ele>
        <time>2020-01-12T09:51:07.000Z</time>
      </trkpt>
      <trkpt lat="49.15968" lon="6.75392">
        <ele>263.89</ele>
        <time>2020-01-12T09:51:17.000Z</time>
      </trkpt>
      <trkpt lat="49.15955" lon="6.75394">
        <ele>263.53</ele>
        <time>2020-01-12T09:51:27.000Z</time>
      </trkpt>
      <trkpt lat="49.15945" lon="6.75398">
        <ele>263.79</ele>
        <time>2020-01-12T09:51:37.000Z</time>
      </trkpt>
      <trkpt lat="49.15937" lon="6.75401">
        <ele>263.96</ele>
        <time>2020-01-12T09:51:47.000Z</time>
      </trkpt>
      <trkpt lat="49.15925" lon="6.7541">
        <ele>264.26</ele>
        <time>2020-01-12T09:51:57.000Z</time>
      </trkpt>
      <trkpt lat="49.15917" lon="6.75417">
        <ele>261.59</ele>
        <time>2020-01-12T09:52:07.000Z</time>
      </trkpt>
      <trkpt lat="49.15907" lon="6.75426">
        <ele>259.41</ele>
        <time>2020-01-12T09:52:17.000Z</time>
      </trkpt>
      <trkpt lat="49.15897" lon="6.75438">
        <ele>258.12</ele>
        <time>2020-01-12T09:52:27.000Z</time>
      </trkpt>
      <trkpt lat="49.15891" lon="6.75458">
        <ele>256.11</ele>
        <time>2020-01-12T09:52:37.000Z</time>
      </trkpt>
      <trkpt lat="49.15889" lon="6.75482">
        <ele>255.16</ele>
        <time>2020-01-12T09:52:47.000Z</time>
      </trkpt>
      <trkpt lat="49.15888" lon="6.75501">
        <ele>252.89</ele>
        <time>2020-01-12T09:52:57.000Z</time>
      </trkpt>
      <trkpt lat="49.15885" lon="6.75523">
        <ele>251.34</ele>
        <time>2020-01-12T09:53:07.000Z</time>
      </trkpt>
      <trkpt lat="49.15883" lon="6.75541">
        <ele>248.82</ele>
        <time>2020-01-12T09:53:17.000Z</time>
      </trkpt>
      <trkpt lat="49.15883" lon="6.75564">
        <ele>246</ele>
        <time>2020-01-12T09:53:27.000Z</time>
      </trkpt>
      <trkpt lat="49.15884" lon="6.75585">
        <ele>244.45</ele>
        <time>2020-01-12T09:53:37.000Z</time>
      </trkpt>
      <trkpt lat="49.15888" lon="6.75608">
        <ele>244.76</ele>
        <time>2020-01-12T09:53:47.000Z</time>
      </trkpt>
      <trkpt lat="49.15892" lon="6.75629">
        <ele>243.24</ele>
        <time>2020-01-12T09:53:57.000Z</time>
      </trkpt>
      <trkpt lat="49.15898" lon="6.7565">
        <ele>243.02</ele>
        <time>2020-01-12T09:54:07.000Z</time>
      </trkpt>
      <trkpt lat="49.15902" lon="6.7567">
        <ele>240.11</ele>
        <time>2020-01-12T09:54:17.000Z</time>
      </trkpt>
      <trkpt lat="49.15907" lon="6.75691">
        <ele>240.91</ele>
        <time>2020-01-12T09:54:27.000Z</time>
      </trkpt>
      <trkpt lat="49.15911" lon="6.75711">
        <ele>242.46</ele>
        <time>2020-01-12T09:54:37.000Z</time>
      </trkpt>
      <trkpt lat="49.15914" lon="6.75735">
        <ele>241.27</ele>
        <time>2020-01-12T09:54:47.000Z</time>
      </trkpt>
      <trkpt lat="49.15917" lon="6.75756">
        <ele>242.09</ele>
        <time>2020-01-12T09:54:57.000Z</time>
      </trkpt>
      <trkpt lat="49.15921" lon="6.75778">
        <ele>243.89</ele>
        <time>2020-01-12T09:55:07.000Z</time>
      </trkpt>
      <trkpt lat="49.15924" lon="6.75798">
        <ele>243.49</ele>
        <time>2020-01-12T09:55:17.000Z</time>
      </trkpt>
      <trkpt lat="49.15928" lon="6.75819">
        <ele>243.61</ele>
        <time>2020-01-12T09:55:27.000Z</time>
      </trkpt>
      <trkpt lat="49.15931" lon="6.7584">
        <ele>242.25</ele>
        <time>2020-01-12T09:55:37.000Z</time>
      </trkpt>
      <trkpt lat="49.15935" lon="6.75861">
        <ele>243.66</ele>
        <time>2020-01-12T09:55:47.000Z</time>
      </trkpt>
      <trkpt lat="49.15938" lon="6.75883">
        <ele>244.56</ele>
        <time>2020-01-12T09:55:57.000Z</time>
      </trkpt>
      <trkpt lat="49.15942" lon="6.75903">
        <ele>243.9</ele>
        <time>2020-01-12T09:56:07.000Z</time>
      </trkpt>
      <trkpt lat="49.15941" lon="6.75925">
        <ele>243.32</ele>
        <time>2020-01-12T09:56:17.000Z</time>
      </trkpt>
      <trkpt lat="49.1594" lon="6.75948">
        <ele>244.12</ele>
        <time>2020-01-12T09:56:27.000Z</time>
      </trkpt>
      <trkpt lat="49.15939" lon="6.75973">
        <ele>244.6</ele>
        <time>2020-01-12T09:56:37.000Z</time>
      </trkpt>
      <trkpt lat="49.15936" lon="6.75993">
        <ele>242.03</ele>
        <time>2020-01-12T09:56:47.000Z</time>
      </trkpt>
      <trkpt lat="49.15934" lon="6.76015">
        <ele>238.59</ele>
        <time>2020-01-12T09:56:57.000Z</time>
      </trkpt>
      <trkpt lat="49.15932" lon="6.76033">
        <ele>236.13</ele>
        <time>2020-01-12T09:57:07.000Z</time>
      </trkpt>
      <trkpt lat="49.15933" lon="6.7605">
        <ele>232.96</ele>
        <time>2020-01-12T09:57:17.000Z</time>
      </trkpt>
      <trkpt lat="49.15935" lon="6.76069">
        <ele>229.4</ele>
        <time>2020-01-12T09:57:27.000Z</time>
      </trkpt>
      <trkpt lat="49.15935" lon="6.76089">
        <ele>226.98</ele>
        <time>2020-01-12T09:57:37.000Z</time>
      </trkpt>
      <trkpt lat="49.15936" lon="6.7611">
        <ele>224.37</ele>
        <time>2020-01-12T09:57:47.000Z</time>
      </trkpt>
      <trkpt lat="49.15939" lon="6.76133">
        <ele>221.83</ele>
        <time>2020-01-12T09:57:57.000Z</time>
      </trkpt>
      <trkpt lat="49.15943" lon="6.76153">
        <ele>221.18</ele>
        <time>2020-01-12T09:58:07.000Z</time>
      </trkpt>
      <trkpt lat="49.15947" lon="6.76174">
        <ele>222.49</ele>
        <time>2020-01-12T09:58:17.000Z</time>
      </trkpt>
      <trkpt lat="49.15954" lon="6.76189">
        <ele>224.04</ele>
        <time>2020-01-12T09:58:27.000Z</time>
      </trkpt>
      <trkpt lat="49.1596" lon="6.76198">
        <ele>224.59</ele>
        <time>2020-01-12T09:58:37.000Z</time>
      </trkpt>
      <trkpt lat="49.15964" lon="6.76207">
        <ele>224.75</ele>
        <time>2020-01-12T09:58:47.000Z</time>
      </trkpt>
      <trkpt lat="49.15967" lon="6.76221">
        <ele>225.38</ele>
        <time>2020-01-12T09:58:57.000Z</time>
      </trkpt>
      <trkpt lat="49.15971" lon="6.76242">
        <ele>224.85</ele>
        <time>2020-01-12T09:59:07.000Z</time>
      </trkpt>
      <trkpt lat="49.15973" lon="6.76264">
        <ele>227.15</ele>
        <time>2020-01-12T09:59:17.000Z</time>
      </trkpt>
      <trkpt lat="49.15973" lon="6.76286">
        <ele>231.42</ele>
        <time>2020-01-12T09:59:27.000Z</time>
      </trkpt>
      <trkpt lat="49.15975" lon="6.76306">
        <ele>233.95</ele>
        <time>2020-01-12T09:59:37.000Z</time>
      </trkpt>
      <trkpt lat="49.15976" lon="6.76325">
        <ele>234.02</ele>
        <time>2020-01-12T09:59:47.000Z</time>
      </trkpt>
      <trkpt lat="49.15978" lon="6.76345">
        <ele>235.63</ele>
        <time>2020-01-12T09:59:57.000Z</time>
      </trkpt>
      <trkpt lat="49.15981" lon="6.76365">
        <ele>237.48</ele>
        <time>2020-01-12T10:00:07.000Z</time>
      </trkpt>
      <trkpt lat="49.15984" lon="6.76385">
        <ele>238.57</ele>
        <time>2020-01-12T10:00:17.000Z</time>
      </trkpt>
      <trkpt lat="49.15986" lon="6.76405">
        <ele>239.64</ele>
        <time>2020-01-12T10:00:27.000Z</time>
      </trkpt>
      <trkpt lat="49.15985" lon="6.76427">
        <ele>242.35</ele>
        <time>2020-01-12T10:00:37.000Z</time>
      </trkpt>
      <trkpt lat="49.15986" lon="6.76448">
        <ele>244.88</ele>
        <time>2020-01-12T10:00:47.000Z</time>
      </trkpt>
      <trkpt lat="49.15987" lon="6.76468">
        <ele>248.15</ele>
        <time>2020-01-12T10:00:57.000Z</time>
      </trkpt>
      <trkpt lat="49.15986" lon="6.76485">
        <ele>250.74</ele>
        <time>2020-01-12T10:01:07.000Z</time>
      </trkpt>
      <trkpt lat="49.15987" lon="6.76503">
        <ele>251.61</ele>
        <time>2020-01-12T10:01:17.000Z</time>
      </trkpt>
      <trkpt lat="49.15988" lon="6.76522">
        <ele>249.48</ele>
        <time>2020-01-12T10:01:27.000Z</time>
      </trkpt>
      <trkpt lat="49.15987" lon="6.76549">
        <ele>249.55</ele>
        <time>2020-01-12T10:01:37.000Z</time>
      </trkpt>
      <trkpt lat="49.15986" lon="6.76572">
        <ele>251.69</ele>
        <time>2020-01-12T10:01:47.000Z</time>
      </trkpt>
      <trkpt lat="49.15985" lon="6.76592">
        <ele>255</ele>
        <time>2020-01-12T10:01:57.000Z</time>
      </trkpt>
      <trkpt lat="49.15986" lon="6.7661">
        <ele>255.73</ele>
        <time>2020-01-12T10:02:07.000Z</time>
      </trkpt>
      <trkpt lat="49.15986" lon="6.76625">
        <ele>254.71</ele>
        <time>2020-01-12T10:02:17.000Z</time>
      </trkpt>
      <trkpt lat="49.15984" lon="6.76642">
        <ele>253.87</ele>
        <time>2020-01-12T10:02:27.000Z</time>
      </trkpt>
      <trkpt lat="49.15982" lon="6.76662">
        <ele>254.33</ele>
        <time>2020-01-12T10:02:37.000Z</time>
      </trkpt>
      <trkpt lat="49.15984" lon="6.76686">
        <ele>255.85</ele>
        <time>2020-01-12T10:02:47.000Z</time>
      </trkpt>
      <trkpt lat="49.15986" lon="6.76709">
        <ele>259.92</ele>
        <time>2020-01-12T10:02:57.000Z</time>
      </trkpt>
      <trkpt lat="49.15986" lon="6.76729">
        <ele>258.85</ele>
        <time>2020-01-12T10:03:07.000Z</time>
      </trkpt>
      <trkpt lat="49.15986" lon="6.76749">
        <ele>258.22</ele>
        <time>2020-01-12T10:03:17.000Z</time>
      </trkpt>
      <trkpt lat="49.15991" lon="6.76774">
        <ele>259.53</ele>
        <time>2020-01-12T10:03:27.000Z</time>
      </trkpt>
      <trkpt lat="49.16002" lon="6.76791">
        <ele>258.06</ele>
        <time>2020-01-12T10:03:37.000Z</time>
      </trkpt>
      <trkpt lat="49.16011" lon="6.76797">
        <ele>257.69</ele>
        <time>2020-01-12T10:03:47.000Z</time>
      </trkpt>
      <trkpt lat="49.16016" lon="6.76806">
        <ele>258.26</ele>
        <time>2020-01-12T10:03:57.000Z</time>
      </trkpt>
      <trkpt lat="49.16023" lon="6.76819">
        <ele>258.09</ele>
        <time>2020-01-12T10:04:07.000Z</time>
      </trkpt>
      <trkpt lat="49.16032" lon="6.76834">
        <ele>256.68</ele>
        <time>2020-01-12T10:04:17.000Z</time>
      </trkpt>
      <trkpt lat="49.16044" lon="6.76861">
        <ele>254.63</ele>
        <time>2020-01-12T10:04:27.000Z</time>
      </trkpt>
      <trkpt lat="49.16052" lon="6.76879">
        <ele>252.11</ele>
        <time>2020-01-12T10:04:37.000Z</time>
      </trkpt>
      <trkpt lat="49.16062" lon="6.7689">
        <ele>252.27</ele>
        <time>2020-01-12T10:04:47.000Z</time>
      </trkpt>
      <trkpt lat="49.16072" lon="6.769">
        <ele>254.17</ele>
        <time>2020-01-12T10:04:57.000Z</time>
      </trkpt>
      <trkpt lat="49.16083" lon="6.76909">
        <ele>253.4</ele>
        <time>2020-01-12T10:05:07.000Z</time>
      </trkpt>
      <trkpt lat="49.16096" lon="6.76919">
        <ele>254.2</ele>
        <time>2020-01-12T10:05:17.000Z</time>
      </trkpt>
      <trkpt lat="49.16106" lon="6.76927">
        <ele>253.93</ele>
        <time>2020-01-12T10:05:27.000Z</time>
      </trkpt>
      <trkpt lat="49.16119" lon="6.7694">
        <ele>252.38</ele>
        <time>2020-01-12T10:05:37.000Z</time>
      </trkpt>
      <trkpt lat="49.16133" lon="6.76951">
        <ele>252.27</ele>
        <time>2020-01-12T10:05:47.000Z</time>
      </trkpt>
      <trkpt lat="49.16146" lon="6.76962">
        <ele>253.58</ele>
        <time>2020-01-12T10:05:57.000Z</time>
      </trkpt>
      <trkpt lat="49.16161" lon="6.76975">
        <ele>254.98</ele>
        <time>2020-01-12T10:06:07.000Z</time>
      </trkpt>
      <trkpt lat="49.16172" lon="6.76985">
        <ele>253.25</ele>
        <time>2020-01-12T10:06:17.000Z</time>
      </trkpt>
      <trkpt lat="49.16182" lon="6.76998">
        <ele>251.72</ele>
        <time>2020-01-12T10:06:27.000Z</time>
      </trkpt>
      <trkpt lat="49.16194" lon="6.77009">
        <ele>251.6</ele>
        <time>2020-01-12T10:06:37.000Z</time>
      </trkpt>
      <trkpt lat="49.16206" lon="6.77019">
        <ele>253.25</ele>
        <time>2020-01-12T10:06:47.000Z</time>
      </trkpt>
      <trkpt lat="49.16216" lon="6.77028">
        <ele>253.51</ele>
        <time>2020-01-12T10:06:57.000Z</time>
      </trkpt>
      <trkpt lat="49.16226" lon="6.77036">
        <ele>251.86</ele>
        <time>2020-01-12T10:07:07.000Z</time>
      </trkpt>
      <trkpt lat="49.16237" lon="6.77044">
        <ele>251.35</ele>
        <time>2020-01-12T10:07:17.000Z</time>
      </trkpt>
      <trkpt lat="49.16254" lon="6.7706">
        <ele>248.36</ele>
        <time>2020-01-12T10:07:27.000Z</time>
      </trkpt>
      <trkpt lat="49.16263" lon="6.77069">
        <ele>247.98</ele>
        <time>2020-01-12T10:07:37.000Z</time>
      </trkpt>
      <trkpt lat="49.16276" lon="6.7708">
        <ele>246.32</ele>
        <time>2020-01-12T10:07:47.000Z</time>
      </trkpt>
      <trkpt lat="49.16296" lon="6.77093">
        <ele>247.57</ele>
        <time>2020-01-12T10:07:57.000Z</time>
      </trkpt>
      <trkpt lat="49.1631" lon="6.77103">
        <ele>247.55</ele>
        <time>2020-01-12T10:08:07.000Z</time>
      </trkpt>
      <trkpt lat="49.16321" lon="6.77111">
        <ele>247.17</ele>
        <time>2020-01-12T10:08:17.000Z</time>
      </trkpt>
      <trkpt lat="49.16338" lon="6.77128">
        <ele>243.07</ele>
        <time>2020-01-12T10:08:27.000Z</time>
      </trkpt>
      <trkpt lat="49.1635" lon="6.77139">
        <ele>237.91</ele>
        <time>2020-01-12T10:08:37.000Z</time>
      </trkpt>
      <trkpt lat="49.1636" lon="6.77148">
        <ele>236.67</ele>
        <time>2020-01-12T10:08:47.000Z</time>
      </trkpt>
      <trkpt lat="49.16371" lon="6.77157">
        <ele>237.43</ele>
        <time>2020-01-12T10:08:57.000Z</time>
      </trkpt>
      <trkpt lat="49.16386" lon="6.77173">
        <ele>237.71</ele>
        <time>2020-01-12T10:09:07.000Z</time>
      </trkpt>
      <trkpt lat="49.16399" lon="6.77184">
        <ele>238.46</ele>
        <time>2020-01-12T10:09:17.000Z</time>
      </trkpt>
      <trkpt lat="49.16409" lon="6.77182">
        <ele>239.72</ele>
        <time>2020-01-12T10:09:27.000Z</time>
      </trkpt>
      <trkpt lat="49.16423" lon="6.77185">
        <ele>237.55</ele>
        <time>2020-01-12T10:09:37.000Z</time>
      </trkpt>
      <trkpt lat="49.16437" lon="6.77196">
        <ele>236.23</ele>
        <time>2020-01-12T10:09:47.000Z</time>
      </trkpt>
      <trkpt lat="49.16452" lon="6.77206">
        <ele>234.02</ele>
        <time>2020-01-12T10:09:57.000Z</time>
      </trkpt>
      <trkpt lat="49.16464" lon="6.77215">
        <ele>233.99</ele>
        <time>2020-01-12T10:10:07.000Z</time>
      </trkpt>
      <trkpt lat="49.16478" lon="6.77222">
        <ele>234.13</ele>
        <time>2020-01-12T10:10:17.000Z</time>
      </trkpt>
      <trkpt lat="49.1649" lon="6.77229">
        <ele>234.43</ele>
        <time>2020-01-12T10:10:27.000Z</time>
      </trkpt>
      <trkpt lat="49.16503" lon="6.77238">
        <ele>234.27</ele>
        <time>2020-01-12T10:10:37.000Z</time>
      </trkpt>
      <trkpt lat="49.16515" lon="6.77248">
        <ele>233.92</ele>
        <time>2020-01-12T10:10:47.000Z</time>
      </trkpt>
      <trkpt lat="49.16526" lon="6.77253">
        <ele>235.09</ele>
        <time>2020-01-12T10:10:57.000Z</time>
      </trkpt>
      <trkpt lat="49.16538" lon="6.77256">
        <ele>236.46</ele>
        <time>2020-01-12T10:11:07.000Z</time>
      </trkpt>
      <trkpt lat="49.1655" lon="6.77259">
        <ele>236.82</ele>
        <time>2020-01-12T10:11:17.000Z</time>
      </trkpt>
      <trkpt lat="49.16553" lon="6.77256">
        <ele>237.28</ele>
        <time>2020-01-12T10:11:27.000Z</time>
      </trkpt>
      <trkpt lat="49.16562" lon="6.77259">
        <ele>238.56</ele>
        <time>2020-01-12T10:11:37.000Z</time>
      </trkpt>
      <trkpt lat="49.16577" lon="6.77268">
        <ele>236.08</ele>
        <time>2020-01-12T10:11:47.000Z</time>
      </trkpt>
      <trkpt lat="49.16589" lon="6.77286">
        <ele>229.36</ele>
        <time>2020-01-12T10:11:57.000Z</time>
      </trkpt>
      <trkpt lat="49.16603" lon="6.77304">
        <ele>226.45</ele>
        <time>2020-01-12T10:12:07.000Z</time>
      </trkpt>
      <trkpt lat="49.16614" lon="6.7732">
        <ele>226.22</ele>
        <time>2020-01-12T10:12:17.000Z</time>
      </trkpt>
      <trkpt lat="49.16622" lon="6.77333">
        <ele>225.53</ele>
        <time>2020-01-12T10:12:27.000Z</time>
      </trkpt>
      <trkpt lat="49.16625" lon="6.77344">
        <ele>227.53</ele>
        <time>2020-01-12T10:12:37.000Z</time>
      </trkpt>
      <trkpt lat="49.16628" lon="6.77354">
        <ele>229.53</ele>
        <time>2020-01-12T10:12:47.000Z</time>
      </trkpt>
      <trkpt lat="49.1663" lon="6.77362">
        <ele>230.35</ele>
        <time>2020-01-12T10:12:57.000Z</time>
      </trkpt>
      <trkpt lat="49.16631" lon="6.77359">
        <ele>230.76</ele>
        <time>2020-01-12T10:13:22.000Z</time>
      </trkpt>
      <trkpt lat="49.16633" lon="6.77359">
        <ele>228.76</ele>
        <time>2020-01-12T10:13:32.000Z</time>
      </trkpt>
      <trkpt lat="49.16634" lon="6.7736">
        <ele>228.76</ele>
        <time>2020-01-12T10:13:43.000Z</time>
      </trkpt>
      <trkpt lat="49.16635" lon="6.77359">
        <ele>228.98</ele>
        <time>2020-01-12T10:14:53.000Z</time>
      </trkpt>
      <trkpt lat="49.16637" lon="6.7737">
        <ele>232.69</ele>
        <time>2020-01-12T10:15:03.000Z</time>
      </trkpt>
      <trkpt lat="49.16644" lon="6.77392">
        <ele>232.65</ele>
        <time>2020-01-12T10:15:13.000Z</time>
      </trkpt>
      <trkpt lat="49.16652" lon="6.77414">
        <ele>232.06</ele>
        <time>2020-01-12T10:15:23.000Z</time>
      </trkpt>
      <trkpt lat="49.16662" lon="6.77432">
        <ele>231.93</ele>
        <time>2020-01-12T10:15:33.000Z</time>
      </trkpt>
      <trkpt lat="49.16673" lon="6.77451">
        <ele>231.58</ele>
        <time>2020-01-12T10:15:43.000Z</time>
      </trkpt>
      <trkpt lat="49.16681" lon="6.77468">
        <ele>231.39</ele>
        <time>2020-01-12T10:15:53.000Z</time>
      </trkpt>
      <trkpt lat="49.16688" lon="6.77486">
        <ele>231.14</ele>
        <time>2020-01-12T10:16:03.000Z</time>
      </trkpt>
      <trkpt lat="49.16695" lon="6.77504">
        <ele>233.56</ele>
        <time>2020-01-12T10:16:13.000Z</time>
      </trkpt>
      <trkpt lat="49.167" lon="6.77523">
        <ele>234.9</ele>
        <time>2020-01-12T10:16:23.000Z</time>
      </trkpt>
      <trkpt lat="49.16704" lon="6.77527">
        <ele>235.47</ele>
        <time>2020-01-12T10:16:33.000Z</time>
      </trkpt>
      <trkpt lat="49.16701" lon="6.77533">
        <ele>234.77</ele>
        <time>2020-01-12T10:16:43.000Z</time>
      </trkpt>
      <trkpt lat="49.16699" lon="6.77547">
        <ele>236.51</ele>
        <time>2020-01-12T10:16:53.000Z</time>
      </trkpt>
      <trkpt lat="49.16701" lon="6.77567">
        <ele>237.96</ele>
        <time>2020-01-12T10:17:03.000Z</time>
      </trkpt>
      <trkpt lat="49.16706" lon="6.77587">
        <ele>237.46</ele>
        <time>2020-01-12T10:17:13.000Z</time>
      </trkpt>
      <trkpt lat="49.16712" lon="6.77605">
        <ele>236.89</ele>
        <time>2020-01-12T10:17:23.000Z</time>
      </trkpt>
      <trkpt lat="49.16717" lon="6.77623">
        <ele>236.83</ele>
        <time>2020-01-12T10:17:33.000Z</time>
      </trkpt>
      <trkpt lat="49.1672" lon="6.77643">
        <ele>237.58</ele>
        <time>2020-01-12T10:17:43.000Z</time>
      </trkpt>
      <trkpt lat="49.16724" lon="6.77666">
        <ele>236.78</ele>
        <time>2020-01-12T10:17:53.000Z</time>
      </trkpt>
      <trkpt lat="49.16728" lon="6.77685">
        <ele>236.12</ele>
        <time>2020-01-12T10:18:03.001Z</time>
      </trkpt>
      <trkpt lat="49.16732" lon="6.77706">
        <ele>235.85</ele>
        <time>2020-01-12T10:18:13.001Z</time>
      </trkpt>
      <trkpt lat="49.16735" lon="6.77729">
        <ele>234.41</ele>
        <time>2020-01-12T10:18:23.001Z</time>
      </trkpt>
      <trkpt lat="49.16736" lon="6.77749">
        <ele>235.03</ele>
        <time>2020-01-12T10:18:33.001Z</time>
      </trkpt>
      <trkpt lat="49.16735" lon="6.77772">
        <ele>234.15</ele>
        <time>2020-01-12T10:18:43.001Z</time>
      </trkpt>
      <trkpt lat="49.16736" lon="6.77795">
        <ele>232.96</ele>
        <time>2020-01-12T10:18:53.001Z</time>
      </trkpt>
      <trkpt lat="49.16739" lon="6.77816">
        <ele>232.17</ele>
        <time>2020-01-12T10:19:03.001Z</time>
      </trkpt>
      <trkpt lat="49.16744" lon="6.77837">
        <ele>231.4</ele>
        <time>2020-01-12T10:19:13.001Z</time>
      </trkpt>
      <trkpt lat="49.16748" lon="6.7786">
        <ele>231.19</ele>
        <time>2020-01-12T10:19:23.001Z</time>
      </trkpt>
      <trkpt lat="49.16751" lon="6.77883">
        <ele>228.94</ele>
        <time>2020-01-12T10:19:33.001Z</time>
      </trkpt>
      <trkpt lat="49.16753" lon="6.77898">
        <ele>222.66</ele>
        <time>2020-01-12T10:19:43.001Z</time>
      </trkpt>
      <trkpt lat="49.16751" lon="6.77906">
        <ele>221.39</ele>
        <time>2020-01-12T10:19:53.001Z</time>
      </trkpt>
      <trkpt lat="49.16751" lon="6.77917">
        <ele>221.59</ele>
        <time>2020-01-12T10:20:03.001Z</time>
      </trkpt>
      <trkpt lat="49.16748" lon="6.77941">
        <ele>221.86</ele>
        <time>2020-01-12T10:20:13.001Z</time>
      </trkpt>
      <trkpt lat="49.16746" lon="6.7797">
        <ele>219.76</ele>
        <time>2020-01-12T10:20:23.001Z</time>
      </trkpt>
      <trkpt lat="49.16746" lon="6.77991">
        <ele>217.87</ele>
        <time>2020-01-12T10:20:33.001Z</time>
      </trkpt>
      <trkpt lat="49.16748" lon="6.78005">
        <ele>217.58</ele>
        <time>2020-01-12T10:20:43.001Z</time>
      </trkpt>
      <trkpt lat="49.1676" lon="6.78019">
        <ele>217.65</ele>
        <time>2020-01-12T10:20:53.001Z</time>
      </trkpt>
      <trkpt lat="49.16767" lon="6.78054">
        <ele>216.99</ele>
        <time>2020-01-12T10:21:03.001Z</time>
      </trkpt>
      <trkpt lat="49.16766" lon="6.78086">
        <ele>219.94</ele>
        <time>2020-01-12T10:21:13.001Z</time>
      </trkpt>
      <trkpt lat="49.16763" lon="6.78112">
        <ele>221.05</ele>
        <time>2020-01-12T10:21:23.001Z</time>
      </trkpt>
      <trkpt lat="49.16761" lon="6.78135">
        <ele>223.74</ele>
        <time>2020-01-12T10:21:33.001Z</time>
      </trkpt>
      <trkpt lat="49.16761" lon="6.78159">
        <ele>226.63</ele>
        <time>2020-01-12T10:21:43.001Z</time>
      </trkpt>
      <trkpt lat="49.16752" lon="6.78172">
        <ele>225.42</ele>
        <time>2020-01-12T10:21:53.001Z</time>
      </trkpt>
      <trkpt lat="49.16743" lon="6.78181">
        <ele>225.54</ele>
        <time>2020-01-12T10:22:03.001Z</time>
      </trkpt>
      <trkpt lat="49.16735" lon="6.78185">
        <ele>225.98</ele>
        <time>2020-01-12T10:22:13.001Z</time>
      </trkpt>
      <trkpt lat="49.16727" lon="6.78203">
        <ele>225.62</ele>
        <time>2020-01-12T10:22:23.001Z</time>
      </trkpt>
      <trkpt lat="49.16724" lon="6.78229">
        <ele>223.47</ele>
        <time>2020-01-12T10:22:33.001Z</time>
      </trkpt>
      <trkpt lat="49.16724" lon="6.78254">
        <ele>223.4</ele>
        <time>2020-01-12T10:22:43.001Z</time>
      </trkpt>
      <trkpt lat="49.1672" lon="6.78279">
        <ele>223.22</ele>
        <time>2020-01-12T10:22:53.001Z</time>
      </trkpt>
      <trkpt lat="49.16717" lon="6.78306">
        <ele>222.57</ele>
        <time>2020-01-12T10:23:03.001Z</time>
      </trkpt>
      <trkpt lat="49.16711" lon="6.78318">
        <ele>219.41</ele>
        <time>2020-01-12T10:23:13.001Z</time>
      </trkpt>
      <trkpt lat="49.16703" lon="6.78342">
        <ele>217.8</ele>
        <time>2020-01-12T10:23:23.001Z</time>
      </trkpt>
      <trkpt lat="49.16701" lon="6.78365">
        <ele>218.18</ele>
        <time>2020-01-12T10:23:33.001Z</time>
      </trkpt>
      <trkpt lat="49.16702" lon="6.7839">
        <ele>220.01</ele>
        <time>2020-01-12T10:23:43.001Z</time>
      </trkpt>
      <trkpt lat="49.16697" lon="6.78422">
        <ele>220.19</ele>
        <time>2020-01-12T10:23:53.001Z</time>
      </trkpt>
      <trkpt lat="49.16693" lon="6.78449">
        <ele>221.12</ele>
        <time>2020-01-12T10:24:03.001Z</time>
      </trkpt>
      <trkpt lat="49.1669" lon="6.78474">
        <ele>221.95</ele>
        <time>2020-01-12T10:24:13.001Z</time>
      </trkpt>
      <trkpt lat="49.16684" lon="6.78497">
        <ele>221.09</ele>
        <time>2020-01-12T10:24:23.001Z</time>
      </trkpt>
      <trkpt lat="49.16676" lon="6.78516">
        <ele>222.29</ele>
        <time>2020-01-12T10:24:33.001Z</time>
      </trkpt>
      <trkpt lat="49.16663" lon="6.78531">
        <ele>223.82</ele>
        <time>2020-01-12T10:24:43.001Z</time>
      </trkpt>
      <trkpt lat="49.16648" lon="6.78546">
        <ele>226.11</ele>
        <time>2020-01-12T10:24:53.001Z</time>
      </trkpt>
      <trkpt lat="49.16633" lon="6.78559">
        <ele>224.39</ele>
        <time>2020-01-12T10:25:03.001Z</time>
      </trkpt>
      <trkpt lat="49.16623" lon="6.78578">
        <ele>222.91</ele>
        <time>2020-01-12T10:25:13.001Z</time>
      </trkpt>
      <trkpt lat="49.16614" lon="6.78599">
        <ele>222.26</ele>
        <time>2020-01-12T10:25:23.001Z</time>
      </trkpt>
      <trkpt lat="49.16605" lon="6.78617">
        <ele>221.45</ele>
        <time>2020-01-12T10:25:33.001Z</time>
      </trkpt>
      <trkpt lat="49.16594" lon="6.78633">
        <ele>223.01</ele>
        <time>2020-01-12T10:25:43.001Z</time>
      </trkpt>
      <trkpt lat="49.16578" lon="6.78641">
        <ele>222.55</ele>
        <time>2020-01-12T10:25:53.001Z</time>
      </trkpt>
      <trkpt lat="49.16564" lon="6.78645">
        <ele>222.35</ele>
        <time>2020-01-12T10:26:03.001Z</time>
      </trkpt>
      <trkpt lat="49.16549" lon="6.78647">
        <ele>220.7</ele>
        <time>2020-01-12T10:26:13.001Z</time>
      </trkpt>
      <trkpt lat="49.16536" lon="6.78647">
        <ele>220.04</ele>
        <time>2020-01-12T10:26:23.001Z</time>
      </trkpt>
      <trkpt lat="49.16524" lon="6.78646">
        <ele>219.53</ele>
        <time>2020-01-12T10:26:33.001Z</time>
      </trkpt>
      <trkpt lat="49.16514" lon="6.78641">
        <ele>219.39</ele>
        <time>2020-01-12T10:26:43.001Z</time>
      </trkpt>
      <trkpt lat="49.16501" lon="6.78637">
        <ele>220.37</ele>
        <time>2020-01-12T10:26:53.001Z</time>
      </trkpt>
      <trkpt lat="49.16488" lon="6.78633">
        <ele>220.28</ele>
        <time>2020-01-12T10:27:03.001Z</time>
      </trkpt>
      <trkpt lat="49.16474" lon="6.78625">
        <ele>219.82</ele>
        <time>2020-01-12T10:27:13.001Z</time>
      </trkpt>
      <trkpt lat="49.16461" lon="6.78617">
        <ele>220.31</ele>
        <time>2020-01-12T10:27:23.001Z</time>
      </trkpt>
      <trkpt lat="49.16449" lon="6.78609">
        <ele>219.57</ele>
        <time>2020-01-12T10:27:33.001Z</time>
      </trkpt>
      <trkpt lat="49.16436" lon="6.78601">
        <ele>219.78</ele>
        <time>2020-01-12T10:27:43.001Z</time>
      </trkpt>
      <trkpt lat="49.16424" lon="6.7859">
        <ele>219.78</ele>
        <time>2020-01-12T10:27:53.001Z</time>
      </trkpt>
      <trkpt lat="49.16415" lon="6.78577">
        <ele>217.93</ele>
        <time>2020-01-12T10:28:03.001Z</time>
      </trkpt>
      <trkpt lat="49.16404" lon="6.78564">
        <ele>218.12</ele>
        <time>2020-01-12T10:28:13.001Z</time>
      </trkpt>
      <trkpt lat="49.16395" lon="6.78549">
        <ele>217.39</ele>
        <time>2020-01-12T10:28:23.001Z</time>
      </trkpt>
      <trkpt lat="49.16381" lon="6.78536">
        <ele>217.24</ele>
        <time>2020-01-12T10:28:33.001Z</time>
      </trkpt>
      <trkpt lat="49.1637" lon="6.78525">
        <ele>218.69</ele>
        <time>2020-01-12T10:28:43.001Z</time>
      </trkpt>
      <trkpt lat="49.16358" lon="6.78514">
        <ele>218.75</ele>
        <time>2020-01-12T10:28:53.001Z</time>
      </trkpt>
      <trkpt lat="49.16346" lon="6.78505">
        <ele>219.33</ele>
        <time>2020-01-12T10:29:03.001Z</time>
      </trkpt>
      <trkpt lat="49.16335" lon="6.78494">
        <ele>220.93</ele>
        <time>2020-01-12T10:29:13.001Z</time>
      </trkpt>
      <trkpt lat="49.16324" lon="6.78492">
        <ele>219.89</ele>
        <time>2020-01-12T10:29:23.001Z</time>
      </trkpt>
      <trkpt lat="49.16314" lon="6.78504">
        <ele>219.79</ele>
        <time>2020-01-12T10:29:33.001Z</time>
      </trkpt>
      <trkpt lat="49.16306" lon="6.78517">
        <ele>219.75</ele>
        <time>2020-01-12T10:29:43.001Z</time>
      </trkpt>
      <trkpt lat="49.16301" lon="6.7853">
        <ele>219.6</ele>
        <time>2020-01-12T10:29:53.001Z</time>
      </trkpt>
      <trkpt lat="49.16294" lon="6.78548">
        <ele>218.75</ele>
        <time>2020-01-12T10:30:03.001Z</time>
      </trkpt>
      <trkpt lat="49.16287" lon="6.78565">
        <ele>218.87</ele>
        <time>2020-01-12T10:30:13.001Z</time>
      </trkpt>
      <trkpt lat="49.1628" lon="6.7858">
        <ele>218.31</ele>
        <time>2020-01-12T10:30:23.001Z</time>
      </trkpt>
      <trkpt lat="49.16276" lon="6.78599">
        <ele>218.27</ele>
        <time>2020-01-12T10:30:33.001Z</time>
      </trkpt>
      <trkpt lat="49.16266" lon="6.78618">
        <ele>218.55</ele>
        <time>2020-01-12T10:30:43.001Z</time>
      </trkpt>
      <trkpt lat="49.16256" lon="6.78637">
        <ele>218.67</ele>
        <time>2020-01-12T10:30:53.001Z</time>
      </trkpt>
      <trkpt lat="49.16248" lon="6.78656">
        <ele>218.6</ele>
        <time>2020-01-12T10:31:03.001Z</time>
      </trkpt>
      <trkpt lat="49.16241" lon="6.78674">
        <ele>218.28</ele>
        <time>2020-01-12T10:31:13.001Z</time>
      </trkpt>
      <trkpt lat="49.16231" lon="6.78689">
        <ele>217.06</ele>
        <time>2020-01-12T10:31:23.001Z</time>
      </trkpt>
      <trkpt lat="49.1622" lon="6.78699">
        <ele>216.75</ele>
        <time>2020-01-12T10:31:33.001Z</time>
      </trkpt>
      <trkpt lat="49.16209" lon="6.78712">
        <ele>216.99</ele>
        <time>2020-01-12T10:31:43.001Z</time>
      </trkpt>
      <trkpt lat="49.16198" lon="6.78725">
        <ele>219.07</ele>
        <time>2020-01-12T10:31:53.001Z</time>
      </trkpt>
      <trkpt lat="49.16185" lon="6.78739">
        <ele>221.09</ele>
        <time>2020-01-12T10:32:03.001Z</time>
      </trkpt>
      <trkpt lat="49.16174" lon="6.78751">
        <ele>221.49</ele>
        <time>2020-01-12T10:32:13.001Z</time>
      </trkpt>
      <trkpt lat="49.16162" lon="6.78765">
        <ele>222.48</ele>
        <time>2020-01-12T10:32:23.001Z</time>
      </trkpt>
      <trkpt lat="49.16154" lon="6.78777">
        <ele>222.24</ele>
        <time>2020-01-12T10:32:33.001Z</time>
      </trkpt>
      <trkpt lat="49.16145" lon="6.78791">
        <ele>223.61</ele>
        <time>2020-01-12T10:32:43.001Z</time>
      </trkpt>
      <trkpt lat="49.16137" lon="6.78807">
        <ele>224.36</ele>
        <time>2020-01-12T10:32:53.001Z</time>
      </trkpt>
      <trkpt lat="49.16129" lon="6.78825">
        <ele>225.24</ele>
        <time>2020-01-12T10:33:03.001Z</time>
      </trkpt>
      <trkpt lat="49.16121" lon="6.78843">
        <ele>225.7</ele>
        <time>2020-01-12T10:33:13.001Z</time>
      </trkpt>
      <trkpt lat="49.16115" lon="6.78861">
        <ele>224.29</ele>
        <time>2020-01-12T10:33:23.001Z</time>
      </trkpt>
      <trkpt lat="49.16107" lon="6.78879">
        <ele>224.85</ele>
        <time>2020-01-12T10:33:33.001Z</time>
      </trkpt>
      <trkpt lat="49.16097" lon="6.78896">
        <ele>224.32</ele>
        <time>2020-01-12T10:33:43.001Z</time>
      </trkpt>
      <trkpt lat="49.16088" lon="6.78915">
        <ele>222.92</ele>
        <time>2020-01-12T10:33:53.001Z</time>
      </trkpt>
      <trkpt lat="49.1608" lon="6.78931">
        <ele>222.55</ele>
        <time>2020-01-12T10:34:03.001Z</time>
      </trkpt>
      <trkpt lat="49.16073" lon="6.78948">
        <ele>223.09</ele>
        <time>2020-01-12T10:34:13.001Z</time>
      </trkpt>
      <trkpt lat="49.16064" lon="6.78965">
        <ele>222.81</ele>
        <time>2020-01-12T10:34:23.001Z</time>
      </trkpt>
      <trkpt lat="49.16056" lon="6.78982">
        <ele>223.3</ele>
        <time>2020-01-12T10:34:33.001Z</time>
      </trkpt>
      <trkpt lat="49.16046" lon="6.79001">
        <ele>223.9</ele>
        <time>2020-01-12T10:34:43.001Z</time>
      </trkpt>
      <trkpt lat="49.16037" lon="6.79017">
        <ele>222.12</ele>
        <time>2020-01-12T10:34:53.001Z</time>
      </trkpt>
      <trkpt lat="49.16028" lon="6.79033">
        <ele>223.47</ele>
        <time>2020-01-12T10:35:03.001Z</time>
      </trkpt>
      <trkpt lat="49.16018" lon="6.79052">
        <ele>223.99</ele>
        <time>2020-01-12T10:35:13.001Z</time>
      </trkpt>
      <trkpt lat="49.16011" lon="6.7907">
        <ele>224.71</ele>
        <time>2020-01-12T10:35:23.001Z</time>
      </trkpt>
      <trkpt lat="49.16003" lon="6.79088">
        <ele>222.79</ele>
        <time>2020-01-12T10:35:33.001Z</time>
      </trkpt>
      <trkpt lat="49.15996" lon="6.79105">
        <ele>222.98</ele>
        <time>2020-01-12T10:35:43.001Z</time>
      </trkpt>
      <trkpt lat="49.15987" lon="6.79125">
        <ele>223.68</ele>
        <time>2020-01-12T10:35:53.001Z</time>
      </trkpt>
      <trkpt lat="49.1598" lon="6.79143">
        <ele>224.36</ele>
        <time>2020-01-12T10:36:03.001Z</time>
      </trkpt>
      <trkpt lat="49.1597" lon="6.79161">
        <ele>225.18</ele>
        <time>2020-01-12T10:36:13.001Z</time>
      </trkpt>
      <trkpt lat="49.15964" lon="6.79176">
        <ele>223.06</ele>
        <time>2020-01-12T10:36:23.001Z</time>
      </trkpt>
      <trkpt lat="49.15957" lon="6.79195">
        <ele>222.32</ele>
        <time>2020-01-12T10:36:33.001Z</time>
      </trkpt>
      <trkpt lat="49.15949" lon="6.79214">
        <ele>222.34</ele>
        <time>2020-01-12T10:36:43.001Z</time>
      </trkpt>
      <trkpt lat="49.15943" lon="6.79236">
        <ele>222.15</ele>
        <time>2020-01-12T10:36:53.001Z</time>
      </trkpt>
      <trkpt lat="49.15937" lon="6.79257">
        <ele>220.33</ele>
        <time>2020-01-12T10:37:03.001Z</time>
      </trkpt>
      <trkpt lat="49.15931" lon="6.79274">
        <ele>219.88</ele>
        <time>2020-01-12T10:37:13.001Z</time>
      </trkpt>
      <trkpt lat="49.15924" lon="6.79293">
        <ele>220.71</ele>
        <time>2020-01-12T10:37:23.001Z</time>
      </trkpt>
      <trkpt lat="49.15918" lon="6.79313">
        <ele>220.18</ele>
        <time>2020-01-12T10:37:33.001Z</time>
      </trkpt>
      <trkpt lat="49.1591" lon="6.79333">
        <ele>220.63</ele>
        <time>2020-01-12T10:37:43.001Z</time>
      </trkpt>
      <trkpt lat="49.15902" lon="6.79351">
        <ele>220.6</ele>
        <time>2020-01-12T10:37:53.001Z</time>
      </trkpt>
      <trkpt lat="49.15896" lon="6.79367">
        <ele>222.07</ele>
        <time>2020-01-12T10:38:03.001Z</time>
      </trkpt>
      <trkpt lat="49.15891" lon="6.79378">
        <ele>221.32</ele>
        <time>2020-01-12T10:38:13.001Z</time>
      </trkpt>
      <trkpt lat="49.15892" lon="6.7938">
        <ele>221.32</ele>
        <time>2020-01-12T10:38:23.001Z</time>
      </trkpt>
      <trkpt lat="49.15889" lon="6.79388">
        <ele>220.01</ele>
        <time>2020-01-12T10:38:33.001Z</time>
      </trkpt>
      <trkpt lat="49.15888" lon="6.79407">
        <ele>219.35</ele>
        <time>2020-01-12T10:38:43.001Z</time>
      </trkpt>
      <trkpt lat="49.15894" lon="6.79425">
        <ele>217.12</ele>
        <time>2020-01-12T10:38:53.001Z</time>
      </trkpt>
      <trkpt lat="49.15899" lon="6.79443">
        <ele>216.21</ele>
        <time>2020-01-12T10:39:03.001Z</time>
      </trkpt>
      <trkpt lat="49.15902" lon="6.79464">
        <ele>217.06</ele>
        <time>2020-01-12T10:39:13.001Z</time>
      </trkpt>
      <trkpt lat="49.159" lon="6.79486">
        <ele>216.89</ele>
        <time>2020-01-12T10:39:23.001Z</time>
      </trkpt>
      <trkpt lat="49.15899" lon="6.79507">
        <ele>217.12</ele>
        <time>2020-01-12T10:39:33.001Z</time>
      </trkpt>
      <trkpt lat="49.15897" lon="6.79527">
        <ele>216.11</ele>
        <time>2020-01-12T10:39:43.001Z</time>
      </trkpt>
      <trkpt lat="49.15899" lon="6.79547">
        <ele>216.99</ele>
        <time>2020-01-12T10:39:53.001Z</time>
      </trkpt>
      <trkpt lat="49.15907" lon="6.79563">
        <ele>215.7</ele>
        <time>2020-01-12T10:40:03.001Z</time>
      </trkpt>
      <trkpt lat="49.15913" lon="6.79583">
        <ele>214.73</ele>
        <time>2020-01-12T10:40:13.001Z</time>
      </trkpt>
      <trkpt lat="49.15913" lon="6.79603">
        <ele>215.09</ele>
        <time>2020-01-12T10:40:23.001Z</time>
      </trkpt>
      <trkpt lat="49.1591" lon="6.79622">
        <ele>215.82</ele>
        <time>2020-01-12T10:40:33.001Z</time>
      </trkpt>
      <trkpt lat="49.15906" lon="6.79639">
        <ele>218.86</ele>
        <time>2020-01-12T10:40:43.001Z</time>
      </trkpt>
      <trkpt lat="49.15902" lon="6.79657">
        <ele>221.73</ele>
        <time>2020-01-12T10:40:53.001Z</time>
      </trkpt>
      <trkpt lat="49.15895" lon="6.79675">
        <ele>224.52</ele>
        <time>2020-01-12T10:41:03.001Z</time>
      </trkpt>
      <trkpt lat="49.15888" lon="6.79691">
        <ele>225.75</ele>
        <time>2020-01-12T10:41:13.001Z</time>
      </trkpt>
      <trkpt lat="49.1588" lon="6.79707">
        <ele>226.18</ele>
        <time>2020-01-12T10:41:23.001Z</time>
      </trkpt>
      <trkpt lat="49.15873" lon="6.79721">
        <ele>227.38</ele>
        <time>2020-01-12T10:41:33.001Z</time>
      </trkpt>
      <trkpt lat="49.15867" lon="6.79734">
        <ele>229.08</ele>
        <time>2020-01-12T10:41:43.001Z</time>
      </trkpt>
      <trkpt lat="49.15861" lon="6.79748">
        <ele>231.53</ele>
        <time>2020-01-12T10:41:53.001Z</time>
      </trkpt>
      <trkpt lat="49.15855" lon="6.7976">
        <ele>233</ele>
        <time>2020-01-12T10:42:03.001Z</time>
      </trkpt>
      <trkpt lat="49.15848" lon="6.79773">
        <ele>235.54</ele>
        <time>2020-01-12T10:42:13.001Z</time>
      </trkpt>
      <trkpt lat="49.15841" lon="6.79785">
        <ele>236.7</ele>
        <time>2020-01-12T10:42:23.001Z</time>
      </trkpt>
      <trkpt lat="49.15836" lon="6.79795">
        <ele>238.66</ele>
        <time>2020-01-12T10:42:33.001Z</time>
      </trkpt>
      <trkpt lat="49.1583" lon="6.79808">
        <ele>240.37</ele>
        <time>2020-01-12T10:42:43.001Z</time>
      </trkpt>
      <trkpt lat="49.15825" lon="6.79822">
        <ele>242.2</ele>
        <time>2020-01-12T10:42:53.001Z</time>
      </trkpt>
      <trkpt lat="49.1582" lon="6.79838">
        <ele>244.02</ele>
        <time>2020-01-12T10:43:03.001Z</time>
      </trkpt>
      <trkpt lat="49.15818" lon="6.79854">
        <ele>244.75</ele>
        <time>2020-01-12T10:43:13.001Z</time>
      </trkpt>
      <trkpt lat="49.15817" lon="6.79868">
        <ele>245.5</ele>
        <time>2020-01-12T10:43:23.001Z</time>
      </trkpt>
      <trkpt lat="49.15819" lon="6.7988">
        <ele>245.25</ele>
        <time>2020-01-12T10:43:33.001Z</time>
      </trkpt>
      <trkpt lat="49.15821" lon="6.79877">
        <ele>245.25</ele>
        <time>2020-01-12T10:43:43.001Z</time>
      </trkpt>
      <trkpt lat="49.15811" lon="6.79882">
        <ele>244.83</ele>
        <time>2020-01-12T10:43:53.001Z</time>
      </trkpt>
      <trkpt lat="49.15807" lon="6.79896">
        <ele>244.99</ele>
        <time>2020-01-12T10:44:03.001Z</time>
      </trkpt>
      <trkpt lat="49.15805" lon="6.79902">
        <ele>244.84</ele>
        <time>2020-01-12T10:44:13.001Z</time>
      </trkpt>
      <trkpt lat="49.15804" lon="6.79906">
        <ele>245.13</ele>
        <time>2020-01-12T10:45:41.001Z</time>
      </trkpt>
      <trkpt lat="49.15804" lon="6.79915">
        <ele>245.66</ele>
        <time>2020-01-12T10:45:51.001Z</time>
      </trkpt>
      <trkpt lat="49.158" lon="6.79922">
        <ele>245.48</ele>
        <time>2020-01-12T10:46:01.001Z</time>
      </trkpt>
      <trkpt lat="49.15799" lon="6.79926">
        <ele>246.55</ele>
        <time>2020-01-12T10:46:11.001Z</time>
      </trkpt>
      <trkpt lat="49.15795" lon="6.7994">
        <ele>247.29</ele>
        <time>2020-01-12T10:46:21.001Z</time>
      </trkpt>
      <trkpt lat="49.15792" lon="6.79955">
        <ele>249.26</ele>
        <time>2020-01-12T10:46:31.001Z</time>
      </trkpt>
      <trkpt lat="49.15793" lon="6.79974">
        <ele>252.22</ele>
        <time>2020-01-12T10:46:41.001Z</time>
      </trkpt>
      <trkpt lat="49.15796" lon="6.79992">
        <ele>255.32</ele>
        <time>2020-01-12T10:46:51.001Z</time>
      </trkpt>
      <trkpt lat="49.15799" lon="6.8001">
        <ele>257.32</ele>
        <time>2020-01-12T10:47:01.001Z</time>
      </trkpt>
      <trkpt lat="49.15799" lon="6.80027">
        <ele>259.6</ele>
        <time>2020-01-12T10:47:11.001Z</time>
      </trkpt>
      <trkpt lat="49.15797" lon="6.80049">
        <ele>260.97</ele>
        <time>2020-01-12T10:47:21.001Z</time>
      </trkpt>
      <trkpt lat="49.1579" lon="6.80067">
        <ele>261.88</ele>
        <time>2020-01-12T10:47:31.001Z</time>
      </trkpt>
      <trkpt lat="49.15787" lon="6.80085">
        <ele>263.93</ele>
        <time>2020-01-12T10:47:41.001Z</time>
      </trkpt>
      <trkpt lat="49.15788" lon="6.80104">
        <ele>263.33</ele>
        <time>2020-01-12T10:47:51.001Z</time>
      </trkpt>
      <trkpt lat="49.15785" lon="6.80121">
        <ele>262.39</ele>
        <time>2020-01-12T10:48:01.001Z</time>
      </trkpt>
      <trkpt lat="49.15785" lon="6.80137">
        <ele>262.06</ele>
        <time>2020-01-12T10:48:11.001Z</time>
      </trkpt>
      <trkpt lat="49.15785" lon="6.8015">
        <ele>263.74</ele>
        <time>2020-01-12T10:48:21.001Z</time>
      </trkpt>
      <trkpt lat="49.15782" lon="6.80162">
        <ele>266.67</ele>
        <time>2020-01-12T10:48:31.001Z</time>
      </trkpt>
      <trkpt lat="49.15777" lon="6.80179">
        <ele>269.42</ele>
        <time>2020-01-12T10:48:41.001Z</time>
      </trkpt>
      <trkpt lat="49.15768" lon="6.80192">
        <ele>270.86</ele>
        <time>2020-01-12T10:48:51.001Z</time>
      </trkpt>
      <trkpt lat="49.15753" lon="6.80211">
        <ele>269.58</ele>
        <time>2020-01-12T10:49:01.001Z</time>
      </trkpt>
      <trkpt lat="49.1574" lon="6.80231">
        <ele>270.45</ele>
        <time>2020-01-12T10:49:11.001Z</time>
      </trkpt>
      <trkpt lat="49.15733" lon="6.80242">
        <ele>275.39</ele>
        <time>2020-01-12T10:49:21.001Z</time>
      </trkpt>
      <trkpt lat="49.15727" lon="6.80249">
        <ele>276.41</ele>
        <time>2020-01-12T10:49:31.001Z</time>
      </trkpt>
      <trkpt lat="49.15723" lon="6.80259">
        <ele>275.15</ele>
        <time>2020-01-12T10:49:41.001Z</time>
      </trkpt>
      <trkpt lat="49.15719" lon="6.80271">
        <ele>273.59</ele>
        <time>2020-01-12T10:49:51.001Z</time>
      </trkpt>
      <trkpt lat="49.15715" lon="6.80286">
        <ele>274.78</ele>
        <time>2020-01-12T10:50:01.001Z</time>
      </trkpt>
      <trkpt lat="49.15708" lon="6.80302">
        <ele>277.27</ele>
        <time>2020-01-12T10:50:11.001Z</time>
      </trkpt>
      <trkpt lat="49.15701" lon="6.80319">
        <ele>279.49</ele>
        <time>2020-01-12T10:50:21.001Z</time>
      </trkpt>
      <trkpt lat="49.15694" lon="6.80337">
        <ele>279.66</ele>
        <time>2020-01-12T10:50:31.001Z</time>
      </trkpt>
      <trkpt lat="49.15685" lon="6.80356">
        <ele>281.49</ele>
        <time>2020-01-12T10:50:41.001Z</time>
      </trkpt>
      <trkpt lat="49.15675" lon="6.80375">
        <ele>279.46</ele>
        <time>2020-01-12T10:50:51.001Z</time>
      </trkpt>
      <trkpt lat="49.15664" lon="6.80392">
        <ele>278.05</ele>
        <time>2020-01-12T10:51:01.001Z</time>
      </trkpt>
      <trkpt lat="49.15654" lon="6.8041">
        <ele>278.65</ele>
        <time>2020-01-12T10:51:11.001Z</time>
      </trkpt>
      <trkpt lat="49.15646" lon="6.80426">
        <ele>277.1</ele>
        <time>2020-01-12T10:51:21.001Z</time>
      </trkpt>
      <trkpt lat="49.15639" lon="6.80442">
        <ele>278.96</ele>
        <time>2020-01-12T10:51:31.001Z</time>
      </trkpt>
      <trkpt lat="49.15635" lon="6.80458">
        <ele>282.52</ele>
        <time>2020-01-12T10:51:41.001Z</time>
      </trkpt>
      <trkpt lat="49.15629" lon="6.80473">
        <ele>283</ele>
        <time>2020-01-12T10:51:51.001Z</time>
      </trkpt>
      <trkpt lat="49.1562" lon="6.80486">
        <ele>282.79</ele>
        <time>2020-01-12T10:52:01.001Z</time>
      </trkpt>
      <trkpt lat="49.15622" lon="6.80499">
        <ele>281.41</ele>
        <time>2020-01-12T10:52:11.001Z</time>
      </trkpt>
      <trkpt lat="49.15626" lon="6.8051">
        <ele>279.74</ele>
        <time>2020-01-12T10:52:21.001Z</time>
      </trkpt>
      <trkpt lat="49.15627" lon="6.80529">
        <ele>282.5</ele>
        <time>2020-01-12T10:52:31.001Z</time>
      </trkpt>
      <trkpt lat="49.15635" lon="6.80542">
        <ele>285.38</ele>
        <time>2020-01-12T10:52:41.001Z</time>
      </trkpt>
      <trkpt lat="49.15645" lon="6.80553">
        <ele>286.33</ele>
        <time>2020-01-12T10:52:51.001Z</time>
      </trkpt>
      <trkpt lat="49.15654" lon="6.80566">
        <ele>288.66</ele>
        <time>2020-01-12T10:53:01.001Z</time>
      </trkpt>
      <trkpt lat="49.15662" lon="6.80584">
        <ele>289.11</ele>
        <time>2020-01-12T10:53:11.001Z</time>
      </trkpt>
      <trkpt lat="49.15672" lon="6.80599">
        <ele>288.3</ele>
        <time>2020-01-12T10:53:21.001Z</time>
      </trkpt>
      <trkpt lat="49.15683" lon="6.80616">
        <ele>286.52</ele>
        <time>2020-01-12T10:53:31.001Z</time>
      </trkpt>
      <trkpt lat="49.15694" lon="6.80631">
        <ele>287.27</ele>
        <time>2020-01-12T10:53:41.001Z</time>
      </trkpt>
      <trkpt lat="49.15701" lon="6.80649">
        <ele>289.74</ele>
        <time>2020-01-12T10:53:51.001Z</time>
      </trkpt>
      <trkpt lat="49.15707" lon="6.80663">
        <ele>292.05</ele>
        <time>2020-01-12T10:54:01.001Z</time>
      </trkpt>
      <trkpt lat="49.15715" lon="6.80679">
        <ele>294.17</ele>
        <time>2020-01-12T10:54:11.001Z</time>
      </trkpt>
      <trkpt lat="49.15722" lon="6.80692">
        <ele>295.99</ele>
        <time>2020-01-12T10:54:21.001Z</time>
      </trkpt>
      <trkpt lat="49.15732" lon="6.80708">
        <ele>295.78</ele>
        <time>2020-01-12T10:54:31.001Z</time>
      </trkpt>
      <trkpt lat="49.15741" lon="6.80726">
        <ele>297.05</ele>
        <time>2020-01-12T10:54:41.001Z</time>
      </trkpt>
      <trkpt lat="49.1575" lon="6.8074">
        <ele>296.5</ele>
        <time>2020-01-12T10:54:51.001Z</time>
      </trkpt>
      <trkpt lat="49.1576" lon="6.80756">
        <ele>295.33</ele>
        <time>2020-01-12T10:55:01.001Z</time>
      </trkpt>
      <trkpt lat="49.1577" lon="6.80768">
        <ele>292.55</ele>
        <time>2020-01-12T10:55:11.001Z</time>
      </trkpt>
      <trkpt lat="49.15781" lon="6.80784">
        <ele>289.89</ele>
        <time>2020-01-12T10:55:21.001Z</time>
      </trkpt>
      <trkpt lat="49.1579" lon="6.80804">
        <ele>288.38</ele>
        <time>2020-01-12T10:55:31.001Z</time>
      </trkpt>
      <trkpt lat="49.15798" lon="6.80827">
        <ele>286.26</ele>
        <time>2020-01-12T10:55:41.001Z</time>
      </trkpt>
      <trkpt lat="49.1581" lon="6.80842">
        <ele>288.77</ele>
        <time>2020-01-12T10:55:51.001Z</time>
      </trkpt>
      <trkpt lat="49.15817" lon="6.80864">
        <ele>289.92</ele>
        <time>2020-01-12T10:56:01.001Z</time>
      </trkpt>
      <trkpt lat="49.15821" lon="6.80889">
        <ele>290.67</ele>
        <time>2020-01-12T10:56:11.001Z</time>
      </trkpt>
      <trkpt lat="49.15826" lon="6.80911">
        <ele>290.82</ele>
        <time>2020-01-12T10:56:21.001Z</time>
      </trkpt>
      <trkpt lat="49.15832" lon="6.80929">
        <ele>290.1</ele>
        <time>2020-01-12T10:56:31.001Z</time>
      </trkpt>
      <trkpt lat="49.15837" lon="6.80946">
        <ele>289.9</ele>
        <time>2020-01-12T10:56:41.001Z</time>
      </trkpt>
      <trkpt lat="49.15844" lon="6.80953">
        <ele>289.74</ele>
        <time>2020-01-12T10:56:51.001Z</time>
      </trkpt>
      <trkpt lat="49.1584" lon="6.80968">
        <ele>290.8</ele>
        <time>2020-01-12T10:57:01.001Z</time>
      </trkpt>
      <trkpt lat="49.15837" lon="6.8099">
        <ele>293.45</ele>
        <time>2020-01-12T10:57:11.001Z</time>
      </trkpt>
      <trkpt lat="49.15837" lon="6.81013">
        <ele>294.65</ele>
        <time>2020-01-12T10:57:21.001Z</time>
      </trkpt>
      <trkpt lat="49.15836" lon="6.81036">
        <ele>296.28</ele>
        <time>2020-01-12T10:57:31.001Z</time>
      </trkpt>
      <trkpt lat="49.15833" lon="6.81057">
        <ele>297.35</ele>
        <time>2020-01-12T10:57:41.001Z</time>
      </trkpt>
      <trkpt lat="49.15829" lon="6.81078">
        <ele>295.7</ele>
        <time>2020-01-12T10:57:51.001Z</time>
      </trkpt>
      <trkpt lat="49.15827" lon="6.81101">
        <ele>295.76</ele>
        <time>2020-01-12T10:58:01.001Z</time>
      </trkpt>
      <trkpt lat="49.15823" lon="6.81121">
        <ele>294.01</ele>
        <time>2020-01-12T10:58:11.001Z</time>
      </trkpt>
      <trkpt lat="49.15821" lon="6.81138">
        <ele>293.03</ele>
        <time>2020-01-12T10:58:21.001Z</time>
      </trkpt>
      <trkpt lat="49.15825" lon="6.81154">
        <ele>293.35</ele>
        <time>2020-01-12T10:58:31.001Z</time>
      </trkpt>
      <trkpt lat="49.1583" lon="6.81167">
        <ele>294.96</ele>
        <time>2020-01-12T10:58:41.001Z</time>
      </trkpt>
      <trkpt lat="49.15834" lon="6.81185">
        <ele>293.32</ele>
        <time>2020-01-12T10:58:51.001Z</time>
      </trkpt>
      <trkpt lat="49.15839" lon="6.81202">
        <ele>292.16</ele>
        <time>2020-01-12T10:59:01.001Z</time>
      </trkpt>
      <trkpt lat="49.15846" lon="6.81221">
        <ele>292.42</ele>
        <time>2020-01-12T10:59:11.001Z</time>
      </trkpt>
      <trkpt lat="49.15853" lon="6.81234">
        <ele>291.11</ele>
        <time>2020-01-12T10:59:21.001Z</time>
      </trkpt>
      <trkpt lat="49.15861" lon="6.81249">
        <ele>288.72</ele>
        <time>2020-01-12T10:59:31.001Z</time>
      </trkpt>
      <trkpt lat="49.15871" lon="6.81264">
        <ele>287.89</ele>
        <time>2020-01-12T10:59:41.001Z</time>
      </trkpt>
      <trkpt lat="49.15882" lon="6.81279">
        <ele>286.42</ele>
        <time>2020-01-12T10:59:51.001Z</time>
      </trkpt>
      <trkpt lat="49.15891" lon="6.81292">
        <ele>287.53</ele>
        <time>2020-01-12T11:00:01.001Z</time>
      </trkpt>
      <trkpt lat="49.159" lon="6.81307">
        <ele>286.68</ele>
        <time>2020-01-12T11:00:11.001Z</time>
      </trkpt>
      <trkpt lat="49.15909" lon="6.81324">
        <ele>285.07</ele>
        <time>2020-01-12T11:00:21.001Z</time>
      </trkpt>
      <trkpt lat="49.15918" lon="6.81341">
        <ele>283.43</ele>
        <time>2020-01-12T11:00:31.001Z</time>
      </trkpt>
      <trkpt lat="49.15929" lon="6.8136">
        <ele>281.88</ele>
        <time>2020-01-12T11:00:41.001Z</time>
      </trkpt>
      <trkpt lat="49.15937" lon="6.81378">
        <ele>278.35</ele>
        <time>2020-01-12T11:00:51.001Z</time>
      </trkpt>
      <trkpt lat="49.15944" lon="6.81395">
        <ele>277.22</ele>
        <time>2020-01-12T11:01:01.001Z</time>
      </trkpt>
      <trkpt lat="49.15954" lon="6.81406">
        <ele>277.38</ele>
        <time>2020-01-12T11:01:11.001Z</time>
      </trkpt>
      <trkpt lat="49.15965" lon="6.81418">
        <ele>278.68</ele>
        <time>2020-01-12T11:01:21.001Z</time>
      </trkpt>
      <trkpt lat="49.15974" lon="6.8143">
        <ele>279.21</ele>
        <time>2020-01-12T11:01:31.001Z</time>
      </trkpt>
      <trkpt lat="49.15985" lon="6.81441">
        <ele>279.36</ele>
        <time>2020-01-12T11:01:41.001Z</time>
      </trkpt>
      <trkpt lat="49.15995" lon="6.81453">
        <ele>283.17</ele>
        <time>2020-01-12T11:01:51.001Z</time>
      </trkpt>
      <trkpt lat="49.16006" lon="6.81471">
        <ele>285.6</ele>
        <time>2020-01-12T11:02:01.001Z</time>
      </trkpt>
      <trkpt lat="49.16015" lon="6.81483">
        <ele>285.72</ele>
        <time>2020-01-12T11:02:11.001Z</time>
      </trkpt>
      <trkpt lat="49.16027" lon="6.81499">
        <ele>285.09</ele>
        <time>2020-01-12T11:02:21.001Z</time>
      </trkpt>
      <trkpt lat="49.16037" lon="6.81514">
        <ele>284.41</ele>
        <time>2020-01-12T11:02:31.001Z</time>
      </trkpt>
      <trkpt lat="49.16048" lon="6.81531">
        <ele>285.57</ele>
        <time>2020-01-12T11:02:41.001Z</time>
      </trkpt>
      <trkpt lat="49.1606" lon="6.81549">
        <ele>285.12</ele>
        <time>2020-01-12T11:02:51.001Z</time>
      </trkpt>
      <trkpt lat="49.16073" lon="6.8157">
        <ele>282.6</ele>
        <time>2020-01-12T11:03:01.001Z</time>
      </trkpt>
      <trkpt lat="49.16085" lon="6.81592">
        <ele>279.38</ele>
        <time>2020-01-12T11:03:11.001Z</time>
      </trkpt>
      <trkpt lat="49.16097" lon="6.81611">
        <ele>278.78</ele>
        <time>2020-01-12T11:03:21.001Z</time>
      </trkpt>
      <trkpt lat="49.16107" lon="6.81628">
        <ele>276.86</ele>
        <time>2020-01-12T11:03:31.001Z</time>
      </trkpt>
      <trkpt lat="49.16115" lon="6.81644">
        <ele>275.94</ele>
        <time>2020-01-12T11:03:41.001Z</time>
      </trkpt>
      <trkpt lat="49.16122" lon="6.8166">
        <ele>275.46</ele>
        <time>2020-01-12T11:03:51.001Z</time>
      </trkpt>
      <trkpt lat="49.16128" lon="6.81677">
        <ele>271.62</ele>
        <time>2020-01-12T11:04:01.001Z</time>
      </trkpt>
      <trkpt lat="49.16135" lon="6.81695">
        <ele>270.68</ele>
        <time>2020-01-12T11:04:11.001Z</time>
      </trkpt>
      <trkpt lat="49.16141" lon="6.81714">
        <ele>270.47</ele>
        <time>2020-01-12T11:04:21.001Z</time>
      </trkpt>
      <trkpt lat="49.16149" lon="6.81733">
        <ele>270.25</ele>
        <time>2020-01-12T11:04:31.001Z</time>
      </trkpt>
      <trkpt lat="49.1616" lon="6.8175">
        <ele>269.74</ele>
        <time>2020-01-12T11:04:41.001Z</time>
      </trkpt>
      <trkpt lat="49.16171" lon="6.81765">
        <ele>268.69</ele>
        <time>2020-01-12T11:04:51.001Z</time>
      </trkpt>
      <trkpt lat="49.16181" lon="6.81764">
        <ele>266.81</ele>
        <time>2020-01-12T11:05:01.001Z</time>
      </trkpt>
      <trkpt lat="49.16183" lon="6.81759">
        <ele>262.03</ele>
        <time>2020-01-12T11:05:11.001Z</time>
      </trkpt>
      <trkpt lat="49.1619" lon="6.81752">
        <ele>263.16</ele>
        <time>2020-01-12T11:05:21.001Z</time>
      </trkpt>
      <trkpt lat="49.16199" lon="6.81748">
        <ele>268.89</ele>
        <time>2020-01-12T11:05:31.001Z</time>
      </trkpt>
      <trkpt lat="49.16209" lon="6.81747">
        <ele>272.29</ele>
        <time>2020-01-12T11:05:41.001Z</time>
      </trkpt>
      <trkpt lat="49.16219" lon="6.81745">
        <ele>271.98</ele>
        <time>2020-01-12T11:05:51.001Z</time>
      </trkpt>
      <trkpt lat="49.16229" lon="6.81737">
        <ele>273.02</ele>
        <time>2020-01-12T11:06:01.001Z</time>
      </trkpt>
      <trkpt lat="49.16228" lon="6.81736">
        <ele>273.02</ele>
        <time>2020-01-12T11:06:11.001Z</time>
      </trkpt>
      <trkpt lat="49.16232" lon="6.81737">
        <ele>272.14</ele>
        <time>2020-01-12T11:06:21.001Z</time>
      </trkpt>
      <trkpt lat="49.16243" lon="6.81727">
        <ele>272.83</ele>
        <time>2020-01-12T11:06:31.001Z</time>
      </trkpt>
      <trkpt lat="49.16255" lon="6.8172">
        <ele>274.02</ele>
        <time>2020-01-12T11:06:41.001Z</time>
      </trkpt>
      <trkpt lat="49.16272" lon="6.81719">
        <ele>274.24</ele>
        <time>2020-01-12T11:06:51.001Z</time>
      </trkpt>
      <trkpt lat="49.16287" lon="6.81724">
        <ele>275.76</ele>
        <time>2020-01-12T11:07:01.001Z</time>
      </trkpt>
      <trkpt lat="49.163" lon="6.81728">
        <ele>276.78</ele>
        <time>2020-01-12T11:07:11.001Z</time>
      </trkpt>
      <trkpt lat="49.16316" lon="6.81735">
        <ele>277.33</ele>
        <time>2020-01-12T11:07:21.001Z</time>
      </trkpt>
      <trkpt lat="49.1633" lon="6.8174">
        <ele>277.31</ele>
        <time>2020-01-12T11:07:31.001Z</time>
      </trkpt>
      <trkpt lat="49.16345" lon="6.81746">
        <ele>278.53</ele>
        <time>2020-01-12T11:07:41.001Z</time>
      </trkpt>
      <trkpt lat="49.16357" lon="6.81752">
        <ele>279.35</ele>
        <time>2020-01-12T11:07:51.001Z</time>
      </trkpt>
      <trkpt lat="49.16368" lon="6.81757">
        <ele>281.1</ele>
        <time>2020-01-12T11:08:01.001Z</time>
      </trkpt>
      <trkpt lat="49.16379" lon="6.81761">
        <ele>282.9</ele>
        <time>2020-01-12T11:08:11.001Z</time>
      </trkpt>
      <trkpt lat="49.16391" lon="6.81765">
        <ele>282.94</ele>
        <time>2020-01-12T11:08:21.001Z</time>
      </trkpt>
      <trkpt lat="49.16403" lon="6.81772">
        <ele>284.05</ele>
        <time>2020-01-12T11:08:31.001Z</time>
      </trkpt>
      <trkpt lat="49.16416" lon="6.81785">
        <ele>282.08</ele>
        <time>2020-01-12T11:08:41.001Z</time>
      </trkpt>
      <trkpt lat="49.1643" lon="6.81791">
        <ele>281.19</ele>
        <time>2020-01-12T11:08:51.001Z</time>
      </trkpt>
      <trkpt lat="49.16443" lon="6.81793">
        <ele>282.54</ele>
        <time>2020-01-12T11:09:01.001Z</time>
      </trkpt>
      <trkpt lat="49.16455" lon="6.8179">
        <ele>284.57</ele>
        <time>2020-01-12T11:09:11.001Z</time>
      </trkpt>
      <trkpt lat="49.16466" lon="6.81786">
        <ele>285.08</ele>
        <time>2020-01-12T11:09:21.001Z</time>
      </trkpt>
      <trkpt lat="49.16478" lon="6.81782">
        <ele>285.07</ele>
        <time>2020-01-12T11:09:31.001Z</time>
      </trkpt>
      <trkpt lat="49.16489" lon="6.81774">
        <ele>288.29</ele>
        <time>2020-01-12T11:09:41.001Z</time>
      </trkpt>
      <trkpt lat="49.165" lon="6.81767">
        <ele>288.14</ele>
        <time>2020-01-12T11:09:51.001Z</time>
      </trkpt>
      <trkpt lat="49.1651" lon="6.81762">
        <ele>287.12</ele>
        <time>2020-01-12T11:10:01.001Z</time>
      </trkpt>
      <trkpt lat="49.16521" lon="6.81755">
        <ele>288.32</ele>
        <time>2020-01-12T11:10:11.001Z</time>
      </trkpt>
      <trkpt lat="49.16531" lon="6.81744">
        <ele>288.72</ele>
        <time>2020-01-12T11:10:21.001Z</time>
      </trkpt>
      <trkpt lat="49.1654" lon="6.81732">
        <ele>289.67</ele>
        <time>2020-01-12T11:10:31.001Z</time>
      </trkpt>
      <trkpt lat="49.1655" lon="6.81722">
        <ele>291.75</ele>
        <time>2020-01-12T11:10:41.001Z</time>
      </trkpt>
      <trkpt lat="49.16562" lon="6.81712">
        <ele>291.93</ele>
        <time>2020-01-12T11:10:51.001Z</time>
      </trkpt>
      <trkpt lat="49.16572" lon="6.81705">
        <ele>291.29</ele>
        <time>2020-01-12T11:11:01.001Z</time>
      </trkpt>
      <trkpt lat="49.16576" lon="6.81695">
        <ele>287.94</ele>
        <time>2020-01-12T11:11:11.001Z</time>
      </trkpt>
      <trkpt lat="49.16582" lon="6.81687">
        <ele>285.85</ele>
        <time>2020-01-12T11:11:21.001Z</time>
      </trkpt>
      <trkpt lat="49.16595" lon="6.81685">
        <ele>284.77</ele>
        <time>2020-01-12T11:11:31.001Z</time>
      </trkpt>
      <trkpt lat="49.16619" lon="6.81696">
        <ele>285.26</ele>
        <time>2020-01-12T11:11:41.001Z</time>
      </trkpt>
      <trkpt lat="49.16632" lon="6.8171">
        <ele>286.25</ele>
        <time>2020-01-12T11:11:51.001Z</time>
      </trkpt>
      <trkpt lat="49.16636" lon="6.81714">
        <ele>283.89</ele>
        <time>2020-01-12T11:12:01.001Z</time>
      </trkpt>
      <trkpt lat="49.16641" lon="6.81716">
        <ele>281.86</ele>
        <time>2020-01-12T11:12:11.001Z</time>
      </trkpt>
      <trkpt lat="49.16648" lon="6.81716">
        <ele>281.22</ele>
        <time>2020-01-12T11:12:21.001Z</time>
      </trkpt>
      <trkpt lat="49.16662" lon="6.8172">
        <ele>279.17</ele>
        <time>2020-01-12T11:12:31.001Z</time>
      </trkpt>
      <trkpt lat="49.16677" lon="6.81727">
        <ele>277.41</ele>
        <time>2020-01-12T11:12:41.001Z</time>
      </trkpt>
      <trkpt lat="49.16686" lon="6.81732">
        <ele>276.88</ele>
        <time>2020-01-12T11:12:51.001Z</time>
      </trkpt>
      <trkpt lat="49.16698" lon="6.81744">
        <ele>276.8</ele>
        <time>2020-01-12T11:13:01.001Z</time>
      </trkpt>
      <trkpt lat="49.1671" lon="6.81755">
        <ele>277.93</ele>
        <time>2020-01-12T11:13:11.001Z</time>
      </trkpt>
      <trkpt lat="49.16721" lon="6.81765">
        <ele>279.03</ele>
        <time>2020-01-12T11:13:21.001Z</time>
      </trkpt>
      <trkpt lat="49.16731" lon="6.81771">
        <ele>278.15</ele>
        <time>2020-01-12T11:13:31.001Z</time>
      </trkpt>
      <trkpt lat="49.16736" lon="6.81762">
        <ele>277.18</ele>
        <time>2020-01-12T11:13:41.001Z</time>
      </trkpt>
      <trkpt lat="49.16743" lon="6.81758">
        <ele>274.84</ele>
        <time>2020-01-12T11:13:51.001Z</time>
      </trkpt>
      <trkpt lat="49.16745" lon="6.81759">
        <ele>274.55</ele>
        <time>2020-01-12T11:14:01.001Z</time>
      </trkpt>
      <trkpt lat="49.16755" lon="6.8176">
        <ele>274.13</ele>
        <time>2020-01-12T11:14:11.001Z</time>
      </trkpt>
      <trkpt lat="49.16772" lon="6.81759">
        <ele>273.48</ele>
        <time>2020-01-12T11:14:21.001Z</time>
      </trkpt>
      <trkpt lat="49.16781" lon="6.81757">
        <ele>271.95</ele>
        <time>2020-01-12T11:14:31.001Z</time>
      </trkpt>
      <trkpt lat="49.16795" lon="6.81757">
        <ele>269.81</ele>
        <time>2020-01-12T11:14:41.001Z</time>
      </trkpt>
      <trkpt lat="49.16802" lon="6.81756">
        <ele>269.81</ele>
        <time>2020-01-12T11:14:51.001Z</time>
      </trkpt>
      <trkpt lat="49.16809" lon="6.81754">
        <ele>268.17</ele>
        <time>2020-01-12T11:15:01.001Z</time>
      </trkpt>
      <trkpt lat="49.16817" lon="6.81758">
        <ele>266.47</ele>
        <time>2020-01-12T11:15:11.001Z</time>
      </trkpt>
      <trkpt lat="49.1683" lon="6.81774">
        <ele>264.06</ele>
        <time>2020-01-12T11:15:21.001Z</time>
      </trkpt>
      <trkpt lat="49.16852" lon="6.81784">
        <ele>259.04</ele>
        <time>2020-01-12T11:15:31.001Z</time>
      </trkpt>
      <trkpt lat="49.16868" lon="6.81788">
        <ele>257.04</ele>
        <time>2020-01-12T11:15:41.001Z</time>
      </trkpt>
      <trkpt lat="49.16878" lon="6.81791">
        <ele>253.1</ele>
        <time>2020-01-12T11:15:51.001Z</time>
      </trkpt>
      <trkpt lat="49.16888" lon="6.81798">
        <ele>246.89</ele>
        <time>2020-01-12T11:16:01.001Z</time>
      </trkpt>
      <trkpt lat="49.16902" lon="6.81814">
        <ele>243.35</ele>
        <time>2020-01-12T11:16:11.001Z</time>
      </trkpt>
      <trkpt lat="49.16913" lon="6.81829">
        <ele>240.91</ele>
        <time>2020-01-12T11:16:21.001Z</time>
      </trkpt>
      <trkpt lat="49.1692" lon="6.81833">
        <ele>242.29</ele>
        <time>2020-01-12T11:16:31.001Z</time>
      </trkpt>
      <trkpt lat="49.16932" lon="6.81844">
        <ele>240.4</ele>
        <time>2020-01-12T11:16:41.001Z</time>
      </trkpt>
      <trkpt lat="49.16944" lon="6.81848">
        <ele>232.77</ele>
        <time>2020-01-12T11:16:51.001Z</time>
      </trkpt>
      <trkpt lat="49.16954" lon="6.81854">
        <ele>233.71</ele>
        <time>2020-01-12T11:17:01.001Z</time>
      </trkpt>
      <trkpt lat="49.16962" lon="6.81866">
        <ele>234.47</ele>
        <time>2020-01-12T11:17:11.001Z</time>
      </trkpt>
      <trkpt lat="49.16974" lon="6.81865">
        <ele>236.89</ele>
        <time>2020-01-12T11:17:21.001Z</time>
      </trkpt>
      <trkpt lat="49.16986" lon="6.81875">
        <ele>236.59</ele>
        <time>2020-01-12T11:17:31.001Z</time>
      </trkpt>
      <trkpt lat="49.16995" lon="6.8188">
        <ele>237.21</ele>
        <time>2020-01-12T11:17:41.001Z</time>
      </trkpt>
      <trkpt lat="49.17003" lon="6.8188">
        <ele>240.28</ele>
        <time>2020-01-12T11:17:51.001Z</time>
      </trkpt>
      <trkpt lat="49.17004" lon="6.81889">
        <ele>244.25</ele>
        <time>2020-01-12T11:18:01.001Z</time>
      </trkpt>
      <trkpt lat="49.17009" lon="6.81894">
        <ele>245.64</ele>
        <time>2020-01-12T11:18:11.001Z</time>
      </trkpt>
      <trkpt lat="49.17015" lon="6.81898">
        <ele>247.28</ele>
        <time>2020-01-12T11:18:21.001Z</time>
      </trkpt>
      <trkpt lat="49.1703" lon="6.81911">
        <ele>251.23</ele>
        <time>2020-01-12T11:18:31.001Z</time>
      </trkpt>
      <trkpt lat="49.17057" lon="6.81919">
        <ele>249.97</ele>
        <time>2020-01-12T11:18:41.001Z</time>
      </trkpt>
      <trkpt lat="49.17074" lon="6.81934">
        <ele>245.31</ele>
        <time>2020-01-12T11:18:51.001Z</time>
      </trkpt>
      <trkpt lat="49.17093" lon="6.81945">
        <ele>243</ele>
        <time>2020-01-12T11:19:01.001Z</time>
      </trkpt>
      <trkpt lat="49.17109" lon="6.81962">
        <ele>240.92</ele>
        <time>2020-01-12T11:19:11.001Z</time>
      </trkpt>
      <trkpt lat="49.1712" lon="6.81984">
        <ele>238.36</ele>
        <time>2020-01-12T11:19:21.001Z</time>
      </trkpt>
      <trkpt lat="49.17126" lon="6.82007">
        <ele>234.79</ele>
        <time>2020-01-12T11:19:31.001Z</time>
      </trkpt>
      <trkpt lat="49.17132" lon="6.82025">
        <ele>233.23</ele>
        <time>2020-01-12T11:19:41.001Z</time>
      </trkpt>
      <trkpt lat="49.17139" lon="6.82044">
        <ele>228.56</ele>
        <time>2020-01-12T11:19:51.001Z</time>
      </trkpt>
      <trkpt lat="49.17145" lon="6.82066">
        <ele>226.08</ele>
        <time>2020-01-12T11:20:01.001Z</time>
      </trkpt>
      <trkpt lat="49.17153" lon="6.82089">
        <ele>226.27</ele>
        <time>2020-01-12T11:20:11.001Z</time>
      </trkpt>
      <trkpt lat="49.17159" lon="6.82107">
        <ele>228.85</ele>
        <time>2020-01-12T11:20:21.001Z</time>
      </trkpt>
      <trkpt lat="49.17161" lon="6.82128">
        <ele>228.64</ele>
        <time>2020-01-12T11:20:31.001Z</time>
      </trkpt>
      <trkpt lat="49.17165" lon="6.82152">
        <ele>228.09</ele>
        <time>2020-01-12T11:20:41.001Z</time>
      </trkpt>
      <trkpt lat="49.17169" lon="6.82171">
        <ele>229.15</ele>
        <time>2020-01-12T11:20:51.001Z</time>
      </trkpt>
      <trkpt lat="49.17172" lon="6.82191">
        <ele>229.01</ele>
        <time>2020-01-12T11:21:01.001Z</time>
      </trkpt>
      <trkpt lat="49.17175" lon="6.82211">
        <ele>231.96</ele>
        <time>2020-01-12T11:21:11.001Z</time>
      </trkpt>
      <trkpt lat="49.1718" lon="6.82228">
        <ele>232.65</ele>
        <time>2020-01-12T11:21:21.001Z</time>
      </trkpt>
      <trkpt lat="49.17186" lon="6.82224">
        <ele>231.89</ele>
        <time>2020-01-12T11:21:31.001Z</time>
      </trkpt>
      <trkpt lat="49.17188" lon="6.82219">
        <ele>228.26</ele>
        <time>2020-01-12T11:21:41.001Z</time>
      </trkpt>
      <trkpt lat="49.17188" lon="6.82223">
        <ele>225.01</ele>
        <time>2020-01-12T11:21:51.001Z</time>
      </trkpt>
      <trkpt lat="49.17196" lon="6.82217">
        <ele>223.55</ele>
        <time>2020-01-12T11:22:01.001Z</time>
      </trkpt>
      <trkpt lat="49.172" lon="6.82207">
        <ele>224.56</ele>
        <time>2020-01-12T11:22:11.001Z</time>
      </trkpt>
      <trkpt lat="49.17203" lon="6.82199">
        <ele>226.87</ele>
        <time>2020-01-12T11:22:21.001Z</time>
      </trkpt>
      <trkpt lat="49.17205" lon="6.82203">
        <ele>226.8</ele>
        <time>2020-01-12T11:22:31.001Z</time>
      </trkpt>
      <trkpt lat="49.17204" lon="6.82205">
        <ele>226.8</ele>
        <time>2020-01-12T11:22:47.001Z</time>
      </trkpt>
      <trkpt lat="49.17203" lon="6.82206">
        <ele>226.8</ele>
        <time>2020-01-12T11:22:57.001Z</time>
      </trkpt>
      <trkpt lat="49.17203" lon="6.82204">
        <ele>226.41</ele>
        <time>2020-01-12T11:24:50.001Z</time>
      </trkpt>
      <trkpt lat="49.17204" lon="6.82197">
        <ele>225.86</ele>
        <time>2020-01-12T11:26:10.001Z</time>
      </trkpt>
      <trkpt lat="49.17205" lon="6.82195">
        <ele>225.86</ele>
        <time>2020-01-12T11:26:20.001Z</time>
      </trkpt>
      <trkpt lat="49.17205" lon="6.82193">
        <ele>225.86</ele>
        <time>2020-01-12T11:26:48.001Z</time>
      </trkpt>
      <trkpt lat="49.17212" lon="6.82226">
        <ele>241.62</ele>
        <time>2020-01-12T11:42:09.292Z</time>
      </trkpt>
      <trkpt lat="49.1721" lon="6.82198">
        <ele>246.56</ele>
        <time>2020-01-12T11:42:19.000Z</time>
      </trkpt>
      <trkpt lat="49.17209" lon="6.82197">
        <ele>246.43</ele>
        <time>2020-01-12T11:43:36.000Z</time>
      </trkpt>
      <trkpt lat="49.17209" lon="6.82194">
        <ele>242.86</ele>
        <time>2020-01-12T11:43:46.000Z</time>
      </trkpt>
      <trkpt lat="49.17209" lon="6.82197">
        <ele>241.14</ele>
        <time>2020-01-12T11:46:43.000Z</time>
      </trkpt>
      <trkpt lat="49.17204" lon="6.82193">
        <ele>238.43</ele>
        <time>2020-01-12T11:46:53.000Z</time>
      </trkpt>
      <trkpt lat="49.17202" lon="6.82193">
        <ele>238.41</ele>
        <time>2020-01-12T11:47:03.000Z</time>
      </trkpt>
      <trkpt lat="49.172" lon="6.82191">
        <ele>242.13</ele>
        <time>2020-01-12T11:47:13.000Z</time>
      </trkpt>
      <trkpt lat="49.17204" lon="6.82181">
        <ele>240.9</ele>
        <time>2020-01-12T11:47:23.000Z</time>
      </trkpt>
      <trkpt lat="49.1721" lon="6.82169">
        <ele>235.96</ele>
        <time>2020-01-12T11:47:33.000Z</time>
      </trkpt>
      <trkpt lat="49.17214" lon="6.82152">
        <ele>233.16</ele>
        <time>2020-01-12T11:47:43.000Z</time>
      </trkpt>
      <trkpt lat="49.17215" lon="6.82136">
        <ele>233.27</ele>
        <time>2020-01-12T11:47:53.000Z</time>
      </trkpt>
      <trkpt lat="49.17214" lon="6.82112">
        <ele>233.59</ele>
        <time>2020-01-12T11:48:03.000Z</time>
      </trkpt>
      <trkpt lat="49.17217" lon="6.8209">
        <ele>232.89</ele>
        <time>2020-01-12T11:48:13.000Z</time>
      </trkpt>
      <trkpt lat="49.17225" lon="6.82059">
        <ele>224.41</ele>
        <time>2020-01-12T11:48:23.000Z</time>
      </trkpt>
      <trkpt lat="49.17228" lon="6.82041">
        <ele>223.42</ele>
        <time>2020-01-12T11:48:33.000Z</time>
      </trkpt>
      <trkpt lat="49.17231" lon="6.82022">
        <ele>224.04</ele>
        <time>2020-01-12T11:48:43.000Z</time>
      </trkpt>
      <trkpt lat="49.17231" lon="6.82003">
        <ele>225.52</ele>
        <time>2020-01-12T11:48:53.000Z</time>
      </trkpt>
      <trkpt lat="49.17232" lon="6.81996">
        <ele>226.78</ele>
        <time>2020-01-12T11:49:03.000Z</time>
      </trkpt>
      <trkpt lat="49.17231" lon="6.8199">
        <ele>225.92</ele>
        <time>2020-01-12T11:49:13.000Z</time>
      </trkpt>
      <trkpt lat="49.17229" lon="6.81976">
        <ele>227.84</ele>
        <time>2020-01-12T11:49:23.000Z</time>
      </trkpt>
      <trkpt lat="49.17222" lon="6.81964">
        <ele>228.42</ele>
        <time>2020-01-12T11:49:33.000Z</time>
      </trkpt>
      <trkpt lat="49.17215" lon="6.81952">
        <ele>230.25</ele>
        <time>2020-01-12T11:49:43.000Z</time>
      </trkpt>
      <trkpt lat="49.17205" lon="6.81937">
        <ele>230.11</ele>
        <time>2020-01-12T11:49:53.000Z</time>
      </trkpt>
      <trkpt lat="49.17197" lon="6.81918">
        <ele>226.38</ele>
        <time>2020-01-12T11:50:03.000Z</time>
      </trkpt>
      <trkpt lat="49.17192" lon="6.81898">
        <ele>224.62</ele>
        <time>2020-01-12T11:50:13.000Z</time>
      </trkpt>
      <trkpt lat="49.17184" lon="6.81872">
        <ele>228.79</ele>
        <time>2020-01-12T11:50:23.000Z</time>
      </trkpt>
      <trkpt lat="49.17175" lon="6.81862">
        <ele>227.01</ele>
        <time>2020-01-12T11:50:33.000Z</time>
      </trkpt>
      <trkpt lat="49.17164" lon="6.81853">
        <ele>229.16</ele>
        <time>2020-01-12T11:50:43.000Z</time>
      </trkpt>
      <trkpt lat="49.17153" lon="6.81845">
        <ele>229.55</ele>
        <time>2020-01-12T11:50:53.000Z</time>
      </trkpt>
      <trkpt lat="49.17142" lon="6.81839">
        <ele>232.2</ele>
        <time>2020-01-12T11:51:03.000Z</time>
      </trkpt>
      <trkpt lat="49.17136" lon="6.8183">
        <ele>233.25</ele>
        <time>2020-01-12T11:51:13.000Z</time>
      </trkpt>
      <trkpt lat="49.17135" lon="6.81814">
        <ele>233.35</ele>
        <time>2020-01-12T11:51:23.000Z</time>
      </trkpt>
      <trkpt lat="49.17136" lon="6.81801">
        <ele>231.91</ele>
        <time>2020-01-12T11:51:33.000Z</time>
      </trkpt>
      <trkpt lat="49.17126" lon="6.81782">
        <ele>234.08</ele>
        <time>2020-01-12T11:51:43.000Z</time>
      </trkpt>
      <trkpt lat="49.1712" lon="6.81761">
        <ele>234.77</ele>
        <time>2020-01-12T11:51:53.000Z</time>
      </trkpt>
      <trkpt lat="49.17119" lon="6.81737">
        <ele>241.32</ele>
        <time>2020-01-12T11:52:03.000Z</time>
      </trkpt>
      <trkpt lat="49.1712" lon="6.81719">
        <ele>244.87</ele>
        <time>2020-01-12T11:52:13.000Z</time>
      </trkpt>
      <trkpt lat="49.17127" lon="6.81705">
        <ele>249.51</ele>
        <time>2020-01-12T11:52:23.000Z</time>
      </trkpt>
      <trkpt lat="49.17136" lon="6.81689">
        <ele>251.46</ele>
        <time>2020-01-12T11:52:33.000Z</time>
      </trkpt>
      <trkpt lat="49.17143" lon="6.81673">
        <ele>251.15</ele>
        <time>2020-01-12T11:52:43.000Z</time>
      </trkpt>
      <trkpt lat="49.17153" lon="6.81659">
        <ele>251.29</ele>
        <time>2020-01-12T11:52:53.000Z</time>
      </trkpt>
      <trkpt lat="49.17165" lon="6.81647">
        <ele>248.24</ele>
        <time>2020-01-12T11:53:03.000Z</time>
      </trkpt>
      <trkpt lat="49.17178" lon="6.81635">
        <ele>243.73</ele>
        <time>2020-01-12T11:53:13.000Z</time>
      </trkpt>
      <trkpt lat="49.1719" lon="6.81625">
        <ele>245.15</ele>
        <time>2020-01-12T11:53:23.000Z</time>
      </trkpt>
      <trkpt lat="49.17202" lon="6.81613">
        <ele>245.76</ele>
        <time>2020-01-12T11:53:33.000Z</time>
      </trkpt>
      <trkpt lat="49.17214" lon="6.816">
        <ele>244.34</ele>
        <time>2020-01-12T11:53:43.000Z</time>
      </trkpt>
      <trkpt lat="49.17225" lon="6.81592">
        <ele>243.69</ele>
        <time>2020-01-12T11:53:53.000Z</time>
      </trkpt>
      <trkpt lat="49.17236" lon="6.81584">
        <ele>243.91</ele>
        <time>2020-01-12T11:54:03.000Z</time>
      </trkpt>
      <trkpt lat="49.17249" lon="6.81574">
        <ele>243.15</ele>
        <time>2020-01-12T11:54:13.000Z</time>
      </trkpt>
      <trkpt lat="49.17263" lon="6.81564">
        <ele>244.28</ele>
        <time>2020-01-12T11:54:23.000Z</time>
      </trkpt>
      <trkpt lat="49.17276" lon="6.81551">
        <ele>244.77</ele>
        <time>2020-01-12T11:54:33.000Z</time>
      </trkpt>
      <trkpt lat="49.17284" lon="6.81535">
        <ele>241.48</ele>
        <time>2020-01-12T11:54:43.000Z</time>
      </trkpt>
      <trkpt lat="49.1729" lon="6.81519">
        <ele>241.5</ele>
        <time>2020-01-12T11:54:53.000Z</time>
      </trkpt>
      <trkpt lat="49.17293" lon="6.81503">
        <ele>239.16</ele>
        <time>2020-01-12T11:55:03.000Z</time>
      </trkpt>
      <trkpt lat="49.17295" lon="6.81487">
        <ele>237.94</ele>
        <time>2020-01-12T11:55:13.000Z</time>
      </trkpt>
      <trkpt lat="49.17297" lon="6.81463">
        <ele>238.31</ele>
        <time>2020-01-12T11:55:23.000Z</time>
      </trkpt>
      <trkpt lat="49.17297" lon="6.81439">
        <ele>235.59</ele>
        <time>2020-01-12T11:55:33.000Z</time>
      </trkpt>
      <trkpt lat="49.17294" lon="6.81417">
        <ele>234.67</ele>
        <time>2020-01-12T11:55:43.000Z</time>
      </trkpt>
      <trkpt lat="49.1729" lon="6.81398">
        <ele>233.84</ele>
        <time>2020-01-12T11:55:53.000Z</time>
      </trkpt>
      <trkpt lat="49.17286" lon="6.81375">
        <ele>231.4</ele>
        <time>2020-01-12T11:56:03.000Z</time>
      </trkpt>
      <trkpt lat="49.17275" lon="6.81358">
        <ele>234.09</ele>
        <time>2020-01-12T11:56:13.000Z</time>
      </trkpt>
      <trkpt lat="49.17262" lon="6.81348">
        <ele>236.36</ele>
        <time>2020-01-12T11:56:23.000Z</time>
      </trkpt>
      <trkpt lat="49.17255" lon="6.81336">
        <ele>237.95</ele>
        <time>2020-01-12T11:56:33.000Z</time>
      </trkpt>
      <trkpt lat="49.17255" lon="6.81317">
        <ele>236.5</ele>
        <time>2020-01-12T11:56:43.000Z</time>
      </trkpt>
      <trkpt lat="49.17259" lon="6.81295">
        <ele>238.82</ele>
        <time>2020-01-12T11:56:53.000Z</time>
      </trkpt>
      <trkpt lat="49.17264" lon="6.81274">
        <ele>239.46</ele>
        <time>2020-01-12T11:57:03.000Z</time>
      </trkpt>
      <trkpt lat="49.17264" lon="6.81251">
        <ele>240.19</ele>
        <time>2020-01-12T11:57:13.000Z</time>
      </trkpt>
      <trkpt lat="49.17264" lon="6.81225">
        <ele>242.39</ele>
        <time>2020-01-12T11:57:23.000Z</time>
      </trkpt>
      <trkpt lat="49.17264" lon="6.81204">
        <ele>240.35</ele>
        <time>2020-01-12T11:57:33.000Z</time>
      </trkpt>
      <trkpt lat="49.17262" lon="6.81184">
        <ele>238.77</ele>
        <time>2020-01-12T11:57:43.000Z</time>
      </trkpt>
      <trkpt lat="49.17259" lon="6.81164">
        <ele>235.65</ele>
        <time>2020-01-12T11:57:53.000Z</time>
      </trkpt>
      <trkpt lat="49.17256" lon="6.81144">
        <ele>237.03</ele>
        <time>2020-01-12T11:58:03.000Z</time>
      </trkpt>
      <trkpt lat="49.17252" lon="6.81126">
        <ele>237.09</ele>
        <time>2020-01-12T11:58:13.000Z</time>
      </trkpt>
      <trkpt lat="49.1724" lon="6.81115">
        <ele>234.94</ele>
        <time>2020-01-12T11:58:23.000Z</time>
      </trkpt>
      <trkpt lat="49.17232" lon="6.81108">
        <ele>233.82</ele>
        <time>2020-01-12T11:58:33.000Z</time>
      </trkpt>
      <trkpt lat="49.17224" lon="6.811">
        <ele>235.25</ele>
        <time>2020-01-12T11:58:43.000Z</time>
      </trkpt>
      <trkpt lat="49.17213" lon="6.81092">
        <ele>236.98</ele>
        <time>2020-01-12T11:58:53.000Z</time>
      </trkpt>
      <trkpt lat="49.17201" lon="6.81087">
        <ele>237.51</ele>
        <time>2020-01-12T11:59:03.000Z</time>
      </trkpt>
      <trkpt lat="49.1719" lon="6.81079">
        <ele>239.24</ele>
        <time>2020-01-12T11:59:13.000Z</time>
      </trkpt>
      <trkpt lat="49.17182" lon="6.8107">
        <ele>242.08</ele>
        <time>2020-01-12T11:59:23.000Z</time>
      </trkpt>
      <trkpt lat="49.17171" lon="6.81062">
        <ele>245.36</ele>
        <time>2020-01-12T11:59:33.000Z</time>
      </trkpt>
      <trkpt lat="49.1716" lon="6.81054">
        <ele>247.45</ele>
        <time>2020-01-12T11:59:43.000Z</time>
      </trkpt>
      <trkpt lat="49.17147" lon="6.81043">
        <ele>250.69</ele>
        <time>2020-01-12T11:59:53.000Z</time>
      </trkpt>
      <trkpt lat="49.17135" lon="6.81031">
        <ele>253.46</ele>
        <time>2020-01-12T12:00:03.000Z</time>
      </trkpt>
      <trkpt lat="49.17124" lon="6.8102">
        <ele>254.86</ele>
        <time>2020-01-12T12:00:13.000Z</time>
      </trkpt>
      <trkpt lat="49.17115" lon="6.81009">
        <ele>255.45</ele>
        <time>2020-01-12T12:00:23.000Z</time>
      </trkpt>
      <trkpt lat="49.17106" lon="6.80999">
        <ele>256.37</ele>
        <time>2020-01-12T12:00:33.000Z</time>
      </trkpt>
      <trkpt lat="49.17096" lon="6.80988">
        <ele>258.15</ele>
        <time>2020-01-12T12:00:43.000Z</time>
      </trkpt>
      <trkpt lat="49.17086" lon="6.80974">
        <ele>262.28</ele>
        <time>2020-01-12T12:00:53.000Z</time>
      </trkpt>
      <trkpt lat="49.17077" lon="6.80958">
        <ele>265.5</ele>
        <time>2020-01-12T12:01:03.000Z</time>
      </trkpt>
      <trkpt lat="49.17071" lon="6.80941">
        <ele>266.7</ele>
        <time>2020-01-12T12:01:13.000Z</time>
      </trkpt>
      <trkpt lat="49.17065" lon="6.80922">
        <ele>266.16</ele>
        <time>2020-01-12T12:01:23.000Z</time>
      </trkpt>
      <trkpt lat="49.17055" lon="6.80898">
        <ele>262.55</ele>
        <time>2020-01-12T12:01:33.000Z</time>
      </trkpt>
      <trkpt lat="49.17046" lon="6.80875">
        <ele>260.4</ele>
        <time>2020-01-12T12:01:43.000Z</time>
      </trkpt>
      <trkpt lat="49.17039" lon="6.80856">
        <ele>260.12</ele>
        <time>2020-01-12T12:01:53.000Z</time>
      </trkpt>
      <trkpt lat="49.17031" lon="6.80836">
        <ele>259.2</ele>
        <time>2020-01-12T12:02:03.000Z</time>
      </trkpt>
      <trkpt lat="49.17024" lon="6.80821">
        <ele>258.36</ele>
        <time>2020-01-12T12:02:13.000Z</time>
      </trkpt>
      <trkpt lat="49.17019" lon="6.80806">
        <ele>256.27</ele>
        <time>2020-01-12T12:02:23.000Z</time>
      </trkpt>
      <trkpt lat="49.17009" lon="6.80788">
        <ele>253.18</ele>
        <time>2020-01-12T12:02:33.000Z</time>
      </trkpt>
      <trkpt lat="49.17001" lon="6.80767">
        <ele>249.29</ele>
        <time>2020-01-12T12:02:43.000Z</time>
      </trkpt>
      <trkpt lat="49.16995" lon="6.80745">
        <ele>247.69</ele>
        <time>2020-01-12T12:02:53.000Z</time>
      </trkpt>
      <trkpt lat="49.16989" lon="6.80726">
        <ele>247.1</ele>
        <time>2020-01-12T12:03:03.000Z</time>
      </trkpt>
      <trkpt lat="49.16985" lon="6.80708">
        <ele>249.06</ele>
        <time>2020-01-12T12:03:13.000Z</time>
      </trkpt>
      <trkpt lat="49.16982" lon="6.80688">
        <ele>249.2</ele>
        <time>2020-01-12T12:03:23.000Z</time>
      </trkpt>
      <trkpt lat="49.16977" lon="6.80669">
        <ele>249.05</ele>
        <time>2020-01-12T12:03:33.000Z</time>
      </trkpt>
      <trkpt lat="49.16975" lon="6.80647">
        <ele>249.41</ele>
        <time>2020-01-12T12:03:43.000Z</time>
      </trkpt>
      <trkpt lat="49.16975" lon="6.80622">
        <ele>250.61</ele>
        <time>2020-01-12T12:03:53.000Z</time>
      </trkpt>
      <trkpt lat="49.16978" lon="6.80599">
        <ele>253.96</ele>
        <time>2020-01-12T12:04:03.000Z</time>
      </trkpt>
      <trkpt lat="49.16981" lon="6.80578">
        <ele>258.1</ele>
        <time>2020-01-12T12:04:13.000Z</time>
      </trkpt>
      <trkpt lat="49.16984" lon="6.80557">
        <ele>263.39</ele>
        <time>2020-01-12T12:04:23.000Z</time>
      </trkpt>
      <trkpt lat="49.16987" lon="6.80538">
        <ele>265.22</ele>
        <time>2020-01-12T12:04:33.000Z</time>
      </trkpt>
      <trkpt lat="49.16982" lon="6.80525">
        <ele>265.39</ele>
        <time>2020-01-12T12:04:43.000Z</time>
      </trkpt>
      <trkpt lat="49.16977" lon="6.80517">
        <ele>263.64</ele>
        <time>2020-01-12T12:04:53.000Z</time>
      </trkpt>
      <trkpt lat="49.16975" lon="6.80514">
        <ele>266.48</ele>
        <time>2020-01-12T12:05:03.000Z</time>
      </trkpt>
      <trkpt lat="49.16973" lon="6.80511">
        <ele>266.69</ele>
        <time>2020-01-12T12:05:13.000Z</time>
      </trkpt>
      <trkpt lat="49.16971" lon="6.80507">
        <ele>265.27</ele>
        <time>2020-01-12T12:05:23.000Z</time>
      </trkpt>
      <trkpt lat="49.16967" lon="6.80496">
        <ele>270.48</ele>
        <time>2020-01-12T12:05:33.000Z</time>
      </trkpt>
      <trkpt lat="49.16963" lon="6.80483">
        <ele>274.26</ele>
        <time>2020-01-12T12:05:43.000Z</time>
      </trkpt>
      <trkpt lat="49.16958" lon="6.80473">
        <ele>277.01</ele>
        <time>2020-01-12T12:05:53.000Z</time>
      </trkpt>
      <trkpt lat="49.16955" lon="6.80465">
        <ele>277.04</ele>
        <time>2020-01-12T12:06:03.000Z</time>
      </trkpt>
      <trkpt lat="49.16946" lon="6.80452">
        <ele>276.2</ele>
        <time>2020-01-12T12:06:13.000Z</time>
      </trkpt>
      <trkpt lat="49.16932" lon="6.80438">
        <ele>275.31</ele>
        <time>2020-01-12T12:06:23.000Z</time>
      </trkpt>
      <trkpt lat="49.16918" lon="6.80429">
        <ele>274.87</ele>
        <time>2020-01-12T12:06:33.000Z</time>
      </trkpt>
      <trkpt lat="49.16908" lon="6.80421">
        <ele>278.18</ele>
        <time>2020-01-12T12:06:43.000Z</time>
      </trkpt>
      <trkpt lat="49.169" lon="6.80415">
        <ele>279.98</ele>
        <time>2020-01-12T12:06:53.000Z</time>
      </trkpt>
      <trkpt lat="49.16892" lon="6.8041">
        <ele>281.23</ele>
        <time>2020-01-12T12:07:03.000Z</time>
      </trkpt>
      <trkpt lat="49.16884" lon="6.80407">
        <ele>284.03</ele>
        <time>2020-01-12T12:07:13.000Z</time>
      </trkpt>
      <trkpt lat="49.16876" lon="6.80403">
        <ele>286.47</ele>
        <time>2020-01-12T12:07:23.000Z</time>
      </trkpt>
      <trkpt lat="49.16871" lon="6.80399">
        <ele>290.37</ele>
        <time>2020-01-12T12:07:33.000Z</time>
      </trkpt>
      <trkpt lat="49.16863" lon="6.80398">
        <ele>294.76</ele>
        <time>2020-01-12T12:07:43.000Z</time>
      </trkpt>
      <trkpt lat="49.16853" lon="6.80402">
        <ele>297.85</ele>
        <time>2020-01-12T12:07:53.000Z</time>
      </trkpt>
      <trkpt lat="49.16845" lon="6.80406">
        <ele>301.43</ele>
        <time>2020-01-12T12:08:03.000Z</time>
      </trkpt>
      <trkpt lat="49.16836" lon="6.8041">
        <ele>305.35</ele>
        <time>2020-01-12T12:08:13.000Z</time>
      </trkpt>
      <trkpt lat="49.16825" lon="6.80415">
        <ele>305.79</ele>
        <time>2020-01-12T12:08:23.000Z</time>
      </trkpt>
      <trkpt lat="49.16818" lon="6.8041">
        <ele>305.86</ele>
        <time>2020-01-12T12:08:33.000Z</time>
      </trkpt>
      <trkpt lat="49.1681" lon="6.80398">
        <ele>303.79</ele>
        <time>2020-01-12T12:08:43.000Z</time>
      </trkpt>
      <trkpt lat="49.16794" lon="6.8039">
        <ele>299.8</ele>
        <time>2020-01-12T12:08:53.000Z</time>
      </trkpt>
      <trkpt lat="49.16783" lon="6.80378">
        <ele>297.23</ele>
        <time>2020-01-12T12:09:03.000Z</time>
      </trkpt>
      <trkpt lat="49.16777" lon="6.80362">
        <ele>297.25</ele>
        <time>2020-01-12T12:09:13.000Z</time>
      </trkpt>
      <trkpt lat="49.16773" lon="6.80345">
        <ele>299.09</ele>
        <time>2020-01-12T12:09:23.000Z</time>
      </trkpt>
      <trkpt lat="49.16769" lon="6.80323">
        <ele>298.6</ele>
        <time>2020-01-12T12:09:33.000Z</time>
      </trkpt>
      <trkpt lat="49.16762" lon="6.80299">
        <ele>300.68</ele>
        <time>2020-01-12T12:09:43.000Z</time>
      </trkpt>
      <trkpt lat="49.16758" lon="6.8028">
        <ele>303.02</ele>
        <time>2020-01-12T12:09:53.000Z</time>
      </trkpt>
      <trkpt lat="49.16753" lon="6.80263">
        <ele>305.39</ele>
        <time>2020-01-12T12:10:03.000Z</time>
      </trkpt>
      <trkpt lat="49.16749" lon="6.80244">
        <ele>304.65</ele>
        <time>2020-01-12T12:10:13.000Z</time>
      </trkpt>
      <trkpt lat="49.16747" lon="6.80225">
        <ele>306.15</ele>
        <time>2020-01-12T12:10:23.000Z</time>
      </trkpt>
      <trkpt lat="49.16741" lon="6.80207">
        <ele>307.15</ele>
        <time>2020-01-12T12:10:33.000Z</time>
      </trkpt>
      <trkpt lat="49.16737" lon="6.80188">
        <ele>305.49</ele>
        <time>2020-01-12T12:10:43.000Z</time>
      </trkpt>
      <trkpt lat="49.16733" lon="6.8017">
        <ele>306.46</ele>
        <time>2020-01-12T12:10:53.000Z</time>
      </trkpt>
      <trkpt lat="49.1673" lon="6.80148">
        <ele>307.97</ele>
        <time>2020-01-12T12:11:03.000Z</time>
      </trkpt>
      <trkpt lat="49.16728" lon="6.80126">
        <ele>311.74</ele>
        <time>2020-01-12T12:11:13.000Z</time>
      </trkpt>
      <trkpt lat="49.16725" lon="6.8011">
        <ele>314.72</ele>
        <time>2020-01-12T12:11:23.000Z</time>
      </trkpt>
      <trkpt lat="49.1672" lon="6.80091">
        <ele>315.17</ele>
        <time>2020-01-12T12:11:33.000Z</time>
      </trkpt>
      <trkpt lat="49.16715" lon="6.80073">
        <ele>314.74</ele>
        <time>2020-01-12T12:11:43.000Z</time>
      </trkpt>
      <trkpt lat="49.16711" lon="6.80053">
        <ele>312.39</ele>
        <time>2020-01-12T12:11:53.000Z</time>
      </trkpt>
      <trkpt lat="49.16707" lon="6.80036">
        <ele>309.4</ele>
        <time>2020-01-12T12:12:03.000Z</time>
      </trkpt>
      <trkpt lat="49.16703" lon="6.80018">
        <ele>307.47</ele>
        <time>2020-01-12T12:12:13.000Z</time>
      </trkpt>
      <trkpt lat="49.16698" lon="6.8">
        <ele>307.65</ele>
        <time>2020-01-12T12:12:23.000Z</time>
      </trkpt>
      <trkpt lat="49.16694" lon="6.79982">
        <ele>306.32</ele>
        <time>2020-01-12T12:12:33.000Z</time>
      </trkpt>
      <trkpt lat="49.16691" lon="6.79963">
        <ele>307.11</ele>
        <time>2020-01-12T12:12:43.000Z</time>
      </trkpt>
      <trkpt lat="49.16687" lon="6.79942">
        <ele>306.11</ele>
        <time>2020-01-12T12:12:53.000Z</time>
      </trkpt>
      <trkpt lat="49.16684" lon="6.79922">
        <ele>304.71</ele>
        <time>2020-01-12T12:13:03.000Z</time>
      </trkpt>
      <trkpt lat="49.16681" lon="6.79903">
        <ele>305.18</ele>
        <time>2020-01-12T12:13:13.000Z</time>
      </trkpt>
      <trkpt lat="49.16677" lon="6.79887">
        <ele>306.23</ele>
        <time>2020-01-12T12:13:23.000Z</time>
      </trkpt>
      <trkpt lat="49.16675" lon="6.79875">
        <ele>308.18</ele>
        <time>2020-01-12T12:13:33.000Z</time>
      </trkpt>
      <trkpt lat="49.16672" lon="6.79859">
        <ele>310.68</ele>
        <time>2020-01-12T12:13:43.000Z</time>
      </trkpt>
      <trkpt lat="49.16668" lon="6.79841">
        <ele>311.08</ele>
        <time>2020-01-12T12:13:53.000Z</time>
      </trkpt>
      <trkpt lat="49.16664" lon="6.79827">
        <ele>313.5</ele>
        <time>2020-01-12T12:14:03.000Z</time>
      </trkpt>
      <trkpt lat="49.16661" lon="6.79807">
        <ele>317.99</ele>
        <time>2020-01-12T12:14:13.000Z</time>
      </trkpt>
      <trkpt lat="49.16657" lon="6.79781">
        <ele>318.45</ele>
        <time>2020-01-12T12:14:23.000Z</time>
      </trkpt>
      <trkpt lat="49.16653" lon="6.79757">
        <ele>321.17</ele>
        <time>2020-01-12T12:14:33.000Z</time>
      </trkpt>
      <trkpt lat="49.16651" lon="6.7974">
        <ele>321.79</ele>
        <time>2020-01-12T12:14:43.000Z</time>
      </trkpt>
      <trkpt lat="49.16648" lon="6.79724">
        <ele>322.73</ele>
        <time>2020-01-12T12:14:53.000Z</time>
      </trkpt>
      <trkpt lat="49.16642" lon="6.79709">
        <ele>323.31</ele>
        <time>2020-01-12T12:15:03.000Z</time>
      </trkpt>
      <trkpt lat="49.16636" lon="6.7969">
        <ele>325.09</ele>
        <time>2020-01-12T12:15:13.000Z</time>
      </trkpt>
      <trkpt lat="49.16633" lon="6.79671">
        <ele>327.23</ele>
        <time>2020-01-12T12:15:23.000Z</time>
      </trkpt>
      <trkpt lat="49.16633" lon="6.7965">
        <ele>328.85</ele>
        <time>2020-01-12T12:15:33.000Z</time>
      </trkpt>
      <trkpt lat="49.16632" lon="6.7963">
        <ele>330</ele>
        <time>2020-01-12T12:15:43.000Z</time>
      </trkpt>
      <trkpt lat="49.1663" lon="6.79611">
        <ele>329.88</ele>
        <time>2020-01-12T12:15:53.000Z</time>
      </trkpt>
      <trkpt lat="49.16626" lon="6.79594">
        <ele>331.42</ele>
        <time>2020-01-12T12:16:03.000Z</time>
      </trkpt>
      <trkpt lat="49.16622" lon="6.79576">
        <ele>334.02</ele>
        <time>2020-01-12T12:16:13.000Z</time>
      </trkpt>
      <trkpt lat="49.1662" lon="6.79556">
        <ele>333.14</ele>
        <time>2020-01-12T12:16:23.000Z</time>
      </trkpt>
      <trkpt lat="49.16618" lon="6.79533">
        <ele>333.54</ele>
        <time>2020-01-12T12:16:33.000Z</time>
      </trkpt>
      <trkpt lat="49.16616" lon="6.79512">
        <ele>330.33</ele>
        <time>2020-01-12T12:16:43.000Z</time>
      </trkpt>
      <trkpt lat="49.16612" lon="6.79493">
        <ele>328.72</ele>
        <time>2020-01-12T12:16:53.000Z</time>
      </trkpt>
      <trkpt lat="49.16608" lon="6.79472">
        <ele>327.42</ele>
        <time>2020-01-12T12:17:03.000Z</time>
      </trkpt>
      <trkpt lat="49.16605" lon="6.79455">
        <ele>325.81</ele>
        <time>2020-01-12T12:17:13.000Z</time>
      </trkpt>
      <trkpt lat="49.16603" lon="6.79437">
        <ele>327.26</ele>
        <time>2020-01-12T12:17:23.000Z</time>
      </trkpt>
      <trkpt lat="49.16602" lon="6.79418">
        <ele>326.96</ele>
        <time>2020-01-12T12:17:33.000Z</time>
      </trkpt>
      <trkpt lat="49.16599" lon="6.79398">
        <ele>324.23</ele>
        <time>2020-01-12T12:17:43.000Z</time>
      </trkpt>
      <trkpt lat="49.16594" lon="6.7938">
        <ele>322.1</ele>
        <time>2020-01-12T12:17:53.000Z</time>
      </trkpt>
      <trkpt lat="49.1659" lon="6.7936">
        <ele>322.69</ele>
        <time>2020-01-12T12:18:03.000Z</time>
      </trkpt>
      <trkpt lat="49.16584" lon="6.7934">
        <ele>322.88</ele>
        <time>2020-01-12T12:18:13.000Z</time>
      </trkpt>
      <trkpt lat="49.16578" lon="6.79321">
        <ele>321.37</ele>
        <time>2020-01-12T12:18:23.000Z</time>
      </trkpt>
      <trkpt lat="49.16574" lon="6.79304">
        <ele>321.1</ele>
        <time>2020-01-12T12:18:33.000Z</time>
      </trkpt>
      <trkpt lat="49.1657" lon="6.79285">
        <ele>320.7</ele>
        <time>2020-01-12T12:18:43.000Z</time>
      </trkpt>
      <trkpt lat="49.16565" lon="6.79268">
        <ele>319.06</ele>
        <time>2020-01-12T12:18:53.000Z</time>
      </trkpt>
      <trkpt lat="49.1656" lon="6.79249">
        <ele>319.69</ele>
        <time>2020-01-12T12:19:03.000Z</time>
      </trkpt>
      <trkpt lat="49.16558" lon="6.79228">
        <ele>322.83</ele>
        <time>2020-01-12T12:19:13.000Z</time>
      </trkpt>
      <trkpt lat="49.16557" lon="6.79208">
        <ele>325.64</ele>
        <time>2020-01-12T12:19:23.000Z</time>
      </trkpt>
      <trkpt lat="49.16556" lon="6.7919">
        <ele>330.81</ele>
        <time>2020-01-12T12:19:33.000Z</time>
      </trkpt>
      <trkpt lat="49.16553" lon="6.79175">
        <ele>333.68</ele>
        <time>2020-01-12T12:19:43.000Z</time>
      </trkpt>
      <trkpt lat="49.16547" lon="6.79156">
        <ele>336.54</ele>
        <time>2020-01-12T12:19:53.000Z</time>
      </trkpt>
      <trkpt lat="49.1654" lon="6.79133">
        <ele>335.26</ele>
        <time>2020-01-12T12:20:03.000Z</time>
      </trkpt>
      <trkpt lat="49.16533" lon="6.79112">
        <ele>334.72</ele>
        <time>2020-01-12T12:20:13.000Z</time>
      </trkpt>
      <trkpt lat="49.16527" lon="6.79095">
        <ele>332.95</ele>
        <time>2020-01-12T12:20:23.000Z</time>
      </trkpt>
      <trkpt lat="49.16528" lon="6.7909">
        <ele>332.1</ele>
        <time>2020-01-12T12:20:33.000Z</time>
      </trkpt>
      <trkpt lat="49.16531" lon="6.79089">
        <ele>332.86</ele>
        <time>2020-01-12T12:20:43.000Z</time>
      </trkpt>
      <trkpt lat="49.16533" lon="6.79084">
        <ele>329.5</ele>
        <time>2020-01-12T12:20:53.000Z</time>
      </trkpt>
      <trkpt lat="49.16534" lon="6.7908">
        <ele>329.5</ele>
        <time>2020-01-12T12:21:03.000Z</time>
      </trkpt>
      <trkpt lat="49.16536" lon="6.79075">
        <ele>329.12</ele>
        <time>2020-01-12T12:21:29.000Z</time>
      </trkpt>
      <trkpt lat="49.16538" lon="6.79073">
        <ele>331.03</ele>
        <time>2020-01-12T12:21:39.000Z</time>
      </trkpt>
      <trkpt lat="49.16538" lon="6.79071">
        <ele>329.29</ele>
        <time>2020-01-12T12:21:49.000Z</time>
      </trkpt>
      <trkpt lat="49.16539" lon="6.79065">
        <ele>326.67</ele>
        <time>2020-01-12T12:21:59.000Z</time>
      </trkpt>
      <trkpt lat="49.1654" lon="6.79063">
        <ele>326.39</ele>
        <time>2020-01-12T12:22:09.000Z</time>
      </trkpt>
      <trkpt lat="49.16541" lon="6.79064">
        <ele>324.19</ele>
        <time>2020-01-12T12:23:34.000Z</time>
      </trkpt>
      <trkpt lat="49.16547" lon="6.79061">
        <ele>323.17</ele>
        <time>2020-01-12T12:23:44.000Z</time>
      </trkpt>
      <trkpt lat="49.16554" lon="6.79055">
        <ele>321.71</ele>
        <time>2020-01-12T12:23:54.000Z</time>
      </trkpt>
      <trkpt lat="49.16566" lon="6.7904">
        <ele>318.27</ele>
        <time>2020-01-12T12:24:04.000Z</time>
      </trkpt>
      <trkpt lat="49.16575" lon="6.79032">
        <ele>318.21</ele>
        <time>2020-01-12T12:24:14.000Z</time>
      </trkpt>
      <trkpt lat="49.16586" lon="6.79022">
        <ele>318.87</ele>
        <time>2020-01-12T12:24:24.000Z</time>
      </trkpt>
      <trkpt lat="49.16595" lon="6.7901">
        <ele>320.22</ele>
        <time>2020-01-12T12:24:34.000Z</time>
      </trkpt>
      <trkpt lat="49.16599" lon="6.78991">
        <ele>320.13</ele>
        <time>2020-01-12T12:24:44.000Z</time>
      </trkpt>
      <trkpt lat="49.16604" lon="6.78972">
        <ele>320.69</ele>
        <time>2020-01-12T12:24:54.000Z</time>
      </trkpt>
      <trkpt lat="49.16609" lon="6.78955">
        <ele>319.19</ele>
        <time>2020-01-12T12:25:04.000Z</time>
      </trkpt>
      <trkpt lat="49.16616" lon="6.78934">
        <ele>315.24</ele>
        <time>2020-01-12T12:25:14.000Z</time>
      </trkpt>
      <trkpt lat="49.16623" lon="6.78914">
        <ele>316.11</ele>
        <time>2020-01-12T12:25:24.000Z</time>
      </trkpt>
      <trkpt lat="49.16628" lon="6.78894">
        <ele>315.2</ele>
        <time>2020-01-12T12:25:34.000Z</time>
      </trkpt>
      <trkpt lat="49.16635" lon="6.7887">
        <ele>314.17</ele>
        <time>2020-01-12T12:25:44.000Z</time>
      </trkpt>
      <trkpt lat="49.16642" lon="6.78849">
        <ele>313.49</ele>
        <time>2020-01-12T12:25:54.000Z</time>
      </trkpt>
      <trkpt lat="49.16647" lon="6.78831">
        <ele>313.61</ele>
        <time>2020-01-12T12:26:04.000Z</time>
      </trkpt>
      <trkpt lat="49.16652" lon="6.78817">
        <ele>315.16</ele>
        <time>2020-01-12T12:26:14.000Z</time>
      </trkpt>
      <trkpt lat="49.16654" lon="6.78796">
        <ele>316.55</ele>
        <time>2020-01-12T12:26:24.000Z</time>
      </trkpt>
      <trkpt lat="49.16657" lon="6.78774">
        <ele>313.82</ele>
        <time>2020-01-12T12:26:34.000Z</time>
      </trkpt>
      <trkpt lat="49.16661" lon="6.78753">
        <ele>314.17</ele>
        <time>2020-01-12T12:26:44.000Z</time>
      </trkpt>
      <trkpt lat="49.16669" lon="6.78733">
        <ele>313.49</ele>
        <time>2020-01-12T12:26:54.000Z</time>
      </trkpt>
      <trkpt lat="49.16676" lon="6.78716">
        <ele>315.63</ele>
        <time>2020-01-12T12:27:04.000Z</time>
      </trkpt>
      <trkpt lat="49.16685" lon="6.78696">
        <ele>315.85</ele>
        <time>2020-01-12T12:27:14.000Z</time>
      </trkpt>
      <trkpt lat="49.16693" lon="6.78677">
        <ele>313.41</ele>
        <time>2020-01-12T12:27:24.000Z</time>
      </trkpt>
      <trkpt lat="49.16702" lon="6.78659">
        <ele>314.22</ele>
        <time>2020-01-12T12:27:34.000Z</time>
      </trkpt>
      <trkpt lat="49.16715" lon="6.78648">
        <ele>313.71</ele>
        <time>2020-01-12T12:27:44.000Z</time>
      </trkpt>
      <trkpt lat="49.16723" lon="6.7863">
        <ele>313.8</ele>
        <time>2020-01-12T12:27:54.000Z</time>
      </trkpt>
      <trkpt lat="49.16727" lon="6.78614">
        <ele>312.8</ele>
        <time>2020-01-12T12:28:04.000Z</time>
      </trkpt>
      <trkpt lat="49.16731" lon="6.78597">
        <ele>309.33</ele>
        <time>2020-01-12T12:28:14.000Z</time>
      </trkpt>
      <trkpt lat="49.16739" lon="6.78583">
        <ele>306.82</ele>
        <time>2020-01-12T12:28:24.000Z</time>
      </trkpt>
      <trkpt lat="49.16747" lon="6.78565">
        <ele>306.08</ele>
        <time>2020-01-12T12:28:34.000Z</time>
      </trkpt>
      <trkpt lat="49.16755" lon="6.78544">
        <ele>303.37</ele>
        <time>2020-01-12T12:28:44.000Z</time>
      </trkpt>
      <trkpt lat="49.1676" lon="6.78524">
        <ele>301.21</ele>
        <time>2020-01-12T12:28:54.000Z</time>
      </trkpt>
      <trkpt lat="49.16766" lon="6.78504">
        <ele>299.7</ele>
        <time>2020-01-12T12:29:04.000Z</time>
      </trkpt>
      <trkpt lat="49.16773" lon="6.78483">
        <ele>298.76</ele>
        <time>2020-01-12T12:29:14.000Z</time>
      </trkpt>
      <trkpt lat="49.16779" lon="6.78462">
        <ele>299.37</ele>
        <time>2020-01-12T12:29:24.000Z</time>
      </trkpt>
      <trkpt lat="49.16783" lon="6.78441">
        <ele>299.67</ele>
        <time>2020-01-12T12:29:34.000Z</time>
      </trkpt>
      <trkpt lat="49.16785" lon="6.78419">
        <ele>302.09</ele>
        <time>2020-01-12T12:29:44.000Z</time>
      </trkpt>
      <trkpt lat="49.16787" lon="6.784">
        <ele>301.15</ele>
        <time>2020-01-12T12:29:54.000Z</time>
      </trkpt>
      <trkpt lat="49.1679" lon="6.78379">
        <ele>297.05</ele>
        <time>2020-01-12T12:30:04.000Z</time>
      </trkpt>
      <trkpt lat="49.16792" lon="6.78359">
        <ele>296.51</ele>
        <time>2020-01-12T12:30:14.000Z</time>
      </trkpt>
      <trkpt lat="49.16794" lon="6.78338">
        <ele>295.45</ele>
        <time>2020-01-12T12:30:24.000Z</time>
      </trkpt>
      <trkpt lat="49.16799" lon="6.78316">
        <ele>295.69</ele>
        <time>2020-01-12T12:30:34.000Z</time>
      </trkpt>
      <trkpt lat="49.16805" lon="6.78292">
        <ele>294.38</ele>
        <time>2020-01-12T12:30:44.000Z</time>
      </trkpt>
      <trkpt lat="49.16811" lon="6.7827">
        <ele>295.45</ele>
        <time>2020-01-12T12:30:54.000Z</time>
      </trkpt>
      <trkpt lat="49.16814" lon="6.78247">
        <ele>295.2</ele>
        <time>2020-01-12T12:31:04.000Z</time>
      </trkpt>
      <trkpt lat="49.16816" lon="6.78222">
        <ele>294.44</ele>
        <time>2020-01-12T12:31:14.000Z</time>
      </trkpt>
      <trkpt lat="49.16816" lon="6.78202">
        <ele>292.39</ele>
        <time>2020-01-12T12:31:24.000Z</time>
      </trkpt>
      <trkpt lat="49.16816" lon="6.78184">
        <ele>291.21</ele>
        <time>2020-01-12T12:31:34.000Z</time>
      </trkpt>
      <trkpt lat="49.16817" lon="6.78162">
        <ele>290.89</ele>
        <time>2020-01-12T12:31:44.000Z</time>
      </trkpt>
      <trkpt lat="49.1682" lon="6.78138">
        <ele>290.36</ele>
        <time>2020-01-12T12:31:54.000Z</time>
      </trkpt>
      <trkpt lat="49.16824" lon="6.78116">
        <ele>289.41</ele>
        <time>2020-01-12T12:32:04.000Z</time>
      </trkpt>
      <trkpt lat="49.16828" lon="6.7809">
        <ele>290.64</ele>
        <time>2020-01-12T12:32:14.000Z</time>
      </trkpt>
      <trkpt lat="49.16829" lon="6.78066">
        <ele>291.55</ele>
        <time>2020-01-12T12:32:24.000Z</time>
      </trkpt>
      <trkpt lat="49.16829" lon="6.78047">
        <ele>290.38</ele>
        <time>2020-01-12T12:32:34.000Z</time>
      </trkpt>
      <trkpt lat="49.16826" lon="6.78029">
        <ele>288.44</ele>
        <time>2020-01-12T12:32:44.000Z</time>
      </trkpt>
      <trkpt lat="49.16823" lon="6.78009">
        <ele>286.04</ele>
        <time>2020-01-12T12:32:54.000Z</time>
      </trkpt>
      <trkpt lat="49.16821" lon="6.77989">
        <ele>284.19</ele>
        <time>2020-01-12T12:33:04.000Z</time>
      </trkpt>
      <trkpt lat="49.1682" lon="6.77967">
        <ele>282.8</ele>
        <time>2020-01-12T12:33:14.000Z</time>
      </trkpt>
      <trkpt lat="49.16818" lon="6.77947">
        <ele>282.34</ele>
        <time>2020-01-12T12:33:24.000Z</time>
      </trkpt>
      <trkpt lat="49.16813" lon="6.77924">
        <ele>279.32</ele>
        <time>2020-01-12T12:33:34.000Z</time>
      </trkpt>
      <trkpt lat="49.16808" lon="6.77903">
        <ele>275.12</ele>
        <time>2020-01-12T12:33:44.000Z</time>
      </trkpt>
      <trkpt lat="49.16803" lon="6.77881">
        <ele>272.74</ele>
        <time>2020-01-12T12:33:54.000Z</time>
      </trkpt>
      <trkpt lat="49.16798" lon="6.77859">
        <ele>269.79</ele>
        <time>2020-01-12T12:34:04.000Z</time>
      </trkpt>
      <trkpt lat="49.16792" lon="6.77841">
        <ele>265.76</ele>
        <time>2020-01-12T12:34:14.000Z</time>
      </trkpt>
      <trkpt lat="49.16788" lon="6.7782">
        <ele>263.97</ele>
        <time>2020-01-12T12:34:24.000Z</time>
      </trkpt>
      <trkpt lat="49.16782" lon="6.77801">
        <ele>263.08</ele>
        <time>2020-01-12T12:34:34.000Z</time>
      </trkpt>
      <trkpt lat="49.16778" lon="6.77783">
        <ele>261.4</ele>
        <time>2020-01-12T12:34:44.000Z</time>
      </trkpt>
      <trkpt lat="49.16776" lon="6.77765">
        <ele>259.35</ele>
        <time>2020-01-12T12:34:54.000Z</time>
      </trkpt>
      <trkpt lat="49.1677" lon="6.7775">
        <ele>259.81</ele>
        <time>2020-01-12T12:35:04.000Z</time>
      </trkpt>
      <trkpt lat="49.16764" lon="6.77732">
        <ele>259.46</ele>
        <time>2020-01-12T12:35:14.000Z</time>
      </trkpt>
      <trkpt lat="49.16761" lon="6.77711">
        <ele>259.46</ele>
        <time>2020-01-12T12:35:24.000Z</time>
      </trkpt>
      <trkpt lat="49.16758" lon="6.7769">
        <ele>259.78</ele>
        <time>2020-01-12T12:35:34.000Z</time>
      </trkpt>
      <trkpt lat="49.16757" lon="6.77667">
        <ele>261.33</ele>
        <time>2020-01-12T12:35:44.000Z</time>
      </trkpt>
      <trkpt lat="49.16755" lon="6.77641">
        <ele>261.84</ele>
        <time>2020-01-12T12:35:54.000Z</time>
      </trkpt>
      <trkpt lat="49.16755" lon="6.77618">
        <ele>259.3</ele>
        <time>2020-01-12T12:36:04.000Z</time>
      </trkpt>
      <trkpt lat="49.16756" lon="6.77594">
        <ele>253.5</ele>
        <time>2020-01-12T12:36:14.000Z</time>
      </trkpt>
      <trkpt lat="49.16756" lon="6.77577">
        <ele>251.45</ele>
        <time>2020-01-12T12:36:24.000Z</time>
      </trkpt>
      <trkpt lat="49.16757" lon="6.77558">
        <ele>248.81</ele>
        <time>2020-01-12T12:36:34.000Z</time>
      </trkpt>
      <trkpt lat="49.16765" lon="6.77551">
        <ele>244.82</ele>
        <time>2020-01-12T12:36:44.000Z</time>
      </trkpt>
      <trkpt lat="49.16771" lon="6.77528">
        <ele>239.68</ele>
        <time>2020-01-12T12:36:54.000Z</time>
      </trkpt>
      <trkpt lat="49.16772" lon="6.77502">
        <ele>239.3</ele>
        <time>2020-01-12T12:37:04.000Z</time>
      </trkpt>
      <trkpt lat="49.16768" lon="6.77481">
        <ele>246.59</ele>
        <time>2020-01-12T12:37:14.000Z</time>
      </trkpt>
      <trkpt lat="49.16764" lon="6.77462">
        <ele>249.73</ele>
        <time>2020-01-12T12:37:24.000Z</time>
      </trkpt>
      <trkpt lat="49.16758" lon="6.77446">
        <ele>250.69</ele>
        <time>2020-01-12T12:37:34.000Z</time>
      </trkpt>
      <trkpt lat="49.16754" lon="6.77428">
        <ele>250.71</ele>
        <time>2020-01-12T12:37:44.000Z</time>
      </trkpt>
      <trkpt lat="49.16754" lon="6.77407">
        <ele>251.85</ele>
        <time>2020-01-12T12:37:54.000Z</time>
      </trkpt>
      <trkpt lat="49.16758" lon="6.77389">
        <ele>251.13</ele>
        <time>2020-01-12T12:38:04.000Z</time>
      </trkpt>
      <trkpt lat="49.16764" lon="6.77368">
        <ele>248.53</ele>
        <time>2020-01-12T12:38:14.000Z</time>
      </trkpt>
      <trkpt lat="49.16764" lon="6.77345">
        <ele>247.08</ele>
        <time>2020-01-12T12:38:24.000Z</time>
      </trkpt>
      <trkpt lat="49.16759" lon="6.77324">
        <ele>245.07</ele>
        <time>2020-01-12T12:38:34.000Z</time>
      </trkpt>
      <trkpt lat="49.16754" lon="6.77308">
        <ele>246.65</ele>
        <time>2020-01-12T12:38:44.000Z</time>
      </trkpt>
      <trkpt lat="49.16759" lon="6.77309">
        <ele>246.79</ele>
        <time>2020-01-12T12:38:54.000Z</time>
      </trkpt>
      <trkpt lat="49.16755" lon="6.77307">
        <ele>246.79</ele>
        <time>2020-01-12T12:39:20.000Z</time>
      </trkpt>
      <trkpt lat="49.16753" lon="6.77302">
        <ele>248.42</ele>
        <time>2020-01-12T12:39:30.000Z</time>
      </trkpt>
      <trkpt lat="49.16744" lon="6.77287">
        <ele>241.32</ele>
        <time>2020-01-12T12:39:40.000Z</time>
      </trkpt>
      <trkpt lat="49.16739" lon="6.77267">
        <ele>240.66</ele>
        <time>2020-01-12T12:39:50.000Z</time>
      </trkpt>
      <trkpt lat="49.16736" lon="6.77232">
        <ele>243.13</ele>
        <time>2020-01-12T12:40:00.000Z</time>
      </trkpt>
      <trkpt lat="49.16727" lon="6.77202">
        <ele>241.16</ele>
        <time>2020-01-12T12:40:10.000Z</time>
      </trkpt>
      <trkpt lat="49.1672" lon="6.77178">
        <ele>241.08</ele>
        <time>2020-01-12T12:40:20.000Z</time>
      </trkpt>
      <trkpt lat="49.16718" lon="6.77154">
        <ele>241.65</ele>
        <time>2020-01-12T12:40:30.000Z</time>
      </trkpt>
      <trkpt lat="49.16719" lon="6.7713">
        <ele>244.63</ele>
        <time>2020-01-12T12:40:40.000Z</time>
      </trkpt>
      <trkpt lat="49.16719" lon="6.77109">
        <ele>247.31</ele>
        <time>2020-01-12T12:40:50.000Z</time>
      </trkpt>
      <trkpt lat="49.16718" lon="6.77088">
        <ele>249.05</ele>
        <time>2020-01-12T12:41:00.000Z</time>
      </trkpt>
      <trkpt lat="49.16716" lon="6.77068">
        <ele>251.79</ele>
        <time>2020-01-12T12:41:10.000Z</time>
      </trkpt>
      <trkpt lat="49.16714" lon="6.77048">
        <ele>253.78</ele>
        <time>2020-01-12T12:41:20.000Z</time>
      </trkpt>
      <trkpt lat="49.16713" lon="6.77026">
        <ele>255.49</ele>
        <time>2020-01-12T12:41:30.000Z</time>
      </trkpt>
      <trkpt lat="49.16716" lon="6.76996">
        <ele>258.71</ele>
        <time>2020-01-12T12:41:40.000Z</time>
      </trkpt>
      <trkpt lat="49.16719" lon="6.76968">
        <ele>258.6</ele>
        <time>2020-01-12T12:41:50.000Z</time>
      </trkpt>
      <trkpt lat="49.16725" lon="6.76943">
        <ele>259.73</ele>
        <time>2020-01-12T12:42:00.000Z</time>
      </trkpt>
      <trkpt lat="49.1673" lon="6.76922">
        <ele>260.32</ele>
        <time>2020-01-12T12:42:10.000Z</time>
      </trkpt>
      <trkpt lat="49.16734" lon="6.76904">
        <ele>263.99</ele>
        <time>2020-01-12T12:42:20.000Z</time>
      </trkpt>
      <trkpt lat="49.16734" lon="6.76882">
        <ele>265.53</ele>
        <time>2020-01-12T12:42:30.000Z</time>
      </trkpt>
      <trkpt lat="49.16733" lon="6.76858">
        <ele>270.45</ele>
        <time>2020-01-12T12:42:40.000Z</time>
      </trkpt>
      <trkpt lat="49.16733" lon="6.76837">
        <ele>270.8</ele>
        <time>2020-01-12T12:42:50.000Z</time>
      </trkpt>
      <trkpt lat="49.16735" lon="6.76816">
        <ele>271.3</ele>
        <time>2020-01-12T12:43:00.000Z</time>
      </trkpt>
      <trkpt lat="49.16735" lon="6.76797">
        <ele>276.11</ele>
        <time>2020-01-12T12:43:10.000Z</time>
      </trkpt>
      <trkpt lat="49.16737" lon="6.76777">
        <ele>276.85</ele>
        <time>2020-01-12T12:43:20.000Z</time>
      </trkpt>
      <trkpt lat="49.1674" lon="6.7675">
        <ele>276.65</ele>
        <time>2020-01-12T12:43:30.000Z</time>
      </trkpt>
      <trkpt lat="49.16743" lon="6.76722">
        <ele>277.99</ele>
        <time>2020-01-12T12:43:40.000Z</time>
      </trkpt>
      <trkpt lat="49.16744" lon="6.76698">
        <ele>278.4</ele>
        <time>2020-01-12T12:43:50.000Z</time>
      </trkpt>
      <trkpt lat="49.16745" lon="6.7668">
        <ele>280.14</ele>
        <time>2020-01-12T12:44:00.000Z</time>
      </trkpt>
      <trkpt lat="49.16745" lon="6.7666">
        <ele>280.46</ele>
        <time>2020-01-12T12:44:10.000Z</time>
      </trkpt>
      <trkpt lat="49.16746" lon="6.76638">
        <ele>279.71</ele>
        <time>2020-01-12T12:44:20.000Z</time>
      </trkpt>
      <trkpt lat="49.16749" lon="6.76612">
        <ele>277.57</ele>
        <time>2020-01-12T12:44:30.000Z</time>
      </trkpt>
      <trkpt lat="49.16751" lon="6.76589">
        <ele>275.84</ele>
        <time>2020-01-12T12:44:40.000Z</time>
      </trkpt>
      <trkpt lat="49.16752" lon="6.76569">
        <ele>276.51</ele>
        <time>2020-01-12T12:44:50.000Z</time>
      </trkpt>
      <trkpt lat="49.16755" lon="6.76549">
        <ele>274.23</ele>
        <time>2020-01-12T12:45:00.000Z</time>
      </trkpt>
      <trkpt lat="49.16761" lon="6.76529">
        <ele>276.41</ele>
        <time>2020-01-12T12:45:10.000Z</time>
      </trkpt>
      <trkpt lat="49.16771" lon="6.76512">
        <ele>278.29</ele>
        <time>2020-01-12T12:45:20.000Z</time>
      </trkpt>
      <trkpt lat="49.16784" lon="6.76494">
        <ele>278.61</ele>
        <time>2020-01-12T12:45:30.000Z</time>
      </trkpt>
      <trkpt lat="49.16796" lon="6.76476">
        <ele>278.66</ele>
        <time>2020-01-12T12:45:40.000Z</time>
      </trkpt>
      <trkpt lat="49.16809" lon="6.7646">
        <ele>282.84</ele>
        <time>2020-01-12T12:45:50.000Z</time>
      </trkpt>
      <trkpt lat="49.1682" lon="6.76446">
        <ele>286.08</ele>
        <time>2020-01-12T12:46:00.000Z</time>
      </trkpt>
      <trkpt lat="49.16831" lon="6.76435">
        <ele>285.72</ele>
        <time>2020-01-12T12:46:10.000Z</time>
      </trkpt>
      <trkpt lat="49.16844" lon="6.76426">
        <ele>288.1</ele>
        <time>2020-01-12T12:46:20.000Z</time>
      </trkpt>
      <trkpt lat="49.16855" lon="6.76416">
        <ele>289.14</ele>
        <time>2020-01-12T12:46:30.000Z</time>
      </trkpt>
      <trkpt lat="49.16866" lon="6.76407">
        <ele>292.94</ele>
        <time>2020-01-12T12:46:40.000Z</time>
      </trkpt>
      <trkpt lat="49.16877" lon="6.76399">
        <ele>294.84</ele>
        <time>2020-01-12T12:46:50.000Z</time>
      </trkpt>
      <trkpt lat="49.16887" lon="6.76388">
        <ele>297.18</ele>
        <time>2020-01-12T12:47:00.000Z</time>
      </trkpt>
      <trkpt lat="49.16894" lon="6.76375">
        <ele>296.83</ele>
        <time>2020-01-12T12:47:10.000Z</time>
      </trkpt>
      <trkpt lat="49.16894" lon="6.7636">
        <ele>294.62</ele>
        <time>2020-01-12T12:47:20.000Z</time>
      </trkpt>
      <trkpt lat="49.16892" lon="6.76353">
        <ele>291.31</ele>
        <time>2020-01-12T12:47:30.000Z</time>
      </trkpt>
      <trkpt lat="49.16889" lon="6.76348">
        <ele>288.16</ele>
        <time>2020-01-12T12:47:40.000Z</time>
      </trkpt>
      <trkpt lat="49.16887" lon="6.76349">
        <ele>288.16</ele>
        <time>2020-01-12T12:47:50.000Z</time>
      </trkpt>
      <trkpt lat="49.16889" lon="6.76355">
        <ele>290.25</ele>
        <time>2020-01-12T12:48:25.000Z</time>
      </trkpt>
      <trkpt lat="49.16889" lon="6.76356">
        <ele>291.49</ele>
        <time>2020-01-12T12:48:35.000Z</time>
      </trkpt>
      <trkpt lat="49.16886" lon="6.76355">
        <ele>290.71</ele>
        <time>2020-01-12T12:50:15.000Z</time>
      </trkpt>
      <trkpt lat="49.16886" lon="6.76351">
        <ele>288.03</ele>
        <time>2020-01-12T12:50:25.000Z</time>
      </trkpt>
      <trkpt lat="49.16886" lon="6.76353">
        <ele>287.97</ele>
        <time>2020-01-12T12:51:54.000Z</time>
      </trkpt>
      <trkpt lat="49.16882" lon="6.76358">
        <ele>286.43</ele>
        <time>2020-01-12T12:52:04.000Z</time>
      </trkpt>
      <trkpt lat="49.16883" lon="6.76357">
        <ele>287.3</ele>
        <time>2020-01-12T12:53:02.000Z</time>
      </trkpt>
      <trkpt lat="49.1689" lon="6.76349">
        <ele>287.74</ele>
        <time>2020-01-12T12:53:12.000Z</time>
      </trkpt>
      <trkpt lat="49.16892" lon="6.76346">
        <ele>287.74</ele>
        <time>2020-01-12T12:53:22.000Z</time>
      </trkpt>
      <trkpt lat="49.16892" lon="6.76345">
        <ele>287.36</ele>
        <time>2020-01-12T12:55:02.000Z</time>
      </trkpt>
      <trkpt lat="49.16888" lon="6.76337">
        <ele>286.28</ele>
        <time>2020-01-12T12:55:12.000Z</time>
      </trkpt>
      <trkpt lat="49.16885" lon="6.76326">
        <ele>285.34</ele>
        <time>2020-01-12T12:55:22.000Z</time>
      </trkpt>
      <trkpt lat="49.16879" lon="6.76304">
        <ele>285.9</ele>
        <time>2020-01-12T12:55:32.000Z</time>
      </trkpt>
      <trkpt lat="49.16874" lon="6.76291">
        <ele>284.51</ele>
        <time>2020-01-12T12:55:42.000Z</time>
      </trkpt>
      <trkpt lat="49.16868" lon="6.7627">
        <ele>289.24</ele>
        <time>2020-01-12T12:55:52.000Z</time>
      </trkpt>
      <trkpt lat="49.16863" lon="6.76261">
        <ele>290.74</ele>
        <time>2020-01-12T12:56:02.000Z</time>
      </trkpt>
      <trkpt lat="49.16856" lon="6.7624">
        <ele>292.14</ele>
        <time>2020-01-12T12:56:12.000Z</time>
      </trkpt>
      <trkpt lat="49.16847" lon="6.76221">
        <ele>295.62</ele>
        <time>2020-01-12T12:56:22.000Z</time>
      </trkpt>
      <trkpt lat="49.16839" lon="6.76204">
        <ele>298.22</ele>
        <time>2020-01-12T12:56:32.000Z</time>
      </trkpt>
      <trkpt lat="49.16832" lon="6.76185">
        <ele>298.65</ele>
        <time>2020-01-12T12:56:42.000Z</time>
      </trkpt>
      <trkpt lat="49.16826" lon="6.76167">
        <ele>298.77</ele>
        <time>2020-01-12T12:56:52.000Z</time>
      </trkpt>
      <trkpt lat="49.1682" lon="6.76148">
        <ele>300.66</ele>
        <time>2020-01-12T12:57:02.000Z</time>
      </trkpt>
      <trkpt lat="49.16813" lon="6.76132">
        <ele>301.39</ele>
        <time>2020-01-12T12:57:12.000Z</time>
      </trkpt>
      <trkpt lat="49.16806" lon="6.76117">
        <ele>302.14</ele>
        <time>2020-01-12T12:57:22.000Z</time>
      </trkpt>
      <trkpt lat="49.16799" lon="6.761">
        <ele>302.59</ele>
        <time>2020-01-12T12:57:32.000Z</time>
      </trkpt>
      <trkpt lat="49.16788" lon="6.76084">
        <ele>301.65</ele>
        <time>2020-01-12T12:57:42.000Z</time>
      </trkpt>
      <trkpt lat="49.16779" lon="6.76067">
        <ele>299.45</ele>
        <time>2020-01-12T12:57:52.000Z</time>
      </trkpt>
      <trkpt lat="49.1677" lon="6.76048">
        <ele>299.8</ele>
        <time>2020-01-12T12:58:02.000Z</time>
      </trkpt>
      <trkpt lat="49.16763" lon="6.76028">
        <ele>300.54</ele>
        <time>2020-01-12T12:58:12.000Z</time>
      </trkpt>
      <trkpt lat="49.16755" lon="6.76012">
        <ele>300.93</ele>
        <time>2020-01-12T12:58:22.000Z</time>
      </trkpt>
      <trkpt lat="49.16749" lon="6.75997">
        <ele>301.92</ele>
        <time>2020-01-12T12:58:32.000Z</time>
      </trkpt>
      <trkpt lat="49.16744" lon="6.7598">
        <ele>302.11</ele>
        <time>2020-01-12T12:58:42.000Z</time>
      </trkpt>
      <trkpt lat="49.16738" lon="6.75959">
        <ele>303.91</ele>
        <time>2020-01-12T12:58:52.000Z</time>
      </trkpt>
      <trkpt lat="49.16731" lon="6.7594">
        <ele>303.58</ele>
        <time>2020-01-12T12:59:02.000Z</time>
      </trkpt>
      <trkpt lat="49.16722" lon="6.75922">
        <ele>302.44</ele>
        <time>2020-01-12T12:59:12.000Z</time>
      </trkpt>
      <trkpt lat="49.16722" lon="6.75904">
        <ele>299.89</ele>
        <time>2020-01-12T12:59:22.000Z</time>
      </trkpt>
      <trkpt lat="49.16729" lon="6.75889">
        <ele>298.62</ele>
        <time>2020-01-12T12:59:32.000Z</time>
      </trkpt>
      <trkpt lat="49.16736" lon="6.75865">
        <ele>299.78</ele>
        <time>2020-01-12T12:59:42.000Z</time>
      </trkpt>
      <trkpt lat="49.16744" lon="6.75837">
        <ele>302.21</ele>
        <time>2020-01-12T12:59:52.000Z</time>
      </trkpt>
      <trkpt lat="49.16753" lon="6.75817">
        <ele>303.2</ele>
        <time>2020-01-12T13:00:02.000Z</time>
      </trkpt>
      <trkpt lat="49.16763" lon="6.75801">
        <ele>301.99</ele>
        <time>2020-01-12T13:00:12.000Z</time>
      </trkpt>
      <trkpt lat="49.16773" lon="6.75788">
        <ele>303.97</ele>
        <time>2020-01-12T13:00:22.000Z</time>
      </trkpt>
      <trkpt lat="49.16785" lon="6.75776">
        <ele>305.57</ele>
        <time>2020-01-12T13:00:32.000Z</time>
      </trkpt>
      <trkpt lat="49.16797" lon="6.75767">
        <ele>303.42</ele>
        <time>2020-01-12T13:00:42.000Z</time>
      </trkpt>
      <trkpt lat="49.16814" lon="6.75758">
        <ele>303.54</ele>
        <time>2020-01-12T13:00:52.000Z</time>
      </trkpt>
      <trkpt lat="49.16827" lon="6.75748">
        <ele>303.97</ele>
        <time>2020-01-12T13:01:02.000Z</time>
      </trkpt>
      <trkpt lat="49.1684" lon="6.75738">
        <ele>304.23</ele>
        <time>2020-01-12T13:01:12.000Z</time>
      </trkpt>
      <trkpt lat="49.16853" lon="6.75726">
        <ele>304.24</ele>
        <time>2020-01-12T13:01:22.000Z</time>
      </trkpt>
      <trkpt lat="49.16864" lon="6.75711">
        <ele>303.71</ele>
        <time>2020-01-12T13:01:32.000Z</time>
      </trkpt>
      <trkpt lat="49.16876" lon="6.757">
        <ele>305.56</ele>
        <time>2020-01-12T13:01:42.000Z</time>
      </trkpt>
      <trkpt lat="49.16887" lon="6.75686">
        <ele>308.16</ele>
        <time>2020-01-12T13:01:52.000Z</time>
      </trkpt>
      <trkpt lat="49.16897" lon="6.75677">
        <ele>306.77</ele>
        <time>2020-01-12T13:02:02.000Z</time>
      </trkpt>
      <trkpt lat="49.16908" lon="6.75669">
        <ele>306.26</ele>
        <time>2020-01-12T13:02:12.000Z</time>
      </trkpt>
      <trkpt lat="49.16919" lon="6.75661">
        <ele>306.93</ele>
        <time>2020-01-12T13:02:22.000Z</time>
      </trkpt>
      <trkpt lat="49.1693" lon="6.75653">
        <ele>305.33</ele>
        <time>2020-01-12T13:02:32.000Z</time>
      </trkpt>
      <trkpt lat="49.16942" lon="6.75642">
        <ele>304.5</ele>
        <time>2020-01-12T13:02:42.000Z</time>
      </trkpt>
      <trkpt lat="49.16952" lon="6.75632">
        <ele>303.51</ele>
        <time>2020-01-12T13:02:52.000Z</time>
      </trkpt>
      <trkpt lat="49.16962" lon="6.75625">
        <ele>304.81</ele>
        <time>2020-01-12T13:03:02.000Z</time>
      </trkpt>
      <trkpt lat="49.16975" lon="6.75616">
        <ele>303.52</ele>
        <time>2020-01-12T13:03:12.000Z</time>
      </trkpt>
      <trkpt lat="49.16989" lon="6.75603">
        <ele>300.01</ele>
        <time>2020-01-12T13:03:22.000Z</time>
      </trkpt>
      <trkpt lat="49.17001" lon="6.75593">
        <ele>300.27</ele>
        <time>2020-01-12T13:03:32.000Z</time>
      </trkpt>
      <trkpt lat="49.17012" lon="6.75584">
        <ele>297.67</ele>
        <time>2020-01-12T13:03:42.000Z</time>
      </trkpt>
      <trkpt lat="49.17024" lon="6.75576">
        <ele>300.17</ele>
        <time>2020-01-12T13:03:52.000Z</time>
      </trkpt>
      <trkpt lat="49.17034" lon="6.75563">
        <ele>302.03</ele>
        <time>2020-01-12T13:04:02.000Z</time>
      </trkpt>
      <trkpt lat="49.17045" lon="6.75557">
        <ele>303.33</ele>
        <time>2020-01-12T13:04:12.000Z</time>
      </trkpt>
      <trkpt lat="49.17056" lon="6.75551">
        <ele>304.44</ele>
        <time>2020-01-12T13:04:22.000Z</time>
      </trkpt>
      <trkpt lat="49.17068" lon="6.75545">
        <ele>304.7</ele>
        <time>2020-01-12T13:04:32.000Z</time>
      </trkpt>
      <trkpt lat="49.17081" lon="6.75532">
        <ele>306.66</ele>
        <time>2020-01-12T13:04:42.000Z</time>
      </trkpt>
      <trkpt lat="49.17091" lon="6.7552">
        <ele>309.07</ele>
        <time>2020-01-12T13:04:52.000Z</time>
      </trkpt>
      <trkpt lat="49.171" lon="6.75504">
        <ele>311.3</ele>
        <time>2020-01-12T13:05:02.000Z</time>
      </trkpt>
      <trkpt lat="49.1711" lon="6.75493">
        <ele>312.33</ele>
        <time>2020-01-12T13:05:12.000Z</time>
      </trkpt>
      <trkpt lat="49.17119" lon="6.75481">
        <ele>313.53</ele>
        <time>2020-01-12T13:05:22.000Z</time>
      </trkpt>
      <trkpt lat="49.17131" lon="6.75471">
        <ele>311.73</ele>
        <time>2020-01-12T13:05:32.000Z</time>
      </trkpt>
      <trkpt lat="49.17144" lon="6.75458">
        <ele>311.24</ele>
        <time>2020-01-12T13:05:42.000Z</time>
      </trkpt>
      <trkpt lat="49.17157" lon="6.75443">
        <ele>311.82</ele>
        <time>2020-01-12T13:05:52.000Z</time>
      </trkpt>
      <trkpt lat="49.17169" lon="6.75432">
        <ele>312.15</ele>
        <time>2020-01-12T13:06:02.000Z</time>
      </trkpt>
      <trkpt lat="49.1718" lon="6.75424">
        <ele>312.13</ele>
        <time>2020-01-12T13:06:12.000Z</time>
      </trkpt>
      <trkpt lat="49.17191" lon="6.75417">
        <ele>313.53</ele>
        <time>2020-01-12T13:06:22.000Z</time>
      </trkpt>
      <trkpt lat="49.17206" lon="6.75407">
        <ele>315.47</ele>
        <time>2020-01-12T13:06:32.000Z</time>
      </trkpt>
      <trkpt lat="49.17219" lon="6.75397">
        <ele>316.99</ele>
        <time>2020-01-12T13:06:42.000Z</time>
      </trkpt>
      <trkpt lat="49.17231" lon="6.75385">
        <ele>319.38</ele>
        <time>2020-01-12T13:06:52.000Z</time>
      </trkpt>
      <trkpt lat="49.17242" lon="6.75372">
        <ele>319.13</ele>
        <time>2020-01-12T13:07:02.000Z</time>
      </trkpt>
      <trkpt lat="49.17252" lon="6.75362">
        <ele>319.35</ele>
        <time>2020-01-12T13:07:12.000Z</time>
      </trkpt>
      <trkpt lat="49.1726" lon="6.75352">
        <ele>316.69</ele>
        <time>2020-01-12T13:07:22.000Z</time>
      </trkpt>
      <trkpt lat="49.1727" lon="6.7534">
        <ele>316.65</ele>
        <time>2020-01-12T13:07:32.000Z</time>
      </trkpt>
      <trkpt lat="49.17282" lon="6.75324">
        <ele>315.81</ele>
        <time>2020-01-12T13:07:42.000Z</time>
      </trkpt>
      <trkpt lat="49.17293" lon="6.7531">
        <ele>315.43</ele>
        <time>2020-01-12T13:07:52.000Z</time>
      </trkpt>
      <trkpt lat="49.17304" lon="6.75297">
        <ele>314.97</ele>
        <time>2020-01-12T13:08:02.000Z</time>
      </trkpt>
      <trkpt lat="49.17317" lon="6.75278">
        <ele>314.74</ele>
        <time>2020-01-12T13:08:12.000Z</time>
      </trkpt>
      <trkpt lat="49.17328" lon="6.75262">
        <ele>314.18</ele>
        <time>2020-01-12T13:08:22.000Z</time>
      </trkpt>
      <trkpt lat="49.1734" lon="6.7525">
        <ele>311.05</ele>
        <time>2020-01-12T13:08:32.000Z</time>
      </trkpt>
      <trkpt lat="49.17352" lon="6.75235">
        <ele>308.64</ele>
        <time>2020-01-12T13:08:42.000Z</time>
      </trkpt>
      <trkpt lat="49.17363" lon="6.75221">
        <ele>306.54</ele>
        <time>2020-01-12T13:08:52.000Z</time>
      </trkpt>
      <trkpt lat="49.17373" lon="6.75207">
        <ele>305.12</ele>
        <time>2020-01-12T13:09:02.000Z</time>
      </trkpt>
      <trkpt lat="49.17384" lon="6.75194">
        <ele>307.34</ele>
        <time>2020-01-12T13:09:12.000Z</time>
      </trkpt>
      <trkpt lat="49.1739" lon="6.75182">
        <ele>309.76</ele>
        <time>2020-01-12T13:09:22.000Z</time>
      </trkpt>
      <trkpt lat="49.17398" lon="6.75171">
        <ele>309.17</ele>
        <time>2020-01-12T13:09:32.000Z</time>
      </trkpt>
      <trkpt lat="49.17407" lon="6.7516">
        <ele>310.54</ele>
        <time>2020-01-12T13:09:42.000Z</time>
      </trkpt>
      <trkpt lat="49.17417" lon="6.75146">
        <ele>312.3</ele>
        <time>2020-01-12T13:09:52.000Z</time>
      </trkpt>
      <trkpt lat="49.17427" lon="6.75135">
        <ele>312.12</ele>
        <time>2020-01-12T13:10:02.000Z</time>
      </trkpt>
      <trkpt lat="49.17438" lon="6.75129">
        <ele>311.45</ele>
        <time>2020-01-12T13:10:12.000Z</time>
      </trkpt>
      <trkpt lat="49.17449" lon="6.75125">
        <ele>310.22</ele>
        <time>2020-01-12T13:10:22.000Z</time>
      </trkpt>
      <trkpt lat="49.17461" lon="6.75116">
        <ele>308.81</ele>
        <time>2020-01-12T13:10:32.000Z</time>
      </trkpt>
      <trkpt lat="49.17469" lon="6.75102">
        <ele>309.45</ele>
        <time>2020-01-12T13:10:42.000Z</time>
      </trkpt>
      <trkpt lat="49.17476" lon="6.75091">
        <ele>309.05</ele>
        <time>2020-01-12T13:10:52.000Z</time>
      </trkpt>
      <trkpt lat="49.17486" lon="6.75081">
        <ele>309.36</ele>
        <time>2020-01-12T13:11:02.000Z</time>
      </trkpt>
      <trkpt lat="49.17497" lon="6.75068">
        <ele>307.68</ele>
        <time>2020-01-12T13:11:12.000Z</time>
      </trkpt>
      <trkpt lat="49.17506" lon="6.75046">
        <ele>308.19</ele>
        <time>2020-01-12T13:11:22.000Z</time>
      </trkpt>
      <trkpt lat="49.17517" lon="6.75023">
        <ele>306.85</ele>
        <time>2020-01-12T13:11:32.000Z</time>
      </trkpt>
      <trkpt lat="49.17528" lon="6.75003">
        <ele>305.4</ele>
        <time>2020-01-12T13:11:42.000Z</time>
      </trkpt>
      <trkpt lat="49.17541" lon="6.74986">
        <ele>303.18</ele>
        <time>2020-01-12T13:11:52.000Z</time>
      </trkpt>
      <trkpt lat="49.17553" lon="6.74971">
        <ele>300.7</ele>
        <time>2020-01-12T13:12:02.000Z</time>
      </trkpt>
      <trkpt lat="49.17563" lon="6.74958">
        <ele>301.21</ele>
        <time>2020-01-12T13:12:12.000Z</time>
      </trkpt>
      <trkpt lat="49.17574" lon="6.74947">
        <ele>303.76</ele>
        <time>2020-01-12T13:12:22.000Z</time>
      </trkpt>
      <trkpt lat="49.17584" lon="6.74937">
        <ele>305.15</ele>
        <time>2020-01-12T13:12:32.000Z</time>
      </trkpt>
      <trkpt lat="49.17596" lon="6.74925">
        <ele>303.49</ele>
        <time>2020-01-12T13:12:42.000Z</time>
      </trkpt>
      <trkpt lat="49.17602" lon="6.7492">
        <ele>304.13</ele>
        <time>2020-01-12T13:12:52.000Z</time>
      </trkpt>
      <trkpt lat="49.17613" lon="6.7491">
        <ele>303.28</ele>
        <time>2020-01-12T13:13:02.000Z</time>
      </trkpt>
      <trkpt lat="49.17621" lon="6.74898">
        <ele>300.15</ele>
        <time>2020-01-12T13:13:12.000Z</time>
      </trkpt>
      <trkpt lat="49.17632" lon="6.74884">
        <ele>298.79</ele>
        <time>2020-01-12T13:13:22.000Z</time>
      </trkpt>
      <trkpt lat="49.17642" lon="6.74871">
        <ele>295.93</ele>
        <time>2020-01-12T13:13:32.000Z</time>
      </trkpt>
      <trkpt lat="49.17651" lon="6.74854">
        <ele>294.11</ele>
        <time>2020-01-12T13:13:42.000Z</time>
      </trkpt>
      <trkpt lat="49.17649" lon="6.7484">
        <ele>289.65</ele>
        <time>2020-01-12T13:13:52.000Z</time>
      </trkpt>
      <trkpt lat="49.17651" lon="6.74831">
        <ele>285.6</ele>
        <time>2020-01-12T13:14:02.000Z</time>
      </trkpt>
      <trkpt lat="49.17654" lon="6.74817">
        <ele>284.82</ele>
        <time>2020-01-12T13:14:12.000Z</time>
      </trkpt>
      <trkpt lat="49.17654" lon="6.74802">
        <ele>283.47</ele>
        <time>2020-01-12T13:14:22.000Z</time>
      </trkpt>
      <trkpt lat="49.17651" lon="6.74788">
        <ele>283.21</ele>
        <time>2020-01-12T13:14:32.000Z</time>
      </trkpt>
      <trkpt lat="49.17641" lon="6.74775">
        <ele>284.93</ele>
        <time>2020-01-12T13:14:42.000Z</time>
      </trkpt>
      <trkpt lat="49.17636" lon="6.7476">
        <ele>284.86</ele>
        <time>2020-01-12T13:14:52.000Z</time>
      </trkpt>
      <trkpt lat="49.17628" lon="6.74744">
        <ele>286.77</ele>
        <time>2020-01-12T13:15:02.000Z</time>
      </trkpt>
      <trkpt lat="49.17623" lon="6.74725">
        <ele>285.9</ele>
        <time>2020-01-12T13:15:12.000Z</time>
      </trkpt>
      <trkpt lat="49.17615" lon="6.74708">
        <ele>284.14</ele>
        <time>2020-01-12T13:15:22.000Z</time>
      </trkpt>
      <trkpt lat="49.1761" lon="6.74693">
        <ele>283.05</ele>
        <time>2020-01-12T13:15:32.000Z</time>
      </trkpt>
      <trkpt lat="49.17607" lon="6.74674">
        <ele>280.08</ele>
        <time>2020-01-12T13:15:42.000Z</time>
      </trkpt>
      <trkpt lat="49.1761" lon="6.74651">
        <ele>277.7</ele>
        <time>2020-01-12T13:15:52.000Z</time>
      </trkpt>
      <trkpt lat="49.17613" lon="6.7463">
        <ele>277.89</ele>
        <time>2020-01-12T13:16:02.000Z</time>
      </trkpt>
      <trkpt lat="49.17609" lon="6.74607">
        <ele>277.87</ele>
        <time>2020-01-12T13:16:12.000Z</time>
      </trkpt>
      <trkpt lat="49.1761" lon="6.74593">
        <ele>277.93</ele>
        <time>2020-01-12T13:16:22.000Z</time>
      </trkpt>
      <trkpt lat="49.1761" lon="6.7457">
        <ele>278.48</ele>
        <time>2020-01-12T13:16:32.000Z</time>
      </trkpt>
      <trkpt lat="49.17611" lon="6.74551">
        <ele>278.84</ele>
        <time>2020-01-12T13:16:42.000Z</time>
      </trkpt>
      <trkpt lat="49.17613" lon="6.74544">
        <ele>276.84</ele>
        <time>2020-01-12T13:16:52.000Z</time>
      </trkpt>
      <trkpt lat="49.17622" lon="6.7452">
        <ele>276.5</ele>
        <time>2020-01-12T13:17:02.000Z</time>
      </trkpt>
      <trkpt lat="49.17636" lon="6.74503">
        <ele>277.77</ele>
        <time>2020-01-12T13:17:12.000Z</time>
      </trkpt>
      <trkpt lat="49.17647" lon="6.74488">
        <ele>277.76</ele>
        <time>2020-01-12T13:17:22.000Z</time>
      </trkpt>
      <trkpt lat="49.17653" lon="6.74472">
        <ele>277.8</ele>
        <time>2020-01-12T13:17:32.000Z</time>
      </trkpt>
      <trkpt lat="49.17659" lon="6.74456">
        <ele>273.49</ele>
        <time>2020-01-12T13:17:42.000Z</time>
      </trkpt>
      <trkpt lat="49.17668" lon="6.74444">
        <ele>267.03</ele>
        <time>2020-01-12T13:17:52.000Z</time>
      </trkpt>
      <trkpt lat="49.17669" lon="6.74444">
        <ele>267</ele>
        <time>2020-01-12T13:18:11.000Z</time>
      </trkpt>
      <trkpt lat="49.1767" lon="6.74433">
        <ele>265.61</ele>
        <time>2020-01-12T13:18:21.000Z</time>
      </trkpt>
      <trkpt lat="49.17672" lon="6.74415">
        <ele>262.23</ele>
        <time>2020-01-12T13:18:31.000Z</time>
      </trkpt>
      <trkpt lat="49.17674" lon="6.74398">
        <ele>261.46</ele>
        <time>2020-01-12T13:18:41.000Z</time>
      </trkpt>
      <trkpt lat="49.17677" lon="6.74382">
        <ele>260.54</ele>
        <time>2020-01-12T13:18:51.000Z</time>
      </trkpt>
      <trkpt lat="49.17681" lon="6.74363">
        <ele>258.24</ele>
        <time>2020-01-12T13:19:01.000Z</time>
      </trkpt>
      <trkpt lat="49.17685" lon="6.74344">
        <ele>256.2</ele>
        <time>2020-01-12T13:19:11.000Z</time>
      </trkpt>
      <trkpt lat="49.1769" lon="6.74324">
        <ele>253.41</ele>
        <time>2020-01-12T13:19:21.000Z</time>
      </trkpt>
      <trkpt lat="49.17698" lon="6.74296">
        <ele>251.06</ele>
        <time>2020-01-12T13:19:31.000Z</time>
      </trkpt>
      <trkpt lat="49.17704" lon="6.74277">
        <ele>251.07</ele>
        <time>2020-01-12T13:19:41.000Z</time>
      </trkpt>
      <trkpt lat="49.1771" lon="6.7426">
        <ele>253.21</ele>
        <time>2020-01-12T13:19:51.000Z</time>
      </trkpt>
      <trkpt lat="49.17718" lon="6.74245">
        <ele>252.39</ele>
        <time>2020-01-12T13:20:01.000Z</time>
      </trkpt>
      <trkpt lat="49.17726" lon="6.74229">
        <ele>251.83</ele>
        <time>2020-01-12T13:20:11.000Z</time>
      </trkpt>
      <trkpt lat="49.17732" lon="6.74216">
        <ele>250.61</ele>
        <time>2020-01-12T13:20:21.000Z</time>
      </trkpt>
      <trkpt lat="49.17739" lon="6.74202">
        <ele>251.15</ele>
        <time>2020-01-12T13:20:31.000Z</time>
      </trkpt>
      <trkpt lat="49.17749" lon="6.74186">
        <ele>250.17</ele>
        <time>2020-01-12T13:20:41.000Z</time>
      </trkpt>
      <trkpt lat="49.17761" lon="6.74166">
        <ele>251.28</ele>
        <time>2020-01-12T13:20:51.000Z</time>
      </trkpt>
      <trkpt lat="49.17773" lon="6.74149">
        <ele>253.4</ele>
        <time>2020-01-12T13:21:01.000Z</time>
      </trkpt>
      <trkpt lat="49.17781" lon="6.74138">
        <ele>252.05</ele>
        <time>2020-01-12T13:21:11.000Z</time>
      </trkpt>
      <trkpt lat="49.17788" lon="6.74126">
        <ele>251.86</ele>
        <time>2020-01-12T13:21:21.000Z</time>
      </trkpt>
      <trkpt lat="49.17797" lon="6.74114">
        <ele>250.28</ele>
        <time>2020-01-12T13:21:31.000Z</time>
      </trkpt>
      <trkpt lat="49.17816" lon="6.74097">
        <ele>246.99</ele>
        <time>2020-01-12T13:21:41.000Z</time>
      </trkpt>
      <trkpt lat="49.17829" lon="6.7408">
        <ele>248.51</ele>
        <time>2020-01-12T13:21:51.000Z</time>
      </trkpt>
      <trkpt lat="49.17834" lon="6.74061">
        <ele>251.05</ele>
        <time>2020-01-12T13:22:01.000Z</time>
      </trkpt>
      <trkpt lat="49.17836" lon="6.74046">
        <ele>251.51</ele>
        <time>2020-01-12T13:22:11.000Z</time>
      </trkpt>
      <trkpt lat="49.17839" lon="6.74032">
        <ele>251.05</ele>
        <time>2020-01-12T13:22:21.000Z</time>
      </trkpt>
      <trkpt lat="49.1784" lon="6.74015">
        <ele>250.77</ele>
        <time>2020-01-12T13:22:31.000Z</time>
      </trkpt>
      <trkpt lat="49.17839" lon="6.73995">
        <ele>249.96</ele>
        <time>2020-01-12T13:22:41.000Z</time>
      </trkpt>
      <trkpt lat="49.17834" lon="6.7398">
        <ele>249.86</ele>
        <time>2020-01-12T13:22:51.000Z</time>
      </trkpt>
      <trkpt lat="49.17826" lon="6.73969">
        <ele>249.27</ele>
        <time>2020-01-12T13:23:01.000Z</time>
      </trkpt>
      <trkpt lat="49.17817" lon="6.73959">
        <ele>249.56</ele>
        <time>2020-01-12T13:23:11.000Z</time>
      </trkpt>
      <trkpt lat="49.17806" lon="6.7395">
        <ele>248.72</ele>
        <time>2020-01-12T13:23:21.000Z</time>
      </trkpt>
      <trkpt lat="49.17795" lon="6.73942">
        <ele>247.98</ele>
        <time>2020-01-12T13:23:31.000Z</time>
      </trkpt>
      <trkpt lat="49.17783" lon="6.73937">
        <ele>251.31</ele>
        <time>2020-01-12T13:23:41.000Z</time>
      </trkpt>
      <trkpt lat="49.17773" lon="6.73933">
        <ele>253.44</ele>
        <time>2020-01-12T13:23:51.000Z</time>
      </trkpt>
      <trkpt lat="49.17764" lon="6.73932">
        <ele>254.76</ele>
        <time>2020-01-12T13:24:01.000Z</time>
      </trkpt>
      <trkpt lat="49.17754" lon="6.73931">
        <ele>255.86</ele>
        <time>2020-01-12T13:24:11.000Z</time>
      </trkpt>
      <trkpt lat="49.17741" lon="6.73931">
        <ele>256.99</ele>
        <time>2020-01-12T13:24:21.000Z</time>
      </trkpt>
      <trkpt lat="49.17733" lon="6.73931">
        <ele>258</ele>
        <time>2020-01-12T13:24:31.000Z</time>
      </trkpt>
      <trkpt lat="49.17718" lon="6.73931">
        <ele>259.31</ele>
        <time>2020-01-12T13:24:41.000Z</time>
      </trkpt>
      <trkpt lat="49.17702" lon="6.73932">
        <ele>260.64</ele>
        <time>2020-01-12T13:24:51.000Z</time>
      </trkpt>
      <trkpt lat="49.17689" lon="6.73937">
        <ele>264.18</ele>
        <time>2020-01-12T13:25:01.000Z</time>
      </trkpt>
      <trkpt lat="49.17677" lon="6.73934">
        <ele>267.42</ele>
        <time>2020-01-12T13:25:11.000Z</time>
      </trkpt>
      <trkpt lat="49.17669" lon="6.7392">
        <ele>266.44</ele>
        <time>2020-01-12T13:25:21.000Z</time>
      </trkpt>
      <trkpt lat="49.17665" lon="6.73903">
        <ele>264.5</ele>
        <time>2020-01-12T13:25:31.000Z</time>
      </trkpt>
      <trkpt lat="49.17665" lon="6.73885">
        <ele>266.39</ele>
        <time>2020-01-12T13:25:41.000Z</time>
      </trkpt>
      <trkpt lat="49.17662" lon="6.73861">
        <ele>267.49</ele>
        <time>2020-01-12T13:25:51.000Z</time>
      </trkpt>
      <trkpt lat="49.17663" lon="6.73843">
        <ele>268.86</ele>
        <time>2020-01-12T13:26:01.000Z</time>
      </trkpt>
      <trkpt lat="49.17668" lon="6.7383">
        <ele>270.16</ele>
        <time>2020-01-12T13:26:11.000Z</time>
      </trkpt>
      <trkpt lat="49.17677" lon="6.7382">
        <ele>270.87</ele>
        <time>2020-01-12T13:26:21.000Z</time>
      </trkpt>
      <trkpt lat="49.17689" lon="6.7381">
        <ele>270.62</ele>
        <time>2020-01-12T13:26:31.000Z</time>
      </trkpt>
      <trkpt lat="49.17709" lon="6.73795">
        <ele>268.69</ele>
        <time>2020-01-12T13:26:41.000Z</time>
      </trkpt>
      <trkpt lat="49.17715" lon="6.73779">
        <ele>265.72</ele>
        <time>2020-01-12T13:26:51.000Z</time>
      </trkpt>
      <trkpt lat="49.17712" lon="6.73767">
        <ele>263.29</ele>
        <time>2020-01-12T13:27:01.000Z</time>
      </trkpt>
      <trkpt lat="49.1771" lon="6.73759">
        <ele>261.7</ele>
        <time>2020-01-12T13:27:11.000Z</time>
      </trkpt>
      <trkpt lat="49.17711" lon="6.73752">
        <ele>261.27</ele>
        <time>2020-01-12T13:27:21.000Z</time>
      </trkpt>
      <trkpt lat="49.17707" lon="6.73739">
        <ele>261.79</ele>
        <time>2020-01-12T13:27:31.000Z</time>
      </trkpt>
      <trkpt lat="49.177" lon="6.73725">
        <ele>262.88</ele>
        <time>2020-01-12T13:27:41.000Z</time>
      </trkpt>
      <trkpt lat="49.17692" lon="6.73708">
        <ele>263.66</ele>
        <time>2020-01-12T13:27:51.000Z</time>
      </trkpt>
      <trkpt lat="49.17685" lon="6.73692">
        <ele>265.88</ele>
        <time>2020-01-12T13:28:01.000Z</time>
      </trkpt>
      <trkpt lat="49.17686" lon="6.73674">
        <ele>266.57</ele>
        <time>2020-01-12T13:28:11.000Z</time>
      </trkpt>
      <trkpt lat="49.17684" lon="6.73649">
        <ele>267.48</ele>
        <time>2020-01-12T13:28:21.000Z</time>
      </trkpt>
      <trkpt lat="49.17677" lon="6.73629">
        <ele>267.2</ele>
        <time>2020-01-12T13:28:31.000Z</time>
      </trkpt>
      <trkpt lat="49.17669" lon="6.7361">
        <ele>267.66</ele>
        <time>2020-01-12T13:28:41.000Z</time>
      </trkpt>
      <trkpt lat="49.17665" lon="6.73592">
        <ele>268.34</ele>
        <time>2020-01-12T13:28:51.000Z</time>
      </trkpt>
      <trkpt lat="49.17662" lon="6.73574">
        <ele>269.3</ele>
        <time>2020-01-12T13:29:01.000Z</time>
      </trkpt>
      <trkpt lat="49.17663" lon="6.73557">
        <ele>268.37</ele>
        <time>2020-01-12T13:29:11.000Z</time>
      </trkpt>
      <trkpt lat="49.17661" lon="6.73538">
        <ele>268.77</ele>
        <time>2020-01-12T13:29:21.000Z</time>
      </trkpt>
      <trkpt lat="49.17658" lon="6.73521">
        <ele>266.91</ele>
        <time>2020-01-12T13:29:31.000Z</time>
      </trkpt>
      <trkpt lat="49.17655" lon="6.73501">
        <ele>265.13</ele>
        <time>2020-01-12T13:29:41.000Z</time>
      </trkpt>
      <trkpt lat="49.17651" lon="6.73478">
        <ele>262.59</ele>
        <time>2020-01-12T13:29:51.000Z</time>
      </trkpt>
      <trkpt lat="49.17647" lon="6.73459">
        <ele>261.89</ele>
        <time>2020-01-12T13:30:01.000Z</time>
      </trkpt>
      <trkpt lat="49.17635" lon="6.73446">
        <ele>262.56</ele>
        <time>2020-01-12T13:30:11.000Z</time>
      </trkpt>
      <trkpt lat="49.17624" lon="6.73431">
        <ele>262.32</ele>
        <time>2020-01-12T13:30:21.000Z</time>
      </trkpt>
      <trkpt lat="49.17616" lon="6.73419">
        <ele>262.76</ele>
        <time>2020-01-12T13:30:31.000Z</time>
      </trkpt>
      <trkpt lat="49.1761" lon="6.7341">
        <ele>263.13</ele>
        <time>2020-01-12T13:30:41.000Z</time>
      </trkpt>
      <trkpt lat="49.17602" lon="6.73395">
        <ele>260.6</ele>
        <time>2020-01-12T13:30:51.000Z</time>
      </trkpt>
      <trkpt lat="49.17595" lon="6.7338">
        <ele>258.15</ele>
        <time>2020-01-12T13:31:01.000Z</time>
      </trkpt>
      <trkpt lat="49.17589" lon="6.7336">
        <ele>256.98</ele>
        <time>2020-01-12T13:31:11.000Z</time>
      </trkpt>
      <trkpt lat="49.1758" lon="6.73335">
        <ele>253.18</ele>
        <time>2020-01-12T13:31:21.000Z</time>
      </trkpt>
      <trkpt lat="49.17567" lon="6.73313">
        <ele>253.9</ele>
        <time>2020-01-12T13:31:31.000Z</time>
      </trkpt>
      <trkpt lat="49.17558" lon="6.73301">
        <ele>252.66</ele>
        <time>2020-01-12T13:31:41.000Z</time>
      </trkpt>
      <trkpt lat="49.17548" lon="6.73289">
        <ele>247.89</ele>
        <time>2020-01-12T13:31:51.000Z</time>
      </trkpt>
      <trkpt lat="49.1754" lon="6.73278">
        <ele>247.16</ele>
        <time>2020-01-12T13:32:01.000Z</time>
      </trkpt>
      <trkpt lat="49.17535" lon="6.73264">
        <ele>244.67</ele>
        <time>2020-01-12T13:32:11.000Z</time>
      </trkpt>
      <trkpt lat="49.17534" lon="6.73254">
        <ele>244.69</ele>
        <time>2020-01-12T13:32:21.000Z</time>
      </trkpt>
      <trkpt lat="49.17529" lon="6.73248">
        <ele>244.8</ele>
        <time>2020-01-12T13:32:31.000Z</time>
      </trkpt>
      <trkpt lat="49.17525" lon="6.73245">
        <ele>244.8</ele>
        <time>2020-01-12T13:32:41.000Z</time>
      </trkpt>
      <trkpt lat="49.17524" lon="6.73247">
        <ele>244.8</ele>
        <time>2020-01-12T13:32:51.000Z</time>
      </trkpt>
      <trkpt lat="49.17523" lon="6.73249">
        <ele>244.8</ele>
        <time>2020-01-12T13:33:01.000Z</time>
      </trkpt>
      <trkpt lat="49.17523" lon="6.7325">
        <ele>244.8</ele>
        <time>2020-01-12T13:33:11.000Z</time>
      </trkpt>
      <trkpt lat="49.17525" lon="6.73239">
        <ele>245.94</ele>
        <time>2020-01-12T13:36:11.000Z</time>
      </trkpt>
      <trkpt lat="49.1758" lon="6.73231">
        <ele>251.25</ele>
        <time>2020-01-12T13:39:50.761Z</time>
      </trkpt>
      <trkpt lat="49.17562" lon="6.73208">
        <ele>257.95</ele>
        <time>2020-01-12T13:40:00.000Z</time>
      </trkpt>
      <trkpt lat="49.17565" lon="6.73211">
        <ele>254.65</ele>
        <time>2020-01-12T13:40:10.000Z</time>
      </trkpt>
      <trkpt lat="49.17576" lon="6.73212">
        <ele>255.35</ele>
        <time>2020-01-12T13:40:20.000Z</time>
      </trkpt>
      <trkpt lat="49.17586" lon="6.73214">
        <ele>250.24</ele>
        <time>2020-01-12T13:40:30.000Z</time>
      </trkpt>
      <trkpt lat="49.17596" lon="6.73219">
        <ele>244.07</ele>
        <time>2020-01-12T13:40:40.000Z</time>
      </trkpt>
      <trkpt lat="49.17606" lon="6.73226">
        <ele>240.33</ele>
        <time>2020-01-12T13:40:50.000Z</time>
      </trkpt>
      <trkpt lat="49.17622" lon="6.73232">
        <ele>240.69</ele>
        <time>2020-01-12T13:41:00.000Z</time>
      </trkpt>
      <trkpt lat="49.17635" lon="6.73232">
        <ele>242.04</ele>
        <time>2020-01-12T13:41:10.000Z</time>
      </trkpt>
      <trkpt lat="49.17649" lon="6.73236">
        <ele>240.08</ele>
        <time>2020-01-12T13:41:20.000Z</time>
      </trkpt>
      <trkpt lat="49.1765" lon="6.7323">
        <ele>235.83</ele>
        <time>2020-01-12T13:41:30.000Z</time>
      </trkpt>
      <trkpt lat="49.17654" lon="6.73219">
        <ele>235.72</ele>
        <time>2020-01-12T13:41:40.000Z</time>
      </trkpt>
      <trkpt lat="49.17655" lon="6.73197">
        <ele>235.09</ele>
        <time>2020-01-12T13:41:50.000Z</time>
      </trkpt>
      <trkpt lat="49.17654" lon="6.73172">
        <ele>233.67</ele>
        <time>2020-01-12T13:42:00.000Z</time>
      </trkpt>
      <trkpt lat="49.17656" lon="6.73142">
        <ele>233.8</ele>
        <time>2020-01-12T13:42:10.000Z</time>
      </trkpt>
      <trkpt lat="49.17658" lon="6.73122">
        <ele>231.89</ele>
        <time>2020-01-12T13:42:20.000Z</time>
      </trkpt>
      <trkpt lat="49.17658" lon="6.73101">
        <ele>233.01</ele>
        <time>2020-01-12T13:42:30.000Z</time>
      </trkpt>
      <trkpt lat="49.17658" lon="6.73081">
        <ele>232.39</ele>
        <time>2020-01-12T13:42:40.000Z</time>
      </trkpt>
      <trkpt lat="49.17655" lon="6.73064">
        <ele>235.48</ele>
        <time>2020-01-12T13:42:50.000Z</time>
      </trkpt>
      <trkpt lat="49.17652" lon="6.73041">
        <ele>235.42</ele>
        <time>2020-01-12T13:43:00.000Z</time>
      </trkpt>
      <trkpt lat="49.1765" lon="6.73018">
        <ele>237.57</ele>
        <time>2020-01-12T13:43:10.000Z</time>
      </trkpt>
      <trkpt lat="49.17646" lon="6.72997">
        <ele>238.1</ele>
        <time>2020-01-12T13:43:20.000Z</time>
      </trkpt>
      <trkpt lat="49.17642" lon="6.72972">
        <ele>237.89</ele>
        <time>2020-01-12T13:43:30.000Z</time>
      </trkpt>
      <trkpt lat="49.17639" lon="6.72952">
        <ele>238.83</ele>
        <time>2020-01-12T13:43:40.000Z</time>
      </trkpt>
      <trkpt lat="49.17637" lon="6.72931">
        <ele>239.43</ele>
        <time>2020-01-12T13:43:50.000Z</time>
      </trkpt>
      <trkpt lat="49.17635" lon="6.72911">
        <ele>239.95</ele>
        <time>2020-01-12T13:44:00.000Z</time>
      </trkpt>
      <trkpt lat="49.17633" lon="6.72891">
        <ele>239.99</ele>
        <time>2020-01-12T13:44:10.000Z</time>
      </trkpt>
      <trkpt lat="49.17634" lon="6.72869">
        <ele>239.2</ele>
        <time>2020-01-12T13:44:20.000Z</time>
      </trkpt>
      <trkpt lat="49.17635" lon="6.72847">
        <ele>238.42</ele>
        <time>2020-01-12T13:44:30.000Z</time>
      </trkpt>
      <trkpt lat="49.17637" lon="6.72825">
        <ele>238.95</ele>
        <time>2020-01-12T13:44:40.000Z</time>
      </trkpt>
      <trkpt lat="49.17639" lon="6.72805">
        <ele>238.75</ele>
        <time>2020-01-12T13:44:50.000Z</time>
      </trkpt>
      <trkpt lat="49.17641" lon="6.72784">
        <ele>237.27</ele>
        <time>2020-01-12T13:45:00.000Z</time>
      </trkpt>
      <trkpt lat="49.17641" lon="6.72763">
        <ele>238.42</ele>
        <time>2020-01-12T13:45:10.000Z</time>
      </trkpt>
      <trkpt lat="49.1764" lon="6.72744">
        <ele>237.71</ele>
        <time>2020-01-12T13:45:20.000Z</time>
      </trkpt>
      <trkpt lat="49.17642" lon="6.72721">
        <ele>238.01</ele>
        <time>2020-01-12T13:45:30.000Z</time>
      </trkpt>
      <trkpt lat="49.17644" lon="6.72703">
        <ele>238.9</ele>
        <time>2020-01-12T13:45:40.000Z</time>
      </trkpt>
      <trkpt lat="49.17645" lon="6.72681">
        <ele>239.03</ele>
        <time>2020-01-12T13:45:50.000Z</time>
      </trkpt>
      <trkpt lat="49.17649" lon="6.7266">
        <ele>239.05</ele>
        <time>2020-01-12T13:46:00.000Z</time>
      </trkpt>
      <trkpt lat="49.17652" lon="6.72637">
        <ele>238.76</ele>
        <time>2020-01-12T13:46:10.000Z</time>
      </trkpt>
      <trkpt lat="49.17657" lon="6.72614">
        <ele>238.71</ele>
        <time>2020-01-12T13:46:20.000Z</time>
      </trkpt>
      <trkpt lat="49.17661" lon="6.72593">
        <ele>238.6</ele>
        <time>2020-01-12T13:46:30.000Z</time>
      </trkpt>
      <trkpt lat="49.17666" lon="6.72572">
        <ele>240.18</ele>
        <time>2020-01-12T13:46:40.000Z</time>
      </trkpt>
      <trkpt lat="49.17672" lon="6.72555">
        <ele>241.52</ele>
        <time>2020-01-12T13:46:50.000Z</time>
      </trkpt>
      <trkpt lat="49.17677" lon="6.72536">
        <ele>243.89</ele>
        <time>2020-01-12T13:47:00.000Z</time>
      </trkpt>
      <trkpt lat="49.17681" lon="6.72515">
        <ele>245.02</ele>
        <time>2020-01-12T13:47:10.000Z</time>
      </trkpt>
      <trkpt lat="49.1768" lon="6.72497">
        <ele>245.42</ele>
        <time>2020-01-12T13:47:20.000Z</time>
      </trkpt>
      <trkpt lat="49.17675" lon="6.72486">
        <ele>246.89</ele>
        <time>2020-01-12T13:47:30.000Z</time>
      </trkpt>
      <trkpt lat="49.17672" lon="6.72473">
        <ele>248.91</ele>
        <time>2020-01-12T13:47:40.000Z</time>
      </trkpt>
      <trkpt lat="49.1767" lon="6.72459">
        <ele>248.6</ele>
        <time>2020-01-12T13:47:50.000Z</time>
      </trkpt>
      <trkpt lat="49.17666" lon="6.72443">
        <ele>249.81</ele>
        <time>2020-01-12T13:48:00.000Z</time>
      </trkpt>
      <trkpt lat="49.17661" lon="6.72425">
        <ele>252.41</ele>
        <time>2020-01-12T13:48:10.000Z</time>
      </trkpt>
      <trkpt lat="49.17655" lon="6.72407">
        <ele>252.71</ele>
        <time>2020-01-12T13:48:20.000Z</time>
      </trkpt>
      <trkpt lat="49.17648" lon="6.72387">
        <ele>252.06</ele>
        <time>2020-01-12T13:48:30.000Z</time>
      </trkpt>
      <trkpt lat="49.17641" lon="6.72368">
        <ele>252.64</ele>
        <time>2020-01-12T13:48:40.000Z</time>
      </trkpt>
      <trkpt lat="49.17636" lon="6.72349">
        <ele>253.42</ele>
        <time>2020-01-12T13:48:50.000Z</time>
      </trkpt>
      <trkpt lat="49.17628" lon="6.72333">
        <ele>254.71</ele>
        <time>2020-01-12T13:49:00.000Z</time>
      </trkpt>
      <trkpt lat="49.17621" lon="6.72316">
        <ele>256.03</ele>
        <time>2020-01-12T13:49:10.000Z</time>
      </trkpt>
      <trkpt lat="49.17613" lon="6.72298">
        <ele>255.59</ele>
        <time>2020-01-12T13:49:20.000Z</time>
      </trkpt>
      <trkpt lat="49.17606" lon="6.72283">
        <ele>257.49</ele>
        <time>2020-01-12T13:49:30.000Z</time>
      </trkpt>
      <trkpt lat="49.17599" lon="6.72262">
        <ele>260.48</ele>
        <time>2020-01-12T13:49:40.000Z</time>
      </trkpt>
      <trkpt lat="49.17592" lon="6.72245">
        <ele>260.62</ele>
        <time>2020-01-12T13:49:50.000Z</time>
      </trkpt>
      <trkpt lat="49.17586" lon="6.72226">
        <ele>260.7</ele>
        <time>2020-01-12T13:50:00.000Z</time>
      </trkpt>
      <trkpt lat="49.1758" lon="6.72206">
        <ele>261.42</ele>
        <time>2020-01-12T13:50:10.000Z</time>
      </trkpt>
      <trkpt lat="49.17574" lon="6.72187">
        <ele>260.85</ele>
        <time>2020-01-12T13:50:20.000Z</time>
      </trkpt>
      <trkpt lat="49.17568" lon="6.72169">
        <ele>259.83</ele>
        <time>2020-01-12T13:50:30.000Z</time>
      </trkpt>
      <trkpt lat="49.17562" lon="6.72148">
        <ele>259.59</ele>
        <time>2020-01-12T13:50:40.000Z</time>
      </trkpt>
      <trkpt lat="49.1756" lon="6.72129">
        <ele>258.54</ele>
        <time>2020-01-12T13:50:50.000Z</time>
      </trkpt>
      <trkpt lat="49.17565" lon="6.72112">
        <ele>258.12</ele>
        <time>2020-01-12T13:51:00.000Z</time>
      </trkpt>
      <trkpt lat="49.17566" lon="6.72094">
        <ele>259.32</ele>
        <time>2020-01-12T13:51:10.000Z</time>
      </trkpt>
      <trkpt lat="49.17565" lon="6.72073">
        <ele>261.89</ele>
        <time>2020-01-12T13:51:20.000Z</time>
      </trkpt>
      <trkpt lat="49.17571" lon="6.72054">
        <ele>262.32</ele>
        <time>2020-01-12T13:51:30.000Z</time>
      </trkpt>
      <trkpt lat="49.17581" lon="6.72041">
        <ele>262.9</ele>
        <time>2020-01-12T13:51:40.000Z</time>
      </trkpt>
      <trkpt lat="49.17593" lon="6.72024">
        <ele>262.85</ele>
        <time>2020-01-12T13:51:50.000Z</time>
      </trkpt>
      <trkpt lat="49.17606" lon="6.72015">
        <ele>261.43</ele>
        <time>2020-01-12T13:52:00.000Z</time>
      </trkpt>
      <trkpt lat="49.17619" lon="6.72006">
        <ele>261.67</ele>
        <time>2020-01-12T13:52:10.000Z</time>
      </trkpt>
      <trkpt lat="49.17632" lon="6.72">
        <ele>262.45</ele>
        <time>2020-01-12T13:52:20.000Z</time>
      </trkpt>
      <trkpt lat="49.17643" lon="6.71996">
        <ele>263.4</ele>
        <time>2020-01-12T13:52:30.000Z</time>
      </trkpt>
      <trkpt lat="49.17657" lon="6.71986">
        <ele>263.49</ele>
        <time>2020-01-12T13:52:40.000Z</time>
      </trkpt>
      <trkpt lat="49.17665" lon="6.71973">
        <ele>263.09</ele>
        <time>2020-01-12T13:52:50.000Z</time>
      </trkpt>
      <trkpt lat="49.1767" lon="6.71958">
        <ele>264.52</ele>
        <time>2020-01-12T13:53:00.000Z</time>
      </trkpt>
      <trkpt lat="49.17667" lon="6.71947">
        <ele>267.08</ele>
        <time>2020-01-12T13:53:10.000Z</time>
      </trkpt>
      <trkpt lat="49.17666" lon="6.71935">
        <ele>269.38</ele>
        <time>2020-01-12T13:53:20.000Z</time>
      </trkpt>
      <trkpt lat="49.17662" lon="6.71926">
        <ele>270.89</ele>
        <time>2020-01-12T13:53:30.000Z</time>
      </trkpt>
      <trkpt lat="49.17652" lon="6.71917">
        <ele>272.58</ele>
        <time>2020-01-12T13:53:40.000Z</time>
      </trkpt>
      <trkpt lat="49.17651" lon="6.71904">
        <ele>272.22</ele>
        <time>2020-01-12T13:53:50.000Z</time>
      </trkpt>
      <trkpt lat="49.17648" lon="6.7188">
        <ele>269.07</ele>
        <time>2020-01-12T13:54:00.000Z</time>
      </trkpt>
      <trkpt lat="49.17646" lon="6.71856">
        <ele>268.93</ele>
        <time>2020-01-12T13:54:10.000Z</time>
      </trkpt>
      <trkpt lat="49.17652" lon="6.71844">
        <ele>268.03</ele>
        <time>2020-01-12T13:54:20.000Z</time>
      </trkpt>
      <trkpt lat="49.17659" lon="6.71836">
        <ele>263.7</ele>
        <time>2020-01-12T13:54:30.000Z</time>
      </trkpt>
      <trkpt lat="49.17664" lon="6.71822">
        <ele>263.49</ele>
        <time>2020-01-12T13:54:40.000Z</time>
      </trkpt>
      <trkpt lat="49.17673" lon="6.71806">
        <ele>263.63</ele>
        <time>2020-01-12T13:54:50.000Z</time>
      </trkpt>
      <trkpt lat="49.17681" lon="6.71793">
        <ele>264.87</ele>
        <time>2020-01-12T13:55:00.000Z</time>
      </trkpt>
      <trkpt lat="49.17679" lon="6.71776">
        <ele>263.9</ele>
        <time>2020-01-12T13:55:10.000Z</time>
      </trkpt>
      <trkpt lat="49.17679" lon="6.71757">
        <ele>264.49</ele>
        <time>2020-01-12T13:55:20.000Z</time>
      </trkpt>
      <trkpt lat="49.17679" lon="6.7174">
        <ele>264.01</ele>
        <time>2020-01-12T13:55:30.000Z</time>
      </trkpt>
      <trkpt lat="49.17669" lon="6.71741">
        <ele>260.03</ele>
        <time>2020-01-12T13:55:40.000Z</time>
      </trkpt>
      <trkpt lat="49.17658" lon="6.71742">
        <ele>257.73</ele>
        <time>2020-01-12T13:55:50.000Z</time>
      </trkpt>
      <trkpt lat="49.17647" lon="6.71745">
        <ele>255.44</ele>
        <time>2020-01-12T13:56:00.000Z</time>
      </trkpt>
      <trkpt lat="49.17633" lon="6.71748">
        <ele>253.92</ele>
        <time>2020-01-12T13:56:10.000Z</time>
      </trkpt>
      <trkpt lat="49.17619" lon="6.7175">
        <ele>254.25</ele>
        <time>2020-01-12T13:56:20.000Z</time>
      </trkpt>
      <trkpt lat="49.17604" lon="6.71753">
        <ele>253.68</ele>
        <time>2020-01-12T13:56:30.000Z</time>
      </trkpt>
      <trkpt lat="49.17589" lon="6.71755">
        <ele>254.15</ele>
        <time>2020-01-12T13:56:40.000Z</time>
      </trkpt>
      <trkpt lat="49.17575" lon="6.71761">
        <ele>257.33</ele>
        <time>2020-01-12T13:56:50.000Z</time>
      </trkpt>
      <trkpt lat="49.17564" lon="6.71765">
        <ele>262.05</ele>
        <time>2020-01-12T13:57:00.000Z</time>
      </trkpt>
      <trkpt lat="49.17558" lon="6.71754">
        <ele>262.69</ele>
        <time>2020-01-12T13:57:10.000Z</time>
      </trkpt>
      <trkpt lat="49.17555" lon="6.71734">
        <ele>264.85</ele>
        <time>2020-01-12T13:57:20.000Z</time>
      </trkpt>
      <trkpt lat="49.17551" lon="6.71712">
        <ele>264.32</ele>
        <time>2020-01-12T13:57:30.000Z</time>
      </trkpt>
      <trkpt lat="49.17547" lon="6.7169">
        <ele>261.42</ele>
        <time>2020-01-12T13:57:40.000Z</time>
      </trkpt>
      <trkpt lat="49.17546" lon="6.71669">
        <ele>259.94</ele>
        <time>2020-01-12T13:57:50.000Z</time>
      </trkpt>
      <trkpt lat="49.1755" lon="6.71649">
        <ele>258.55</ele>
        <time>2020-01-12T13:58:00.000Z</time>
      </trkpt>
      <trkpt lat="49.17555" lon="6.71629">
        <ele>258</ele>
        <time>2020-01-12T13:58:10.000Z</time>
      </trkpt>
      <trkpt lat="49.17562" lon="6.71612">
        <ele>256.72</ele>
        <time>2020-01-12T13:58:20.000Z</time>
      </trkpt>
      <trkpt lat="49.17568" lon="6.71589">
        <ele>255.31</ele>
        <time>2020-01-12T13:58:30.000Z</time>
      </trkpt>
      <trkpt lat="49.1757" lon="6.71569">
        <ele>255.76</ele>
        <time>2020-01-12T13:58:40.000Z</time>
      </trkpt>
      <trkpt lat="49.17576" lon="6.71551">
        <ele>255.28</ele>
        <time>2020-01-12T13:58:50.000Z</time>
      </trkpt>
      <trkpt lat="49.17586" lon="6.71548">
        <ele>253.22</ele>
        <time>2020-01-12T13:59:00.000Z</time>
      </trkpt>
      <trkpt lat="49.17593" lon="6.7154">
        <ele>255.12</ele>
        <time>2020-01-12T13:59:10.000Z</time>
      </trkpt>
      <trkpt lat="49.17603" lon="6.71527">
        <ele>257.02</ele>
        <time>2020-01-12T13:59:20.000Z</time>
      </trkpt>
      <trkpt lat="49.1761" lon="6.71521">
        <ele>257.41</ele>
        <time>2020-01-12T13:59:30.000Z</time>
      </trkpt>
      <trkpt lat="49.17616" lon="6.71508">
        <ele>259.61</ele>
        <time>2020-01-12T13:59:40.000Z</time>
      </trkpt>
      <trkpt lat="49.17625" lon="6.71496">
        <ele>262.75</ele>
        <time>2020-01-12T13:59:50.000Z</time>
      </trkpt>
      <trkpt lat="49.17635" lon="6.71486">
        <ele>263.23</ele>
        <time>2020-01-12T14:00:00.000Z</time>
      </trkpt>
      <trkpt lat="49.17645" lon="6.71481">
        <ele>264.07</ele>
        <time>2020-01-12T14:00:10.000Z</time>
      </trkpt>
      <trkpt lat="49.1766" lon="6.71473">
        <ele>266.34</ele>
        <time>2020-01-12T14:00:20.000Z</time>
      </trkpt>
      <trkpt lat="49.17672" lon="6.71466">
        <ele>266.06</ele>
        <time>2020-01-12T14:00:30.000Z</time>
      </trkpt>
      <trkpt lat="49.17683" lon="6.71456">
        <ele>266.68</ele>
        <time>2020-01-12T14:00:40.000Z</time>
      </trkpt>
      <trkpt lat="49.17696" lon="6.71444">
        <ele>269.88</ele>
        <time>2020-01-12T14:00:50.000Z</time>
      </trkpt>
      <trkpt lat="49.17706" lon="6.71434">
        <ele>274.05</ele>
        <time>2020-01-12T14:01:00.000Z</time>
      </trkpt>
      <trkpt lat="49.17715" lon="6.71426">
        <ele>274.74</ele>
        <time>2020-01-12T14:01:10.000Z</time>
      </trkpt>
      <trkpt lat="49.17728" lon="6.71415">
        <ele>274.75</ele>
        <time>2020-01-12T14:01:20.000Z</time>
      </trkpt>
      <trkpt lat="49.17741" lon="6.71408">
        <ele>275.66</ele>
        <time>2020-01-12T14:01:30.000Z</time>
      </trkpt>
      <trkpt lat="49.1775" lon="6.7139">
        <ele>274.16</ele>
        <time>2020-01-12T14:01:40.000Z</time>
      </trkpt>
      <trkpt lat="49.17757" lon="6.71373">
        <ele>274.56</ele>
        <time>2020-01-12T14:01:50.000Z</time>
      </trkpt>
      <trkpt lat="49.17764" lon="6.71357">
        <ele>274.42</ele>
        <time>2020-01-12T14:02:00.000Z</time>
      </trkpt>
      <trkpt lat="49.1776" lon="6.7134">
        <ele>276.45</ele>
        <time>2020-01-12T14:02:10.000Z</time>
      </trkpt>
      <trkpt lat="49.17757" lon="6.71328">
        <ele>277.59</ele>
        <time>2020-01-12T14:02:20.000Z</time>
      </trkpt>
      <trkpt lat="49.17764" lon="6.71315">
        <ele>276.63</ele>
        <time>2020-01-12T14:02:30.000Z</time>
      </trkpt>
      <trkpt lat="49.17768" lon="6.71294">
        <ele>277.03</ele>
        <time>2020-01-12T14:02:40.000Z</time>
      </trkpt>
      <trkpt lat="49.17754" lon="6.71277">
        <ele>273.95</ele>
        <time>2020-01-12T14:02:50.000Z</time>
      </trkpt>
      <trkpt lat="49.17743" lon="6.71266">
        <ele>269.83</ele>
        <time>2020-01-12T14:03:00.000Z</time>
      </trkpt>
      <trkpt lat="49.17736" lon="6.71257">
        <ele>269.45</ele>
        <time>2020-01-12T14:03:10.000Z</time>
      </trkpt>
      <trkpt lat="49.17735" lon="6.71247">
        <ele>269.68</ele>
        <time>2020-01-12T14:03:20.000Z</time>
      </trkpt>
      <trkpt lat="49.17732" lon="6.71232">
        <ele>270.32</ele>
        <time>2020-01-12T14:03:30.000Z</time>
      </trkpt>
      <trkpt lat="49.1773" lon="6.71212">
        <ele>270.51</ele>
        <time>2020-01-12T14:03:40.000Z</time>
      </trkpt>
      <trkpt lat="49.17727" lon="6.71193">
        <ele>270.32</ele>
        <time>2020-01-12T14:03:50.000Z</time>
      </trkpt>
      <trkpt lat="49.17724" lon="6.71175">
        <ele>270.04</ele>
        <time>2020-01-12T14:04:00.000Z</time>
      </trkpt>
      <trkpt lat="49.1772" lon="6.71159">
        <ele>269.64</ele>
        <time>2020-01-12T14:04:10.000Z</time>
      </trkpt>
      <trkpt lat="49.17718" lon="6.71138">
        <ele>270.39</ele>
        <time>2020-01-12T14:04:20.000Z</time>
      </trkpt>
      <trkpt lat="49.17715" lon="6.71114">
        <ele>270.75</ele>
        <time>2020-01-12T14:04:30.000Z</time>
      </trkpt>
      <trkpt lat="49.17713" lon="6.71094">
        <ele>273.69</ele>
        <time>2020-01-12T14:04:40.000Z</time>
      </trkpt>
      <trkpt lat="49.17709" lon="6.71071">
        <ele>277.27</ele>
        <time>2020-01-12T14:04:50.000Z</time>
      </trkpt>
      <trkpt lat="49.17703" lon="6.71052">
        <ele>280.45</ele>
        <time>2020-01-12T14:05:00.000Z</time>
      </trkpt>
      <trkpt lat="49.17709" lon="6.71032">
        <ele>280.82</ele>
        <time>2020-01-12T14:05:10.000Z</time>
      </trkpt>
      <trkpt lat="49.17714" lon="6.71009">
        <ele>279.79</ele>
        <time>2020-01-12T14:05:20.000Z</time>
      </trkpt>
      <trkpt lat="49.17719" lon="6.70985">
        <ele>278.09</ele>
        <time>2020-01-12T14:05:30.000Z</time>
      </trkpt>
      <trkpt lat="49.17724" lon="6.70964">
        <ele>276.87</ele>
        <time>2020-01-12T14:05:40.000Z</time>
      </trkpt>
      <trkpt lat="49.17731" lon="6.70947">
        <ele>277.81</ele>
        <time>2020-01-12T14:05:50.000Z</time>
      </trkpt>
      <trkpt lat="49.17738" lon="6.70928">
        <ele>279.15</ele>
        <time>2020-01-12T14:06:00.000Z</time>
      </trkpt>
      <trkpt lat="49.17746" lon="6.70912">
        <ele>280.06</ele>
        <time>2020-01-12T14:06:10.000Z</time>
      </trkpt>
      <trkpt lat="49.17752" lon="6.70898">
        <ele>280.22</ele>
        <time>2020-01-12T14:06:20.000Z</time>
      </trkpt>
      <trkpt lat="49.17759" lon="6.70882">
        <ele>283.24</ele>
        <time>2020-01-12T14:06:30.000Z</time>
      </trkpt>
      <trkpt lat="49.17766" lon="6.70865">
        <ele>281.66</ele>
        <time>2020-01-12T14:06:40.000Z</time>
      </trkpt>
      <trkpt lat="49.17774" lon="6.70847">
        <ele>279.32</ele>
        <time>2020-01-12T14:06:50.000Z</time>
      </trkpt>
      <trkpt lat="49.17784" lon="6.70829">
        <ele>279.09</ele>
        <time>2020-01-12T14:07:00.000Z</time>
      </trkpt>
      <trkpt lat="49.17796" lon="6.70811">
        <ele>280.93</ele>
        <time>2020-01-12T14:07:10.000Z</time>
      </trkpt>
      <trkpt lat="49.17806" lon="6.70794">
        <ele>280.84</ele>
        <time>2020-01-12T14:07:20.000Z</time>
      </trkpt>
      <trkpt lat="49.17813" lon="6.70775">
        <ele>280.79</ele>
        <time>2020-01-12T14:07:30.000Z</time>
      </trkpt>
      <trkpt lat="49.17819" lon="6.70757">
        <ele>278.04</ele>
        <time>2020-01-12T14:07:40.000Z</time>
      </trkpt>
      <trkpt lat="49.17825" lon="6.70739">
        <ele>280.64</ele>
        <time>2020-01-12T14:07:50.000Z</time>
      </trkpt>
      <trkpt lat="49.17831" lon="6.70721">
        <ele>282.35</ele>
        <time>2020-01-12T14:08:00.000Z</time>
      </trkpt>
      <trkpt lat="49.17836" lon="6.70704">
        <ele>283.36</ele>
        <time>2020-01-12T14:08:10.000Z</time>
      </trkpt>
      <trkpt lat="49.17844" lon="6.70685">
        <ele>283.56</ele>
        <time>2020-01-12T14:08:20.000Z</time>
      </trkpt>
      <trkpt lat="49.17855" lon="6.70667">
        <ele>285.03</ele>
        <time>2020-01-12T14:08:30.000Z</time>
      </trkpt>
      <trkpt lat="49.17865" lon="6.70651">
        <ele>285.46</ele>
        <time>2020-01-12T14:08:40.000Z</time>
      </trkpt>
      <trkpt lat="49.17871" lon="6.70637">
        <ele>286.42</ele>
        <time>2020-01-12T14:08:50.000Z</time>
      </trkpt>
      <trkpt lat="49.17877" lon="6.70625">
        <ele>285.55</ele>
        <time>2020-01-12T14:09:00.000Z</time>
      </trkpt>
      <trkpt lat="49.17883" lon="6.70604">
        <ele>286.54</ele>
        <time>2020-01-12T14:09:10.000Z</time>
      </trkpt>
      <trkpt lat="49.17889" lon="6.70581">
        <ele>285.47</ele>
        <time>2020-01-12T14:09:20.000Z</time>
      </trkpt>
      <trkpt lat="49.17893" lon="6.70562">
        <ele>285.88</ele>
        <time>2020-01-12T14:09:30.000Z</time>
      </trkpt>
      <trkpt lat="49.17897" lon="6.70545">
        <ele>285.94</ele>
        <time>2020-01-12T14:09:40.000Z</time>
      </trkpt>
      <trkpt lat="49.17904" lon="6.70524">
        <ele>285.86</ele>
        <time>2020-01-12T14:09:50.000Z</time>
      </trkpt>
      <trkpt lat="49.17911" lon="6.70506">
        <ele>287.22</ele>
        <time>2020-01-12T14:10:00.000Z</time>
      </trkpt>
      <trkpt lat="49.17919" lon="6.70489">
        <ele>287.78</ele>
        <time>2020-01-12T14:10:10.000Z</time>
      </trkpt>
      <trkpt lat="49.17926" lon="6.70471">
        <ele>290.17</ele>
        <time>2020-01-12T14:10:20.000Z</time>
      </trkpt>
      <trkpt lat="49.17935" lon="6.70454">
        <ele>293.2</ele>
        <time>2020-01-12T14:10:30.000Z</time>
      </trkpt>
      <trkpt lat="49.17944" lon="6.7044">
        <ele>293.24</ele>
        <time>2020-01-12T14:10:40.000Z</time>
      </trkpt>
      <trkpt lat="49.17955" lon="6.70425">
        <ele>294.13</ele>
        <time>2020-01-12T14:10:50.000Z</time>
      </trkpt>
      <trkpt lat="49.17963" lon="6.70409">
        <ele>294.42</ele>
        <time>2020-01-12T14:11:00.000Z</time>
      </trkpt>
      <trkpt lat="49.17972" lon="6.70392">
        <ele>295.49</ele>
        <time>2020-01-12T14:11:10.000Z</time>
      </trkpt>
      <trkpt lat="49.17981" lon="6.70374">
        <ele>294.04</ele>
        <time>2020-01-12T14:11:20.000Z</time>
      </trkpt>
      <trkpt lat="49.17989" lon="6.70354">
        <ele>293.39</ele>
        <time>2020-01-12T14:11:30.000Z</time>
      </trkpt>
      <trkpt lat="49.17994" lon="6.70336">
        <ele>297.2</ele>
        <time>2020-01-12T14:11:40.000Z</time>
      </trkpt>
      <trkpt lat="49.17999" lon="6.7032">
        <ele>298.6</ele>
        <time>2020-01-12T14:11:50.000Z</time>
      </trkpt>
      <trkpt lat="49.18002" lon="6.70308">
        <ele>297.15</ele>
        <time>2020-01-12T14:12:00.000Z</time>
      </trkpt>
      <trkpt lat="49.18007" lon="6.70296">
        <ele>295.11</ele>
        <time>2020-01-12T14:12:10.000Z</time>
      </trkpt>
      <trkpt lat="49.18011" lon="6.70289">
        <ele>293.94</ele>
        <time>2020-01-12T14:12:20.000Z</time>
      </trkpt>
      <trkpt lat="49.1802" lon="6.70268">
        <ele>292.3</ele>
        <time>2020-01-12T14:12:30.000Z</time>
      </trkpt>
      <trkpt lat="49.18029" lon="6.70249">
        <ele>293.67</ele>
        <time>2020-01-12T14:12:40.000Z</time>
      </trkpt>
      <trkpt lat="49.18037" lon="6.7023">
        <ele>294.97</ele>
        <time>2020-01-12T14:12:50.000Z</time>
      </trkpt>
      <trkpt lat="49.18043" lon="6.70211">
        <ele>298.1</ele>
        <time>2020-01-12T14:13:00.000Z</time>
      </trkpt>
      <trkpt lat="49.1805" lon="6.70197">
        <ele>296.96</ele>
        <time>2020-01-12T14:13:10.000Z</time>
      </trkpt>
      <trkpt lat="49.18061" lon="6.70178">
        <ele>296.14</ele>
        <time>2020-01-12T14:13:20.000Z</time>
      </trkpt>
      <trkpt lat="49.18066" lon="6.70161">
        <ele>295.92</ele>
        <time>2020-01-12T14:13:30.000Z</time>
      </trkpt>
      <trkpt lat="49.18073" lon="6.70141">
        <ele>295.01</ele>
        <time>2020-01-12T14:13:40.000Z</time>
      </trkpt>
      <trkpt lat="49.1808" lon="6.70125">
        <ele>296.64</ele>
        <time>2020-01-12T14:13:50.000Z</time>
      </trkpt>
      <trkpt lat="49.18088" lon="6.70109">
        <ele>298.43</ele>
        <time>2020-01-12T14:14:00.000Z</time>
      </trkpt>
      <trkpt lat="49.18096" lon="6.70094">
        <ele>297.11</ele>
        <time>2020-01-12T14:14:10.000Z</time>
      </trkpt>
      <trkpt lat="49.18107" lon="6.70076">
        <ele>296.34</ele>
        <time>2020-01-12T14:14:20.000Z</time>
      </trkpt>
      <trkpt lat="49.18113" lon="6.70059">
        <ele>294.78</ele>
        <time>2020-01-12T14:14:30.000Z</time>
      </trkpt>
      <trkpt lat="49.18118" lon="6.70045">
        <ele>294.67</ele>
        <time>2020-01-12T14:14:40.000Z</time>
      </trkpt>
      <trkpt lat="49.18124" lon="6.7003">
        <ele>295.1</ele>
        <time>2020-01-12T14:14:50.000Z</time>
      </trkpt>
      <trkpt lat="49.18133" lon="6.70011">
        <ele>291.49</ele>
        <time>2020-01-12T14:15:00.000Z</time>
      </trkpt>
      <trkpt lat="49.1814" lon="6.69996">
        <ele>289.78</ele>
        <time>2020-01-12T14:15:10.000Z</time>
      </trkpt>
      <trkpt lat="49.18146" lon="6.69982">
        <ele>288.13</ele>
        <time>2020-01-12T14:15:20.000Z</time>
      </trkpt>
      <trkpt lat="49.18153" lon="6.69957">
        <ele>287.8</ele>
        <time>2020-01-12T14:15:30.000Z</time>
      </trkpt>
      <trkpt lat="49.18163" lon="6.69934">
        <ele>289.5</ele>
        <time>2020-01-12T14:15:40.000Z</time>
      </trkpt>
      <trkpt lat="49.1817" lon="6.69915">
        <ele>290.2</ele>
        <time>2020-01-12T14:15:50.000Z</time>
      </trkpt>
      <trkpt lat="49.18175" lon="6.69896">
        <ele>289.24</ele>
        <time>2020-01-12T14:16:00.000Z</time>
      </trkpt>
      <trkpt lat="49.18181" lon="6.69883">
        <ele>291.15</ele>
        <time>2020-01-12T14:16:10.000Z</time>
      </trkpt>
      <trkpt lat="49.18189" lon="6.69869">
        <ele>289.53</ele>
        <time>2020-01-12T14:16:20.000Z</time>
      </trkpt>
      <trkpt lat="49.18198" lon="6.69845">
        <ele>288.9</ele>
        <time>2020-01-12T14:16:30.000Z</time>
      </trkpt>
      <trkpt lat="49.18206" lon="6.69825">
        <ele>288.24</ele>
        <time>2020-01-12T14:16:40.000Z</time>
      </trkpt>
      <trkpt lat="49.18212" lon="6.69812">
        <ele>288.61</ele>
        <time>2020-01-12T14:16:50.000Z</time>
      </trkpt>
      <trkpt lat="49.18219" lon="6.69798">
        <ele>287.23</ele>
        <time>2020-01-12T14:17:00.000Z</time>
      </trkpt>
      <trkpt lat="49.18227" lon="6.69776">
        <ele>286.93</ele>
        <time>2020-01-12T14:17:10.000Z</time>
      </trkpt>
      <trkpt lat="49.18237" lon="6.69757">
        <ele>286.06</ele>
        <time>2020-01-12T14:17:20.000Z</time>
      </trkpt>
      <trkpt lat="49.18244" lon="6.6974">
        <ele>287.53</ele>
        <time>2020-01-12T14:17:30.000Z</time>
      </trkpt>
      <trkpt lat="49.18253" lon="6.69723">
        <ele>286.86</ele>
        <time>2020-01-12T14:17:40.000Z</time>
      </trkpt>
      <trkpt lat="49.18261" lon="6.69701">
        <ele>286.8</ele>
        <time>2020-01-12T14:17:50.000Z</time>
      </trkpt>
      <trkpt lat="49.18264" lon="6.69686">
        <ele>288.57</ele>
        <time>2020-01-12T14:18:00.000Z</time>
      </trkpt>
      <trkpt lat="49.1827" lon="6.69669">
        <ele>289.33</ele>
        <time>2020-01-12T14:18:10.000Z</time>
      </trkpt>
      <trkpt lat="49.18279" lon="6.69653">
        <ele>288.68</ele>
        <time>2020-01-12T14:18:20.000Z</time>
      </trkpt>
      <trkpt lat="49.18288" lon="6.69634">
        <ele>287.52</ele>
        <time>2020-01-12T14:18:30.000Z</time>
      </trkpt>
      <trkpt lat="49.18297" lon="6.69614">
        <ele>285.16</ele>
        <time>2020-01-12T14:18:40.000Z</time>
      </trkpt>
      <trkpt lat="49.18305" lon="6.69593">
        <ele>282.79</ele>
        <time>2020-01-12T14:18:50.000Z</time>
      </trkpt>
      <trkpt lat="49.1831" lon="6.69574">
        <ele>280.92</ele>
        <time>2020-01-12T14:19:00.000Z</time>
      </trkpt>
      <trkpt lat="49.18319" lon="6.69555">
        <ele>278.42</ele>
        <time>2020-01-12T14:19:10.000Z</time>
      </trkpt>
      <trkpt lat="49.18327" lon="6.69536">
        <ele>276.66</ele>
        <time>2020-01-12T14:19:20.000Z</time>
      </trkpt>
      <trkpt lat="49.18335" lon="6.69519">
        <ele>275.24</ele>
        <time>2020-01-12T14:19:30.000Z</time>
      </trkpt>
      <trkpt lat="49.18344" lon="6.69504">
        <ele>274.16</ele>
        <time>2020-01-12T14:19:40.000Z</time>
      </trkpt>
      <trkpt lat="49.18354" lon="6.69488">
        <ele>272.55</ele>
        <time>2020-01-12T14:19:50.000Z</time>
      </trkpt>
      <trkpt lat="49.18363" lon="6.69475">
        <ele>272.71</ele>
        <time>2020-01-12T14:20:00.000Z</time>
      </trkpt>
      <trkpt lat="49.18365" lon="6.69458">
        <ele>273.15</ele>
        <time>2020-01-12T14:20:10.000Z</time>
      </trkpt>
      <trkpt lat="49.18369" lon="6.69444">
        <ele>271.78</ele>
        <time>2020-01-12T14:20:20.000Z</time>
      </trkpt>
      <trkpt lat="49.18372" lon="6.69426">
        <ele>272.28</ele>
        <time>2020-01-12T14:20:30.000Z</time>
      </trkpt>
      <trkpt lat="49.18376" lon="6.6941">
        <ele>273.4</ele>
        <time>2020-01-12T14:20:40.000Z</time>
      </trkpt>
      <trkpt lat="49.18378" lon="6.69391">
        <ele>272.04</ele>
        <time>2020-01-12T14:20:50.000Z</time>
      </trkpt>
      <trkpt lat="49.18381" lon="6.69367">
        <ele>269.67</ele>
        <time>2020-01-12T14:21:00.000Z</time>
      </trkpt>
      <trkpt lat="49.18382" lon="6.69343">
        <ele>271.84</ele>
        <time>2020-01-12T14:21:10.000Z</time>
      </trkpt>
      <trkpt lat="49.18384" lon="6.69324">
        <ele>272.81</ele>
        <time>2020-01-12T14:21:20.000Z</time>
      </trkpt>
      <trkpt lat="49.18385" lon="6.69307">
        <ele>273.87</ele>
        <time>2020-01-12T14:21:30.000Z</time>
      </trkpt>
      <trkpt lat="49.18384" lon="6.69286">
        <ele>278.42</ele>
        <time>2020-01-12T14:21:40.000Z</time>
      </trkpt>
      <trkpt lat="49.18384" lon="6.69267">
        <ele>278.88</ele>
        <time>2020-01-12T14:21:50.000Z</time>
      </trkpt>
      <trkpt lat="49.18385" lon="6.69244">
        <ele>278.42</ele>
        <time>2020-01-12T14:22:00.000Z</time>
      </trkpt>
      <trkpt lat="49.18385" lon="6.69224">
        <ele>276.83</ele>
        <time>2020-01-12T14:22:10.000Z</time>
      </trkpt>
      <trkpt lat="49.18384" lon="6.69198">
        <ele>275.36</ele>
        <time>2020-01-12T14:22:20.000Z</time>
      </trkpt>
      <trkpt lat="49.18384" lon="6.69179">
        <ele>273.02</ele>
        <time>2020-01-12T14:22:30.000Z</time>
      </trkpt>
      <trkpt lat="49.18385" lon="6.69158">
        <ele>270.95</ele>
        <time>2020-01-12T14:22:40.000Z</time>
      </trkpt>
      <trkpt lat="49.18385" lon="6.69137">
        <ele>268.78</ele>
        <time>2020-01-12T14:22:50.000Z</time>
      </trkpt>
      <trkpt lat="49.18385" lon="6.69121">
        <ele>266.67</ele>
        <time>2020-01-12T14:23:00.000Z</time>
      </trkpt>
      <trkpt lat="49.18385" lon="6.69101">
        <ele>266.17</ele>
        <time>2020-01-12T14:23:10.000Z</time>
      </trkpt>
      <trkpt lat="49.18386" lon="6.69083">
        <ele>265.18</ele>
        <time>2020-01-12T14:23:20.000Z</time>
      </trkpt>
      <trkpt lat="49.18377" lon="6.69068">
        <ele>261.79</ele>
        <time>2020-01-12T14:23:30.000Z</time>
      </trkpt>
      <trkpt lat="49.18367" lon="6.69059">
        <ele>262.53</ele>
        <time>2020-01-12T14:23:40.000Z</time>
      </trkpt>
      <trkpt lat="49.18359" lon="6.69053">
        <ele>261.18</ele>
        <time>2020-01-12T14:23:50.000Z</time>
      </trkpt>
      <trkpt lat="49.18348" lon="6.69047">
        <ele>264.62</ele>
        <time>2020-01-12T14:24:00.000Z</time>
      </trkpt>
      <trkpt lat="49.18337" lon="6.69042">
        <ele>266.01</ele>
        <time>2020-01-12T14:24:10.000Z</time>
      </trkpt>
      <trkpt lat="49.18326" lon="6.69031">
        <ele>266.73</ele>
        <time>2020-01-12T14:24:20.000Z</time>
      </trkpt>
      <trkpt lat="49.18317" lon="6.69014">
        <ele>268.63</ele>
        <time>2020-01-12T14:24:30.000Z</time>
      </trkpt>
      <trkpt lat="49.18307" lon="6.68996">
        <ele>270.29</ele>
        <time>2020-01-12T14:24:40.000Z</time>
      </trkpt>
      <trkpt lat="49.18296" lon="6.68986">
        <ele>273.03</ele>
        <time>2020-01-12T14:24:50.000Z</time>
      </trkpt>
      <trkpt lat="49.18291" lon="6.68972">
        <ele>275.06</ele>
        <time>2020-01-12T14:25:00.000Z</time>
      </trkpt>
      <trkpt lat="49.18282" lon="6.68954">
        <ele>275.45</ele>
        <time>2020-01-12T14:25:10.000Z</time>
      </trkpt>
      <trkpt lat="49.18274" lon="6.68931">
        <ele>277.65</ele>
        <time>2020-01-12T14:25:20.000Z</time>
      </trkpt>
      <trkpt lat="49.18265" lon="6.68911">
        <ele>277.09</ele>
        <time>2020-01-12T14:25:30.000Z</time>
      </trkpt>
      <trkpt lat="49.18257" lon="6.68893">
        <ele>277.97</ele>
        <time>2020-01-12T14:25:40.000Z</time>
      </trkpt>
      <trkpt lat="49.18245" lon="6.68895">
        <ele>275.22</ele>
        <time>2020-01-12T14:25:50.000Z</time>
      </trkpt>
      <trkpt lat="49.18239" lon="6.68899">
        <ele>269.67</ele>
        <time>2020-01-12T14:26:00.000Z</time>
      </trkpt>
      <trkpt lat="49.18232" lon="6.68904">
        <ele>264.62</ele>
        <time>2020-01-12T14:26:10.000Z</time>
      </trkpt>
      <trkpt lat="49.18222" lon="6.68918">
        <ele>262.73</ele>
        <time>2020-01-12T14:26:20.000Z</time>
      </trkpt>
      <trkpt lat="49.18212" lon="6.68934">
        <ele>259.71</ele>
        <time>2020-01-12T14:26:30.000Z</time>
      </trkpt>
      <trkpt lat="49.182" lon="6.68947">
        <ele>254.19</ele>
        <time>2020-01-12T14:26:40.000Z</time>
      </trkpt>
      <trkpt lat="49.18183" lon="6.68953">
        <ele>253.46</ele>
        <time>2020-01-12T14:26:50.000Z</time>
      </trkpt>
      <trkpt lat="49.18168" lon="6.68945">
        <ele>254.11</ele>
        <time>2020-01-12T14:27:00.000Z</time>
      </trkpt>
      <trkpt lat="49.18152" lon="6.68934">
        <ele>256.46</ele>
        <time>2020-01-12T14:27:10.000Z</time>
      </trkpt>
      <trkpt lat="49.1814" lon="6.68924">
        <ele>256.71</ele>
        <time>2020-01-12T14:27:20.000Z</time>
      </trkpt>
      <trkpt lat="49.18126" lon="6.68916">
        <ele>257.57</ele>
        <time>2020-01-12T14:27:30.000Z</time>
      </trkpt>
      <trkpt lat="49.18112" lon="6.68909">
        <ele>263.1</ele>
        <time>2020-01-12T14:27:40.000Z</time>
      </trkpt>
      <trkpt lat="49.18104" lon="6.68898">
        <ele>266</ele>
        <time>2020-01-12T14:27:50.000Z</time>
      </trkpt>
      <trkpt lat="49.18098" lon="6.68887">
        <ele>271.24</ele>
        <time>2020-01-12T14:28:00.000Z</time>
      </trkpt>
      <trkpt lat="49.18096" lon="6.6888">
        <ele>272.76</ele>
        <time>2020-01-12T14:28:10.000Z</time>
      </trkpt>
      <trkpt lat="49.18089" lon="6.68867">
        <ele>274.43</ele>
        <time>2020-01-12T14:28:20.000Z</time>
      </trkpt>
      <trkpt lat="49.18086" lon="6.68859">
        <ele>274.43</ele>
        <time>2020-01-12T14:28:30.000Z</time>
      </trkpt>
      <trkpt lat="49.18086" lon="6.68858">
        <ele>274.42</ele>
        <time>2020-01-12T14:28:43.000Z</time>
      </trkpt>
      <trkpt lat="49.18085" lon="6.68851">
        <ele>272.9</ele>
        <time>2020-01-12T14:28:53.000Z</time>
      </trkpt>
      <trkpt lat="49.18079" lon="6.68838">
        <ele>273.34</ele>
        <time>2020-01-12T14:29:03.000Z</time>
      </trkpt>
      <trkpt lat="49.18073" lon="6.68822">
        <ele>270.97</ele>
        <time>2020-01-12T14:29:13.000Z</time>
      </trkpt>
      <trkpt lat="49.18066" lon="6.68807">
        <ele>267.89</ele>
        <time>2020-01-12T14:29:23.000Z</time>
      </trkpt>
      <trkpt lat="49.18054" lon="6.68789">
        <ele>264.27</ele>
        <time>2020-01-12T14:29:33.000Z</time>
      </trkpt>
      <trkpt lat="49.18048" lon="6.68774">
        <ele>261.83</ele>
        <time>2020-01-12T14:29:43.000Z</time>
      </trkpt>
      <trkpt lat="49.18034" lon="6.68763">
        <ele>263.27</ele>
        <time>2020-01-12T14:29:53.000Z</time>
      </trkpt>
      <trkpt lat="49.18025" lon="6.68751">
        <ele>264.62</ele>
        <time>2020-01-12T14:30:03.000Z</time>
      </trkpt>
      <trkpt lat="49.18018" lon="6.68737">
        <ele>263.76</ele>
        <time>2020-01-12T14:30:13.000Z</time>
      </trkpt>
      <trkpt lat="49.1801" lon="6.68724">
        <ele>257.63</ele>
        <time>2020-01-12T14:30:23.000Z</time>
      </trkpt>
      <trkpt lat="49.18" lon="6.68706">
        <ele>251.74</ele>
        <time>2020-01-12T14:30:33.000Z</time>
      </trkpt>
      <trkpt lat="49.17991" lon="6.68687">
        <ele>253.92</ele>
        <time>2020-01-12T14:30:43.000Z</time>
      </trkpt>
      <trkpt lat="49.1798" lon="6.68669">
        <ele>254.35</ele>
        <time>2020-01-12T14:30:53.000Z</time>
      </trkpt>
      <trkpt lat="49.1797" lon="6.68653">
        <ele>251.51</ele>
        <time>2020-01-12T14:31:03.000Z</time>
      </trkpt>
      <trkpt lat="49.17961" lon="6.68638">
        <ele>250.67</ele>
        <time>2020-01-12T14:31:13.000Z</time>
      </trkpt>
      <trkpt lat="49.17952" lon="6.68621">
        <ele>248.98</ele>
        <time>2020-01-12T14:31:23.000Z</time>
      </trkpt>
      <trkpt lat="49.17943" lon="6.68603">
        <ele>246.35</ele>
        <time>2020-01-12T14:31:33.000Z</time>
      </trkpt>
      <trkpt lat="49.17935" lon="6.68585">
        <ele>246.21</ele>
        <time>2020-01-12T14:31:43.000Z</time>
      </trkpt>
      <trkpt lat="49.17928" lon="6.68568">
        <ele>246.23</ele>
        <time>2020-01-12T14:31:53.000Z</time>
      </trkpt>
      <trkpt lat="49.17921" lon="6.68549">
        <ele>247.91</ele>
        <time>2020-01-12T14:32:03.000Z</time>
      </trkpt>
      <trkpt lat="49.17913" lon="6.68533">
        <ele>247.51</ele>
        <time>2020-01-12T14:32:13.000Z</time>
      </trkpt>
      <trkpt lat="49.17906" lon="6.68518">
        <ele>245.53</ele>
        <time>2020-01-12T14:32:23.000Z</time>
      </trkpt>
      <trkpt lat="49.17905" lon="6.68498">
        <ele>245</ele>
        <time>2020-01-12T14:32:33.000Z</time>
      </trkpt>
      <trkpt lat="49.17905" lon="6.6848">
        <ele>246.98</ele>
        <time>2020-01-12T14:32:43.000Z</time>
      </trkpt>
      <trkpt lat="49.17905" lon="6.68465">
        <ele>247.92</ele>
        <time>2020-01-12T14:32:53.000Z</time>
      </trkpt>
      <trkpt lat="49.1791" lon="6.6845">
        <ele>250.86</ele>
        <time>2020-01-12T14:33:03.000Z</time>
      </trkpt>
      <trkpt lat="49.17906" lon="6.68448">
        <ele>250.87</ele>
        <time>2020-01-12T14:33:13.000Z</time>
      </trkpt>
      <trkpt lat="49.17909" lon="6.6844">
        <ele>253.59</ele>
        <time>2020-01-12T14:33:23.000Z</time>
      </trkpt>
      <trkpt lat="49.17912" lon="6.68424">
        <ele>252.17</ele>
        <time>2020-01-12T14:33:33.000Z</time>
      </trkpt>
      <trkpt lat="49.17915" lon="6.68406">
        <ele>251.74</ele>
        <time>2020-01-12T14:33:43.000Z</time>
      </trkpt>
      <trkpt lat="49.17919" lon="6.68386">
        <ele>252.83</ele>
        <time>2020-01-12T14:33:53.000Z</time>
      </trkpt>
      <trkpt lat="49.17921" lon="6.68362">
        <ele>249.57</ele>
        <time>2020-01-12T14:34:03.000Z</time>
      </trkpt>
      <trkpt lat="49.17921" lon="6.68339">
        <ele>247.3</ele>
        <time>2020-01-12T14:34:13.000Z</time>
      </trkpt>
      <trkpt lat="49.17922" lon="6.68319">
        <ele>248.55</ele>
        <time>2020-01-12T14:34:23.000Z</time>
      </trkpt>
      <trkpt lat="49.17925" lon="6.68299">
        <ele>249.54</ele>
        <time>2020-01-12T14:34:33.000Z</time>
      </trkpt>
      <trkpt lat="49.17926" lon="6.68278">
        <ele>251.14</ele>
        <time>2020-01-12T14:34:43.000Z</time>
      </trkpt>
      <trkpt lat="49.17928" lon="6.68258">
        <ele>249.95</ele>
        <time>2020-01-12T14:34:53.000Z</time>
      </trkpt>
      <trkpt lat="49.17932" lon="6.68238">
        <ele>248.16</ele>
        <time>2020-01-12T14:35:03.000Z</time>
      </trkpt>
      <trkpt lat="49.17938" lon="6.68219">
        <ele>246.69</ele>
        <time>2020-01-12T14:35:13.000Z</time>
      </trkpt>
      <trkpt lat="49.17947" lon="6.68204">
        <ele>244.45</ele>
        <time>2020-01-12T14:35:23.000Z</time>
      </trkpt>
      <trkpt lat="49.17958" lon="6.6819">
        <ele>244.26</ele>
        <time>2020-01-12T14:35:33.000Z</time>
      </trkpt>
      <trkpt lat="49.17968" lon="6.68177">
        <ele>244.64</ele>
        <time>2020-01-12T14:35:43.000Z</time>
      </trkpt>
      <trkpt lat="49.17977" lon="6.68163">
        <ele>243.2</ele>
        <time>2020-01-12T14:35:53.000Z</time>
      </trkpt>
      <trkpt lat="49.17986" lon="6.6815">
        <ele>243.28</ele>
        <time>2020-01-12T14:36:03.000Z</time>
      </trkpt>
      <trkpt lat="49.17997" lon="6.68138">
        <ele>243.28</ele>
        <time>2020-01-12T14:36:13.000Z</time>
      </trkpt>
      <trkpt lat="49.18008" lon="6.68124">
        <ele>241.57</ele>
        <time>2020-01-12T14:36:23.000Z</time>
      </trkpt>
      <trkpt lat="49.18019" lon="6.6811">
        <ele>240.94</ele>
        <time>2020-01-12T14:36:33.000Z</time>
      </trkpt>
      <trkpt lat="49.18027" lon="6.68098">
        <ele>239.23</ele>
        <time>2020-01-12T14:36:43.000Z</time>
      </trkpt>
      <trkpt lat="49.18036" lon="6.68085">
        <ele>239.36</ele>
        <time>2020-01-12T14:36:53.000Z</time>
      </trkpt>
      <trkpt lat="49.18046" lon="6.68074">
        <ele>239.48</ele>
        <time>2020-01-12T14:37:03.000Z</time>
      </trkpt>
      <trkpt lat="49.18054" lon="6.68061">
        <ele>239.08</ele>
        <time>2020-01-12T14:37:13.000Z</time>
      </trkpt>
      <trkpt lat="49.18048" lon="6.68049">
        <ele>239.38</ele>
        <time>2020-01-12T14:37:23.000Z</time>
      </trkpt>
      <trkpt lat="49.18044" lon="6.6804">
        <ele>241.63</ele>
        <time>2020-01-12T14:37:33.000Z</time>
      </trkpt>
      <trkpt lat="49.1804" lon="6.68038">
        <ele>240.58</ele>
        <time>2020-01-12T14:37:43.000Z</time>
      </trkpt>
      <trkpt lat="49.18031" lon="6.68028">
        <ele>238.86</ele>
        <time>2020-01-12T14:37:53.000Z</time>
      </trkpt>
      <trkpt lat="49.18019" lon="6.68019">
        <ele>237.78</ele>
        <time>2020-01-12T14:38:03.000Z</time>
      </trkpt>
      <trkpt lat="49.18008" lon="6.6801">
        <ele>239.58</ele>
        <time>2020-01-12T14:38:13.000Z</time>
      </trkpt>
      <trkpt lat="49.17996" lon="6.68001">
        <ele>239.76</ele>
        <time>2020-01-12T14:38:23.000Z</time>
      </trkpt>
      <trkpt lat="49.17981" lon="6.67994">
        <ele>239.39</ele>
        <time>2020-01-12T14:38:33.000Z</time>
      </trkpt>
      <trkpt lat="49.1797" lon="6.67987">
        <ele>241.07</ele>
        <time>2020-01-12T14:38:43.000Z</time>
      </trkpt>
      <trkpt lat="49.1796" lon="6.67981">
        <ele>239.5</ele>
        <time>2020-01-12T14:38:53.000Z</time>
      </trkpt>
      <trkpt lat="49.17947" lon="6.67974">
        <ele>238.56</ele>
        <time>2020-01-12T14:39:03.000Z</time>
      </trkpt>
      <trkpt lat="49.17934" lon="6.6797">
        <ele>235.85</ele>
        <time>2020-01-12T14:39:13.000Z</time>
      </trkpt>
      <trkpt lat="49.17921" lon="6.6797">
        <ele>235.3</ele>
        <time>2020-01-12T14:39:23.000Z</time>
      </trkpt>
      <trkpt lat="49.17908" lon="6.67971">
        <ele>236.07</ele>
        <time>2020-01-12T14:39:33.000Z</time>
      </trkpt>
      <trkpt lat="49.17903" lon="6.67951">
        <ele>230.8</ele>
        <time>2020-01-12T14:39:43.000Z</time>
      </trkpt>
      <trkpt lat="49.17893" lon="6.6793">
        <ele>227.84</ele>
        <time>2020-01-12T14:39:53.000Z</time>
      </trkpt>
      <trkpt lat="49.17887" lon="6.67913">
        <ele>225.77</ele>
        <time>2020-01-12T14:40:03.000Z</time>
      </trkpt>
      <trkpt lat="49.17879" lon="6.67897">
        <ele>222.75</ele>
        <time>2020-01-12T14:40:13.000Z</time>
      </trkpt>
      <trkpt lat="49.17872" lon="6.67885">
        <ele>221.54</ele>
        <time>2020-01-12T14:40:23.000Z</time>
      </trkpt>
      <trkpt lat="49.17862" lon="6.67874">
        <ele>222.72</ele>
        <time>2020-01-12T14:40:33.000Z</time>
      </trkpt>
      <trkpt lat="49.17853" lon="6.67868">
        <ele>223.77</ele>
        <time>2020-01-12T14:40:43.000Z</time>
      </trkpt>
      <trkpt lat="49.17842" lon="6.67858">
        <ele>224.79</ele>
        <time>2020-01-12T14:40:53.000Z</time>
      </trkpt>
      <trkpt lat="49.17831" lon="6.67853">
        <ele>226.14</ele>
        <time>2020-01-12T14:41:03.000Z</time>
      </trkpt>
      <trkpt lat="49.1782" lon="6.67847">
        <ele>226.53</ele>
        <time>2020-01-12T14:41:13.000Z</time>
      </trkpt>
      <trkpt lat="49.17807" lon="6.67839">
        <ele>230.64</ele>
        <time>2020-01-12T14:41:23.000Z</time>
      </trkpt>
      <trkpt lat="49.178" lon="6.67825">
        <ele>229.6</ele>
        <time>2020-01-12T14:41:33.000Z</time>
      </trkpt>
      <trkpt lat="49.17791" lon="6.67814">
        <ele>227.71</ele>
        <time>2020-01-12T14:41:43.000Z</time>
      </trkpt>
      <trkpt lat="49.17779" lon="6.67805">
        <ele>228.22</ele>
        <time>2020-01-12T14:41:53.000Z</time>
      </trkpt>
      <trkpt lat="49.17767" lon="6.67793">
        <ele>224.94</ele>
        <time>2020-01-12T14:42:03.000Z</time>
      </trkpt>
      <trkpt lat="49.17755" lon="6.67796">
        <ele>224.3</ele>
        <time>2020-01-12T14:42:13.000Z</time>
      </trkpt>
      <trkpt lat="49.17747" lon="6.67787">
        <ele>224.75</ele>
        <time>2020-01-12T14:42:23.000Z</time>
      </trkpt>
      <trkpt lat="49.17745" lon="6.67767">
        <ele>226.73</ele>
        <time>2020-01-12T14:42:33.000Z</time>
      </trkpt>
      <trkpt lat="49.17745" lon="6.67749">
        <ele>226.02</ele>
        <time>2020-01-12T14:42:43.000Z</time>
      </trkpt>
      <trkpt lat="49.17745" lon="6.6773">
        <ele>227.2</ele>
        <time>2020-01-12T14:42:53.000Z</time>
      </trkpt>
      <trkpt lat="49.17746" lon="6.67712">
        <ele>227.15</ele>
        <time>2020-01-12T14:43:03.000Z</time>
      </trkpt>
      <trkpt lat="49.17748" lon="6.67695">
        <ele>227.29</ele>
        <time>2020-01-12T14:43:13.000Z</time>
      </trkpt>
      <trkpt lat="49.1775" lon="6.67676">
        <ele>229.15</ele>
        <time>2020-01-12T14:43:23.000Z</time>
      </trkpt>
      <trkpt lat="49.17749" lon="6.67658">
        <ele>232.13</ele>
        <time>2020-01-12T14:43:33.000Z</time>
      </trkpt>
      <trkpt lat="49.17746" lon="6.67637">
        <ele>236.46</ele>
        <time>2020-01-12T14:43:43.000Z</time>
      </trkpt>
      <trkpt lat="49.17742" lon="6.67616">
        <ele>238.9</ele>
        <time>2020-01-12T14:43:53.000Z</time>
      </trkpt>
      <trkpt lat="49.17739" lon="6.67595">
        <ele>240.02</ele>
        <time>2020-01-12T14:44:03.000Z</time>
      </trkpt>
      <trkpt lat="49.17737" lon="6.67578">
        <ele>238.51</ele>
        <time>2020-01-12T14:44:13.000Z</time>
      </trkpt>
      <trkpt lat="49.17732" lon="6.67579">
        <ele>237.33</ele>
        <time>2020-01-12T14:44:23.000Z</time>
      </trkpt>
      <trkpt lat="49.17735" lon="6.67583">
        <ele>237.04</ele>
        <time>2020-01-12T14:44:33.000Z</time>
      </trkpt>
      <trkpt lat="49.17733" lon="6.67575">
        <ele>236.72</ele>
        <time>2020-01-12T14:44:43.000Z</time>
      </trkpt>
      <trkpt lat="49.17733" lon="6.67575">
        <ele>236.72</ele>
        <time>2020-01-12T14:44:54.000Z</time>
      </trkpt>
    </trkseg>
  </trk>
</gpx>